<?xml version="1.0" encoding="UTF-8" standalone="no" ?>
<gpx xmlns="http://www.topografix.com/GPX/1/1" xmlns:xsi="http://www.w3.org/2001/XMLSchema-instance" xsi:schemaLocation="http://www.topografix.com/GPX/1/1 http://www.topografix.com/GPX/1/1/gpx.xsd" version="1.1" creator="VisuGPX - https://www.visugpx.com">
  <metadata>
    <name>Montfalcon</name>
    <desc><![CDATA[2010-10-20_Montfalcon]]></desc>
  </metadata>
  <trk>
    <name><![CDATA[Montfalcon]]></name>
    <cmt><![CDATA[Brigitte, Patrick, Bernard]]></cmt>
    <trkseg>
      <trkpt lat="45.11597" lon="4.96549">
        <ele>198.41000366211</ele>
        <time>2010-10-20T11:15:08Z</time>
      </trkpt>
      <trkpt lat="45.11615" lon="4.96598">
        <ele>199.02299499512</ele>
        <time>2010-10-20T11:15:16Z</time>
      </trkpt>
      <trkpt lat="45.11632" lon="4.96641">
        <ele>198.94999694824</ele>
        <time>2010-10-20T11:15:23Z</time>
      </trkpt>
      <trkpt lat="45.11641" lon="4.96664">
        <ele>198.88200378418</ele>
        <time>2010-10-20T11:15:27Z</time>
      </trkpt>
      <trkpt lat="45.11641" lon="4.96692">
        <ele>200.50300598144</ele>
        <time>2010-10-20T11:15:32Z</time>
      </trkpt>
      <trkpt lat="45.11639" lon="4.96695">
        <ele>200.83700561523</ele>
        <time>2010-10-20T11:15:33Z</time>
      </trkpt>
      <trkpt lat="45.11636" lon="4.96697">
        <ele>200.90699768066</ele>
        <time>2010-10-20T11:15:36Z</time>
      </trkpt>
      <trkpt lat="45.11639" lon="4.96702">
        <ele>199.56199645996</ele>
        <time>2010-10-20T11:16:08Z</time>
      </trkpt>
      <trkpt lat="45.11649" lon="4.96697">
        <ele>199.93099975586</ele>
        <time>2010-10-20T11:16:12Z</time>
      </trkpt>
      <trkpt lat="45.11652" lon="4.96679">
        <ele>200.41499328613</ele>
        <time>2010-10-20T11:16:15Z</time>
      </trkpt>
      <trkpt lat="45.11647" lon="4.96665">
        <ele>200.38299560547</ele>
        <time>2010-10-20T11:16:17Z</time>
      </trkpt>
      <trkpt lat="45.11636" lon="4.96633">
        <ele>200.02600097656</ele>
        <time>2010-10-20T11:16:21Z</time>
      </trkpt>
      <trkpt lat="45.11632" lon="4.96624">
        <ele>200.04100036621</ele>
        <time>2010-10-20T11:16:22Z</time>
      </trkpt>
      <trkpt lat="45.11618" lon="4.96586">
        <ele>200.80999755859</ele>
        <time>2010-10-20T11:16:26Z</time>
      </trkpt>
      <trkpt lat="45.11586" lon="4.96506">
        <ele>200.4880065918</ele>
        <time>2010-10-20T11:16:35Z</time>
      </trkpt>
      <trkpt lat="45.11581" lon="4.96473">
        <ele>200.84599304199</ele>
        <time>2010-10-20T11:16:39Z</time>
      </trkpt>
      <trkpt lat="45.11582" lon="4.96453">
        <ele>201.25</ele>
        <time>2010-10-20T11:16:42Z</time>
      </trkpt>
      <trkpt lat="45.11576" lon="4.96443">
        <ele>202.29899597168</ele>
        <time>2010-10-20T11:16:46Z</time>
      </trkpt>
      <trkpt lat="45.11576" lon="4.96442">
        <ele>202.27400207519</ele>
        <time>2010-10-20T11:16:47Z</time>
      </trkpt>
      <trkpt lat="45.11572" lon="4.96447">
        <ele>202.17999267578</ele>
        <time>2010-10-20T11:17:06Z</time>
      </trkpt>
      <trkpt lat="45.11564" lon="4.96443">
        <ele>201.78799438477</ele>
        <time>2010-10-20T11:17:09Z</time>
      </trkpt>
      <trkpt lat="45.11559" lon="4.96424">
        <ele>201.82499694824</ele>
        <time>2010-10-20T11:17:13Z</time>
      </trkpt>
      <trkpt lat="45.11563" lon="4.9642">
        <ele>202.57000732422</ele>
        <time>2010-10-20T11:17:16Z</time>
      </trkpt>
      <trkpt lat="45.11564" lon="4.96421">
        <ele>202.7859954834</ele>
        <time>2010-10-20T11:17:17Z</time>
      </trkpt>
      <trkpt lat="45.11565" lon="4.96425">
        <ele>202.16400146484</ele>
        <time>2010-10-20T11:18:12Z</time>
      </trkpt>
      <trkpt lat="45.1156" lon="4.96435">
        <ele>201.53500366211</ele>
        <time>2010-10-20T11:18:17Z</time>
      </trkpt>
      <trkpt lat="45.11566" lon="4.96445">
        <ele>201.14700317383</ele>
        <time>2010-10-20T11:18:20Z</time>
      </trkpt>
      <trkpt lat="45.11574" lon="4.96448">
        <ele>201.14100646973</ele>
        <time>2010-10-20T11:18:23Z</time>
      </trkpt>
      <trkpt lat="45.11576" lon="4.96445">
        <ele>201.73399353027</ele>
        <time>2010-10-20T11:18:27Z</time>
      </trkpt>
      <trkpt lat="45.11577" lon="4.96446">
        <ele>201.7140045166</ele>
        <time>2010-10-20T11:18:28Z</time>
      </trkpt>
      <trkpt lat="45.1158" lon="4.96451">
        <ele>201.79200744629</ele>
        <time>2010-10-20T11:18:32Z</time>
      </trkpt>
      <trkpt lat="45.11582" lon="4.96468">
        <ele>201.34700012207</ele>
        <time>2010-10-20T11:18:36Z</time>
      </trkpt>
      <trkpt lat="45.11582" lon="4.96492">
        <ele>200.52900695801</ele>
        <time>2010-10-20T11:18:40Z</time>
      </trkpt>
      <trkpt lat="45.11583" lon="4.96507">
        <ele>199.24899291992</ele>
        <time>2010-10-20T11:18:42Z</time>
      </trkpt>
      <trkpt lat="45.11605" lon="4.96569">
        <ele>198.59700012207</ele>
        <time>2010-10-20T11:18:51Z</time>
      </trkpt>
      <trkpt lat="45.11624" lon="4.96619">
        <ele>199.18299865723</ele>
        <time>2010-10-20T11:18:58Z</time>
      </trkpt>
      <trkpt lat="45.11637" lon="4.96654">
        <ele>198.51699829102</ele>
        <time>2010-10-20T11:19:03Z</time>
      </trkpt>
      <trkpt lat="45.11658" lon="4.96706">
        <ele>199.73300170898</ele>
        <time>2010-10-20T11:19:11Z</time>
      </trkpt>
      <trkpt lat="45.11683" lon="4.96758">
        <ele>201.23899841309</ele>
        <time>2010-10-20T11:19:19Z</time>
      </trkpt>
      <trkpt lat="45.11716" lon="4.96812">
        <ele>200.62300109863</ele>
        <time>2010-10-20T11:19:28Z</time>
      </trkpt>
      <trkpt lat="45.11727" lon="4.9683">
        <ele>200.10899353027</ele>
        <time>2010-10-20T11:19:31Z</time>
      </trkpt>
      <trkpt lat="45.11739" lon="4.96868">
        <ele>200.59300231934</ele>
        <time>2010-10-20T11:19:36Z</time>
      </trkpt>
      <trkpt lat="45.11755" lon="4.9688">
        <ele>200.51899719238</ele>
        <time>2010-10-20T11:19:39Z</time>
      </trkpt>
      <trkpt lat="45.11764" lon="4.96891">
        <ele>200.66299438477</ele>
        <time>2010-10-20T11:19:41Z</time>
      </trkpt>
      <trkpt lat="45.118" lon="4.96949">
        <ele>201.37100219727</ele>
        <time>2010-10-20T11:19:50Z</time>
      </trkpt>
      <trkpt lat="45.11844" lon="4.97011">
        <ele>201.69999694824</ele>
        <time>2010-10-20T11:20:00Z</time>
      </trkpt>
      <trkpt lat="45.11871" lon="4.97047">
        <ele>202.16200256348</ele>
        <time>2010-10-20T11:20:06Z</time>
      </trkpt>
      <trkpt lat="45.1188" lon="4.97078">
        <ele>202.06900024414</ele>
        <time>2010-10-20T11:20:10Z</time>
      </trkpt>
      <trkpt lat="45.11878" lon="4.97106">
        <ele>200.9049987793</ele>
        <time>2010-10-20T11:20:13Z</time>
      </trkpt>
      <trkpt lat="45.11874" lon="4.97124">
        <ele>200.00700378418</ele>
        <time>2010-10-20T11:20:15Z</time>
      </trkpt>
      <trkpt lat="45.11876" lon="4.97173">
        <ele>200.19500732422</ele>
        <time>2010-10-20T11:20:20Z</time>
      </trkpt>
      <trkpt lat="45.11891" lon="4.9726">
        <ele>199.29299926758</ele>
        <time>2010-10-20T11:20:29Z</time>
      </trkpt>
      <trkpt lat="45.119" lon="4.97315">
        <ele>199.98199462891</ele>
        <time>2010-10-20T11:20:35Z</time>
      </trkpt>
      <trkpt lat="45.11913" lon="4.97385">
        <ele>199.42999267578</ele>
        <time>2010-10-20T11:20:43Z</time>
      </trkpt>
      <trkpt lat="45.11928" lon="4.97472">
        <ele>200.34199523926</ele>
        <time>2010-10-20T11:20:54Z</time>
      </trkpt>
      <trkpt lat="45.11939" lon="4.97541">
        <ele>200.58700561523</ele>
        <time>2010-10-20T11:21:03Z</time>
      </trkpt>
      <trkpt lat="45.11947" lon="4.97594">
        <ele>201.48699951172</ele>
        <time>2010-10-20T11:21:10Z</time>
      </trkpt>
      <trkpt lat="45.11955" lon="4.9763">
        <ele>201.54600524902</ele>
        <time>2010-10-20T11:21:15Z</time>
      </trkpt>
      <trkpt lat="45.11968" lon="4.97708">
        <ele>201.41200256348</ele>
        <time>2010-10-20T11:21:25Z</time>
      </trkpt>
      <trkpt lat="45.11983" lon="4.97792">
        <ele>202.43600463867</ele>
        <time>2010-10-20T11:21:35Z</time>
      </trkpt>
      <trkpt lat="45.11999" lon="4.97884">
        <ele>203.48899841309</ele>
        <time>2010-10-20T11:21:46Z</time>
      </trkpt>
      <trkpt lat="45.12014" lon="4.97958">
        <ele>203.55400085449</ele>
        <time>2010-10-20T11:21:55Z</time>
      </trkpt>
      <trkpt lat="45.12038" lon="4.98045">
        <ele>205.20899963379</ele>
        <time>2010-10-20T11:22:06Z</time>
      </trkpt>
      <trkpt lat="45.12056" lon="4.98118">
        <ele>205.7380065918</ele>
        <time>2010-10-20T11:22:15Z</time>
      </trkpt>
      <trkpt lat="45.12064" lon="4.98177">
        <ele>204.81399536133</ele>
        <time>2010-10-20T11:22:22Z</time>
      </trkpt>
      <trkpt lat="45.12064" lon="4.98254">
        <ele>206.17500305176</ele>
        <time>2010-10-20T11:22:31Z</time>
      </trkpt>
      <trkpt lat="45.12059" lon="4.98303">
        <ele>206.61700439453</ele>
        <time>2010-10-20T11:22:37Z</time>
      </trkpt>
      <trkpt lat="45.12053" lon="4.98341">
        <ele>206.78799438477</ele>
        <time>2010-10-20T11:22:42Z</time>
      </trkpt>
      <trkpt lat="45.12041" lon="4.98382">
        <ele>207.61399841309</ele>
        <time>2010-10-20T11:22:48Z</time>
      </trkpt>
      <trkpt lat="45.12023" lon="4.984">
        <ele>208.51499938965</ele>
        <time>2010-10-20T11:22:53Z</time>
      </trkpt>
      <trkpt lat="45.12018" lon="4.98399">
        <ele>208.49099731445</ele>
        <time>2010-10-20T11:22:54Z</time>
      </trkpt>
      <trkpt lat="45.12" lon="4.9839">
        <ele>207.12699890137</ele>
        <time>2010-10-20T11:22:57Z</time>
      </trkpt>
      <trkpt lat="45.11975" lon="4.98393">
        <ele>206.69700622559</ele>
        <time>2010-10-20T11:23:01Z</time>
      </trkpt>
      <trkpt lat="45.11964" lon="4.98398">
        <ele>206.89799499512</ele>
        <time>2010-10-20T11:23:03Z</time>
      </trkpt>
      <trkpt lat="45.1195" lon="4.98395">
        <ele>206.95100402832</ele>
        <time>2010-10-20T11:23:06Z</time>
      </trkpt>
      <trkpt lat="45.11948" lon="4.98406">
        <ele>207.03700256348</ele>
        <time>2010-10-20T11:23:09Z</time>
      </trkpt>
      <trkpt lat="45.1195" lon="4.98409">
        <ele>207.48599243164</ele>
        <time>2010-10-20T11:23:12Z</time>
      </trkpt>
      <trkpt lat="45.11956" lon="4.98401">
        <ele>206.54499816894</ele>
        <time>2010-10-20T11:32:26Z</time>
      </trkpt>
      <trkpt lat="45.11962" lon="4.98401">
        <ele>206.42599487305</ele>
        <time>2010-10-20T11:32:31Z</time>
      </trkpt>
      <trkpt lat="45.11966" lon="4.984">
        <ele>206.39300537109</ele>
        <time>2010-10-20T11:32:34Z</time>
      </trkpt>
      <trkpt lat="45.11978" lon="4.98394">
        <ele>206.80000305176</ele>
        <time>2010-10-20T11:32:40Z</time>
      </trkpt>
      <trkpt lat="45.11985" lon="4.98388">
        <ele>207.03700256348</ele>
        <time>2010-10-20T11:32:44Z</time>
      </trkpt>
      <trkpt lat="45.12002" lon="4.98394">
        <ele>206.42900085449</ele>
        <time>2010-10-20T11:32:51Z</time>
      </trkpt>
      <trkpt lat="45.12023" lon="4.98404">
        <ele>208.22599792481</ele>
        <time>2010-10-20T11:32:59Z</time>
      </trkpt>
      <trkpt lat="45.1203" lon="4.98416">
        <ele>208.89300537109</ele>
        <time>2010-10-20T11:33:03Z</time>
      </trkpt>
      <trkpt lat="45.12029" lon="4.98437">
        <ele>208.47500610352</ele>
        <time>2010-10-20T11:33:07Z</time>
      </trkpt>
      <trkpt lat="45.12024" lon="4.98458">
        <ele>208.42300415039</ele>
        <time>2010-10-20T11:33:11Z</time>
      </trkpt>
      <trkpt lat="45.12018" lon="4.98511">
        <ele>206.95500183106</ele>
        <time>2010-10-20T11:33:20Z</time>
      </trkpt>
      <trkpt lat="45.12016" lon="4.98544">
        <ele>207.625</ele>
        <time>2010-10-20T11:33:25Z</time>
      </trkpt>
      <trkpt lat="45.12017" lon="4.98604">
        <ele>207.24200439453</ele>
        <time>2010-10-20T11:33:34Z</time>
      </trkpt>
      <trkpt lat="45.12022" lon="4.9866">
        <ele>206.88299560547</ele>
        <time>2010-10-20T11:33:42Z</time>
      </trkpt>
      <trkpt lat="45.12035" lon="4.98735">
        <ele>206.68600463867</ele>
        <time>2010-10-20T11:33:53Z</time>
      </trkpt>
      <trkpt lat="45.12056" lon="4.98809">
        <ele>208.40299987793</ele>
        <time>2010-10-20T11:34:04Z</time>
      </trkpt>
      <trkpt lat="45.12073" lon="4.98854">
        <ele>208.93200683594</ele>
        <time>2010-10-20T11:34:11Z</time>
      </trkpt>
      <trkpt lat="45.12098" lon="4.98905">
        <ele>209.04499816894</ele>
        <time>2010-10-20T11:34:20Z</time>
      </trkpt>
      <trkpt lat="45.12121" lon="4.98946">
        <ele>209.81799316406</ele>
        <time>2010-10-20T11:34:28Z</time>
      </trkpt>
      <trkpt lat="45.12147" lon="4.98985">
        <ele>211.02499389648</ele>
        <time>2010-10-20T11:34:36Z</time>
      </trkpt>
      <trkpt lat="45.12174" lon="4.99017">
        <ele>212.40600585938</ele>
        <time>2010-10-20T11:34:44Z</time>
      </trkpt>
      <trkpt lat="45.12202" lon="4.99046">
        <ele>214.03799438477</ele>
        <time>2010-10-20T11:34:52Z</time>
      </trkpt>
      <trkpt lat="45.12214" lon="4.99071">
        <ele>215.28700256348</ele>
        <time>2010-10-20T11:34:57Z</time>
      </trkpt>
      <trkpt lat="45.12214" lon="4.99098">
        <ele>214.87199401856</ele>
        <time>2010-10-20T11:35:01Z</time>
      </trkpt>
      <trkpt lat="45.12194" lon="4.99174">
        <ele>213.47099304199</ele>
        <time>2010-10-20T11:35:11Z</time>
      </trkpt>
      <trkpt lat="45.12175" lon="4.99245">
        <ele>213.08299255371</ele>
        <time>2010-10-20T11:35:20Z</time>
      </trkpt>
      <trkpt lat="45.12157" lon="4.9931">
        <ele>212.85699462891</ele>
        <time>2010-10-20T11:35:28Z</time>
      </trkpt>
      <trkpt lat="45.12138" lon="4.9938">
        <ele>211.27299499512</ele>
        <time>2010-10-20T11:35:37Z</time>
      </trkpt>
      <trkpt lat="45.12119" lon="4.99436">
        <ele>211.79499816894</ele>
        <time>2010-10-20T11:35:45Z</time>
      </trkpt>
      <trkpt lat="45.12114" lon="4.9945">
        <ele>212.43400573731</ele>
        <time>2010-10-20T11:35:47Z</time>
      </trkpt>
      <trkpt lat="45.12088" lon="4.995">
        <ele>213.66999816894</ele>
        <time>2010-10-20T11:35:55Z</time>
      </trkpt>
      <trkpt lat="45.12058" lon="4.99553">
        <ele>214.69400024414</ele>
        <time>2010-10-20T11:36:04Z</time>
      </trkpt>
      <trkpt lat="45.12025" lon="4.99612">
        <ele>214.88000488281</ele>
        <time>2010-10-20T11:36:13Z</time>
      </trkpt>
      <trkpt lat="45.11988" lon="4.99681">
        <ele>214.33700561523</ele>
        <time>2010-10-20T11:36:23Z</time>
      </trkpt>
      <trkpt lat="45.1197" lon="4.99716">
        <ele>214.58399963379</ele>
        <time>2010-10-20T11:36:28Z</time>
      </trkpt>
      <trkpt lat="45.11964" lon="4.99748">
        <ele>213.5950012207</ele>
        <time>2010-10-20T11:36:32Z</time>
      </trkpt>
      <trkpt lat="45.11964" lon="4.99779">
        <ele>213.78500366211</ele>
        <time>2010-10-20T11:36:36Z</time>
      </trkpt>
      <trkpt lat="45.11963" lon="4.99815">
        <ele>213.9880065918</ele>
        <time>2010-10-20T11:36:41Z</time>
      </trkpt>
      <trkpt lat="45.11962" lon="4.99828">
        <ele>214.17799377441</ele>
        <time>2010-10-20T11:36:43Z</time>
      </trkpt>
      <trkpt lat="45.11962" lon="4.99862">
        <ele>214.83200073242</ele>
        <time>2010-10-20T11:36:49Z</time>
      </trkpt>
      <trkpt lat="45.11966" lon="4.99875">
        <ele>214.7619934082</ele>
        <time>2010-10-20T11:36:52Z</time>
      </trkpt>
      <trkpt lat="45.11968" lon="4.99879">
        <ele>214.67199707031</ele>
        <time>2010-10-20T11:36:53Z</time>
      </trkpt>
      <trkpt lat="45.11984" lon="4.99907">
        <ele>214.01899719238</ele>
        <time>2010-10-20T11:37:00Z</time>
      </trkpt>
      <trkpt lat="45.12004" lon="4.99936">
        <ele>214.3809967041</ele>
        <time>2010-10-20T11:37:07Z</time>
      </trkpt>
      <trkpt lat="45.12015" lon="4.99954">
        <ele>214.50500488281</ele>
        <time>2010-10-20T11:37:11Z</time>
      </trkpt>
      <trkpt lat="45.12036" lon="4.99987">
        <ele>214.21600341797</ele>
        <time>2010-10-20T11:37:18Z</time>
      </trkpt>
      <trkpt lat="45.1204" lon="4.99992">
        <ele>214.27699279785</ele>
        <time>2010-10-20T11:37:19Z</time>
      </trkpt>
      <trkpt lat="45.12054" lon="5.0002">
        <ele>214.89700317383</ele>
        <time>2010-10-20T11:37:24Z</time>
      </trkpt>
      <trkpt lat="45.1207" lon="5.00062">
        <ele>214.94599914551</ele>
        <time>2010-10-20T11:37:31Z</time>
      </trkpt>
      <trkpt lat="45.12078" lon="5.00085">
        <ele>215.06700134277</ele>
        <time>2010-10-20T11:37:35Z</time>
      </trkpt>
      <trkpt lat="45.12089" lon="5.00123">
        <ele>216.70799255371</ele>
        <time>2010-10-20T11:37:42Z</time>
      </trkpt>
      <trkpt lat="45.12092" lon="5.0014">
        <ele>216.40699768066</ele>
        <time>2010-10-20T11:37:45Z</time>
      </trkpt>
      <trkpt lat="45.12097" lon="5.00162">
        <ele>216.88999938965</ele>
        <time>2010-10-20T11:37:49Z</time>
      </trkpt>
      <trkpt lat="45.1211" lon="5.00211">
        <ele>218.1309967041</ele>
        <time>2010-10-20T11:37:57Z</time>
      </trkpt>
      <trkpt lat="45.1213" lon="5.00259">
        <ele>218.50199890137</ele>
        <time>2010-10-20T11:38:05Z</time>
      </trkpt>
      <trkpt lat="45.12156" lon="5.00307">
        <ele>217.99099731445</ele>
        <time>2010-10-20T11:38:13Z</time>
      </trkpt>
      <trkpt lat="45.1218" lon="5.00337">
        <ele>218.12899780273</ele>
        <time>2010-10-20T11:38:19Z</time>
      </trkpt>
      <trkpt lat="45.12217" lon="5.00373">
        <ele>217.50900268555</ele>
        <time>2010-10-20T11:38:27Z</time>
      </trkpt>
      <trkpt lat="45.12253" lon="5.00413">
        <ele>218.80099487305</ele>
        <time>2010-10-20T11:38:36Z</time>
      </trkpt>
      <trkpt lat="45.12278" lon="5.00449">
        <ele>219.5359954834</ele>
        <time>2010-10-20T11:38:43Z</time>
      </trkpt>
      <trkpt lat="45.12302" lon="5.00487">
        <ele>219.91499328613</ele>
        <time>2010-10-20T11:38:51Z</time>
      </trkpt>
      <trkpt lat="45.1232" lon="5.00519">
        <ele>220.93400573731</ele>
        <time>2010-10-20T11:38:57Z</time>
      </trkpt>
      <trkpt lat="45.12357" lon="5.00566">
        <ele>221.25199890137</ele>
        <time>2010-10-20T11:39:07Z</time>
      </trkpt>
      <trkpt lat="45.12387" lon="5.00602">
        <ele>222.18200683594</ele>
        <time>2010-10-20T11:39:15Z</time>
      </trkpt>
      <trkpt lat="45.12422" lon="5.00633">
        <ele>222.97900390625</ele>
        <time>2010-10-20T11:39:24Z</time>
      </trkpt>
      <trkpt lat="45.12464" lon="5.00674">
        <ele>224.70300292969</ele>
        <time>2010-10-20T11:39:35Z</time>
      </trkpt>
      <trkpt lat="45.12495" lon="5.00709">
        <ele>224.48199462891</ele>
        <time>2010-10-20T11:39:43Z</time>
      </trkpt>
      <trkpt lat="45.12532" lon="5.00755">
        <ele>225.52799987793</ele>
        <time>2010-10-20T11:39:53Z</time>
      </trkpt>
      <trkpt lat="45.1256" lon="5.00803">
        <ele>226.44799804688</ele>
        <time>2010-10-20T11:40:02Z</time>
      </trkpt>
      <trkpt lat="45.12573" lon="5.00824">
        <ele>226.10000610352</ele>
        <time>2010-10-20T11:40:06Z</time>
      </trkpt>
      <trkpt lat="45.12603" lon="5.00875">
        <ele>225.85899353027</ele>
        <time>2010-10-20T11:40:15Z</time>
      </trkpt>
      <trkpt lat="45.12624" lon="5.0091">
        <ele>225.74499511719</ele>
        <time>2010-10-20T11:40:21Z</time>
      </trkpt>
      <trkpt lat="45.1265" lon="5.0095">
        <ele>225.38200378418</ele>
        <time>2010-10-20T11:40:28Z</time>
      </trkpt>
      <trkpt lat="45.12678" lon="5.00995">
        <ele>225.2859954834</ele>
        <time>2010-10-20T11:40:36Z</time>
      </trkpt>
      <trkpt lat="45.12708" lon="5.01036">
        <ele>226.27400207519</ele>
        <time>2010-10-20T11:40:44Z</time>
      </trkpt>
      <trkpt lat="45.12745" lon="5.01069">
        <ele>227.63800048828</ele>
        <time>2010-10-20T11:40:53Z</time>
      </trkpt>
      <trkpt lat="45.12788" lon="5.01102">
        <ele>228.75199890137</ele>
        <time>2010-10-20T11:41:03Z</time>
      </trkpt>
      <trkpt lat="45.12829" lon="5.01134">
        <ele>229.3869934082</ele>
        <time>2010-10-20T11:41:13Z</time>
      </trkpt>
      <trkpt lat="45.12859" lon="5.01165">
        <ele>230.45199584961</ele>
        <time>2010-10-20T11:41:21Z</time>
      </trkpt>
      <trkpt lat="45.12886" lon="5.0121">
        <ele>230.81599426269</ele>
        <time>2010-10-20T11:41:30Z</time>
      </trkpt>
      <trkpt lat="45.12908" lon="5.01255">
        <ele>230.73100280762</ele>
        <time>2010-10-20T11:41:38Z</time>
      </trkpt>
      <trkpt lat="45.1292" lon="5.01277">
        <ele>231.33700561523</ele>
        <time>2010-10-20T11:41:42Z</time>
      </trkpt>
      <trkpt lat="45.12943" lon="5.01322">
        <ele>232.45100402832</ele>
        <time>2010-10-20T11:41:50Z</time>
      </trkpt>
      <trkpt lat="45.1296" lon="5.01354">
        <ele>232.4109954834</ele>
        <time>2010-10-20T11:41:56Z</time>
      </trkpt>
      <trkpt lat="45.12983" lon="5.01398">
        <ele>233.46000671387</ele>
        <time>2010-10-20T11:42:04Z</time>
      </trkpt>
      <trkpt lat="45.13005" lon="5.0144">
        <ele>234.27900695801</ele>
        <time>2010-10-20T11:42:12Z</time>
      </trkpt>
      <trkpt lat="45.13035" lon="5.01496">
        <ele>235.24299621582</ele>
        <time>2010-10-20T11:42:22Z</time>
      </trkpt>
      <trkpt lat="45.13042" lon="5.01513">
        <ele>235.45599365234</ele>
        <time>2010-10-20T11:42:25Z</time>
      </trkpt>
      <trkpt lat="45.13054" lon="5.01549">
        <ele>236.11199951172</ele>
        <time>2010-10-20T11:42:32Z</time>
      </trkpt>
      <trkpt lat="45.13065" lon="5.01579">
        <ele>236.11000061035</ele>
        <time>2010-10-20T11:42:37Z</time>
      </trkpt>
      <trkpt lat="45.13077" lon="5.01613">
        <ele>236.0059967041</ele>
        <time>2010-10-20T11:42:43Z</time>
      </trkpt>
      <trkpt lat="45.13081" lon="5.01632">
        <ele>236.3390045166</ele>
        <time>2010-10-20T11:42:46Z</time>
      </trkpt>
      <trkpt lat="45.13091" lon="5.0168">
        <ele>236.07099914551</ele>
        <time>2010-10-20T11:42:53Z</time>
      </trkpt>
      <trkpt lat="45.1309" lon="5.0173">
        <ele>236.05099487305</ele>
        <time>2010-10-20T11:43:00Z</time>
      </trkpt>
      <trkpt lat="45.13091" lon="5.01778">
        <ele>235.27900695801</ele>
        <time>2010-10-20T11:43:06Z</time>
      </trkpt>
      <trkpt lat="45.13101" lon="5.01832">
        <ele>235.83700561523</ele>
        <time>2010-10-20T11:43:13Z</time>
      </trkpt>
      <trkpt lat="45.1312" lon="5.01885">
        <ele>236.96000671387</ele>
        <time>2010-10-20T11:43:21Z</time>
      </trkpt>
      <trkpt lat="45.13135" lon="5.01914">
        <ele>237.50100708008</ele>
        <time>2010-10-20T11:43:26Z</time>
      </trkpt>
      <trkpt lat="45.13161" lon="5.01933">
        <ele>237.07600402832</ele>
        <time>2010-10-20T11:43:32Z</time>
      </trkpt>
      <trkpt lat="45.13172" lon="5.01933">
        <ele>237.23500061035</ele>
        <time>2010-10-20T11:43:34Z</time>
      </trkpt>
      <trkpt lat="45.13225" lon="5.01928">
        <ele>237.37800598144</ele>
        <time>2010-10-20T11:43:44Z</time>
      </trkpt>
      <trkpt lat="45.13254" lon="5.01941">
        <ele>238.48899841309</ele>
        <time>2010-10-20T11:43:50Z</time>
      </trkpt>
      <trkpt lat="45.13278" lon="5.01961">
        <ele>240.14300537109</ele>
        <time>2010-10-20T11:43:56Z</time>
      </trkpt>
      <trkpt lat="45.13302" lon="5.01983">
        <ele>242.0059967041</ele>
        <time>2010-10-20T11:44:03Z</time>
      </trkpt>
      <trkpt lat="45.13317" lon="5.01996">
        <ele>242.7559967041</ele>
        <time>2010-10-20T11:44:07Z</time>
      </trkpt>
      <trkpt lat="45.13331" lon="5.02008">
        <ele>243.85400390625</ele>
        <time>2010-10-20T11:44:11Z</time>
      </trkpt>
      <trkpt lat="45.13352" lon="5.02025">
        <ele>245.4049987793</ele>
        <time>2010-10-20T11:44:17Z</time>
      </trkpt>
      <trkpt lat="45.13377" lon="5.02042">
        <ele>246.27699279785</ele>
        <time>2010-10-20T11:44:24Z</time>
      </trkpt>
      <trkpt lat="45.13393" lon="5.02055">
        <ele>247.97099304199</ele>
        <time>2010-10-20T11:44:29Z</time>
      </trkpt>
      <trkpt lat="45.13407" lon="5.02064">
        <ele>248.80200195312</ele>
        <time>2010-10-20T11:44:34Z</time>
      </trkpt>
      <trkpt lat="45.13422" lon="5.02073">
        <ele>250.19099426269</ele>
        <time>2010-10-20T11:44:39Z</time>
      </trkpt>
      <trkpt lat="45.1344" lon="5.02084">
        <ele>251.76499938965</ele>
        <time>2010-10-20T11:44:45Z</time>
      </trkpt>
      <trkpt lat="45.13453" lon="5.02094">
        <ele>252.6190032959</ele>
        <time>2010-10-20T11:44:50Z</time>
      </trkpt>
      <trkpt lat="45.13468" lon="5.02108">
        <ele>254.11099243164</ele>
        <time>2010-10-20T11:44:56Z</time>
      </trkpt>
      <trkpt lat="45.13489" lon="5.02132">
        <ele>256.38900756836</ele>
        <time>2010-10-20T11:45:04Z</time>
      </trkpt>
      <trkpt lat="45.13507" lon="5.0215">
        <ele>258.24798583984</ele>
        <time>2010-10-20T11:45:11Z</time>
      </trkpt>
      <trkpt lat="45.13528" lon="5.0217">
        <ele>259.06600952148</ele>
        <time>2010-10-20T11:45:19Z</time>
      </trkpt>
      <trkpt lat="45.13548" lon="5.02188">
        <ele>259.67001342773</ele>
        <time>2010-10-20T11:45:26Z</time>
      </trkpt>
      <trkpt lat="45.13551" lon="5.02191">
        <ele>259.96600341797</ele>
        <time>2010-10-20T11:45:27Z</time>
      </trkpt>
      <trkpt lat="45.13568" lon="5.02207">
        <ele>260.92999267578</ele>
        <time>2010-10-20T11:45:33Z</time>
      </trkpt>
      <trkpt lat="45.13588" lon="5.02224">
        <ele>261.70700073242</ele>
        <time>2010-10-20T11:45:40Z</time>
      </trkpt>
      <trkpt lat="45.13618" lon="5.02252">
        <ele>261.86499023438</ele>
        <time>2010-10-20T11:45:49Z</time>
      </trkpt>
      <trkpt lat="45.13652" lon="5.02283">
        <ele>263.32400512695</ele>
        <time>2010-10-20T11:45:58Z</time>
      </trkpt>
      <trkpt lat="45.13694" lon="5.02322">
        <ele>263.38500976562</ele>
        <time>2010-10-20T11:46:09Z</time>
      </trkpt>
      <trkpt lat="45.13729" lon="5.02354">
        <ele>264.41101074219</ele>
        <time>2010-10-20T11:46:18Z</time>
      </trkpt>
      <trkpt lat="45.13763" lon="5.02386">
        <ele>265.30499267578</ele>
        <time>2010-10-20T11:46:27Z</time>
      </trkpt>
      <trkpt lat="45.13793" lon="5.02413">
        <ele>265.58700561523</ele>
        <time>2010-10-20T11:46:35Z</time>
      </trkpt>
      <trkpt lat="45.1384" lon="5.02455">
        <ele>266.27099609375</ele>
        <time>2010-10-20T11:46:47Z</time>
      </trkpt>
      <trkpt lat="45.13899" lon="5.02507">
        <ele>267.02398681641</ele>
        <time>2010-10-20T11:47:01Z</time>
      </trkpt>
      <trkpt lat="45.13926" lon="5.0254">
        <ele>267.03399658203</ele>
        <time>2010-10-20T11:47:08Z</time>
      </trkpt>
      <trkpt lat="45.13951" lon="5.02585">
        <ele>267.48199462891</ele>
        <time>2010-10-20T11:47:16Z</time>
      </trkpt>
      <trkpt lat="45.13975" lon="5.02645">
        <ele>267.11499023438</ele>
        <time>2010-10-20T11:47:25Z</time>
      </trkpt>
      <trkpt lat="45.13985" lon="5.0267">
        <ele>266.84399414062</ele>
        <time>2010-10-20T11:47:29Z</time>
      </trkpt>
      <trkpt lat="45.14" lon="5.02712">
        <ele>267.48999023438</ele>
        <time>2010-10-20T11:47:36Z</time>
      </trkpt>
      <trkpt lat="45.14024" lon="5.02775">
        <ele>267.70098876953</ele>
        <time>2010-10-20T11:47:46Z</time>
      </trkpt>
      <trkpt lat="45.14048" lon="5.02826">
        <ele>267.93099975586</ele>
        <time>2010-10-20T11:47:55Z</time>
      </trkpt>
      <trkpt lat="45.14079" lon="5.02867">
        <ele>267.63198852539</ele>
        <time>2010-10-20T11:48:04Z</time>
      </trkpt>
      <trkpt lat="45.14111" lon="5.02906">
        <ele>268.30899047852</ele>
        <time>2010-10-20T11:48:13Z</time>
      </trkpt>
      <trkpt lat="45.14146" lon="5.02948">
        <ele>269.13299560547</ele>
        <time>2010-10-20T11:48:23Z</time>
      </trkpt>
      <trkpt lat="45.14191" lon="5.02999">
        <ele>269.04998779297</ele>
        <time>2010-10-20T11:48:35Z</time>
      </trkpt>
      <trkpt lat="45.14244" lon="5.0306">
        <ele>270.14898681641</ele>
        <time>2010-10-20T11:48:49Z</time>
      </trkpt>
      <trkpt lat="45.14285" lon="5.03111">
        <ele>270.46600341797</ele>
        <time>2010-10-20T11:49:00Z</time>
      </trkpt>
      <trkpt lat="45.14322" lon="5.03142">
        <ele>271.40798950195</ele>
        <time>2010-10-20T11:49:09Z</time>
      </trkpt>
      <trkpt lat="45.14368" lon="5.03168">
        <ele>271.8330078125</ele>
        <time>2010-10-20T11:49:19Z</time>
      </trkpt>
      <trkpt lat="45.14418" lon="5.03193">
        <ele>272.58700561523</ele>
        <time>2010-10-20T11:49:30Z</time>
      </trkpt>
      <trkpt lat="45.14482" lon="5.03224">
        <ele>274.41500854492</ele>
        <time>2010-10-20T11:49:44Z</time>
      </trkpt>
      <trkpt lat="45.14537" lon="5.03251">
        <ele>275.82901000977</ele>
        <time>2010-10-20T11:49:56Z</time>
      </trkpt>
      <trkpt lat="45.14587" lon="5.03276">
        <ele>276.17001342773</ele>
        <time>2010-10-20T11:50:07Z</time>
      </trkpt>
      <trkpt lat="45.14601" lon="5.03285">
        <ele>276.95999145508</ele>
        <time>2010-10-20T11:50:12Z</time>
      </trkpt>
      <trkpt lat="45.14604" lon="5.03284">
        <ele>277.62701416016</ele>
        <time>2010-10-20T11:50:14Z</time>
      </trkpt>
      <trkpt lat="45.1461" lon="5.0329">
        <ele>277.46600341797</ele>
        <time>2010-10-20T11:50:19Z</time>
      </trkpt>
      <trkpt lat="45.14612" lon="5.03298">
        <ele>277.4880065918</ele>
        <time>2010-10-20T11:50:22Z</time>
      </trkpt>
      <trkpt lat="45.1462" lon="5.0332">
        <ele>276.43099975586</ele>
        <time>2010-10-20T11:50:28Z</time>
      </trkpt>
      <trkpt lat="45.14638" lon="5.03359">
        <ele>277.74600219727</ele>
        <time>2010-10-20T11:50:36Z</time>
      </trkpt>
      <trkpt lat="45.14657" lon="5.03401">
        <ele>278.66598510742</ele>
        <time>2010-10-20T11:50:45Z</time>
      </trkpt>
      <trkpt lat="45.14668" lon="5.03424">
        <ele>280.1369934082</ele>
        <time>2010-10-20T11:50:50Z</time>
      </trkpt>
      <trkpt lat="45.14682" lon="5.03452">
        <ele>282.25900268555</ele>
        <time>2010-10-20T11:50:57Z</time>
      </trkpt>
      <trkpt lat="45.14691" lon="5.03474">
        <ele>283.14401245117</ele>
        <time>2010-10-20T11:51:03Z</time>
      </trkpt>
      <trkpt lat="45.14701" lon="5.03499">
        <ele>284.90301513672</ele>
        <time>2010-10-20T11:51:10Z</time>
      </trkpt>
      <trkpt lat="45.1471" lon="5.03523">
        <ele>287.48599243164</ele>
        <time>2010-10-20T11:51:16Z</time>
      </trkpt>
      <trkpt lat="45.14718" lon="5.03543">
        <ele>288.54299926758</ele>
        <time>2010-10-20T11:51:21Z</time>
      </trkpt>
      <trkpt lat="45.14734" lon="5.03569">
        <ele>289.15798950195</ele>
        <time>2010-10-20T11:51:28Z</time>
      </trkpt>
      <trkpt lat="45.14755" lon="5.03592">
        <ele>291.44400024414</ele>
        <time>2010-10-20T11:51:36Z</time>
      </trkpt>
      <trkpt lat="45.14771" lon="5.03601">
        <ele>290.45001220703</ele>
        <time>2010-10-20T11:51:41Z</time>
      </trkpt>
      <trkpt lat="45.14789" lon="5.03618">
        <ele>289.25799560547</ele>
        <time>2010-10-20T11:51:47Z</time>
      </trkpt>
      <trkpt lat="45.14798" lon="5.03631">
        <ele>289.04800415039</ele>
        <time>2010-10-20T11:51:50Z</time>
      </trkpt>
      <trkpt lat="45.14812" lon="5.03649">
        <ele>287.50201416016</ele>
        <time>2010-10-20T11:51:54Z</time>
      </trkpt>
      <trkpt lat="45.1483" lon="5.03667">
        <ele>287.41101074219</ele>
        <time>2010-10-20T11:51:58Z</time>
      </trkpt>
      <trkpt lat="45.14829" lon="5.03682">
        <ele>285.95199584961</ele>
        <time>2010-10-20T11:52:00Z</time>
      </trkpt>
      <trkpt lat="45.14829" lon="5.03689">
        <ele>285.75698852539</ele>
        <time>2010-10-20T11:52:01Z</time>
      </trkpt>
      <trkpt lat="45.14833" lon="5.03698">
        <ele>286.65399169922</ele>
        <time>2010-10-20T11:52:03Z</time>
      </trkpt>
      <trkpt lat="45.14843" lon="5.03696">
        <ele>287.24200439453</ele>
        <time>2010-10-20T11:52:06Z</time>
      </trkpt>
      <trkpt lat="45.14856" lon="5.03691">
        <ele>286.84899902344</ele>
        <time>2010-10-20T11:52:10Z</time>
      </trkpt>
      <trkpt lat="45.14888" lon="5.03696">
        <ele>286.34698486328</ele>
        <time>2010-10-20T11:52:17Z</time>
      </trkpt>
      <trkpt lat="45.14938" lon="5.03713">
        <ele>283.98400878906</ele>
        <time>2010-10-20T11:52:27Z</time>
      </trkpt>
      <trkpt lat="45.14986" lon="5.03736">
        <ele>283.00698852539</ele>
        <time>2010-10-20T11:52:36Z</time>
      </trkpt>
      <trkpt lat="45.14992" lon="5.03739">
        <ele>282.80499267578</ele>
        <time>2010-10-20T11:52:37Z</time>
      </trkpt>
      <trkpt lat="45.15042" lon="5.03773">
        <ele>282.31900024414</ele>
        <time>2010-10-20T11:52:46Z</time>
      </trkpt>
      <trkpt lat="45.15059" lon="5.03786">
        <ele>281.82901000977</ele>
        <time>2010-10-20T11:52:49Z</time>
      </trkpt>
      <trkpt lat="45.15123" lon="5.03831">
        <ele>278.53799438477</ele>
        <time>2010-10-20T11:52:59Z</time>
      </trkpt>
      <trkpt lat="45.15162" lon="5.03859">
        <ele>275.69500732422</ele>
        <time>2010-10-20T11:53:05Z</time>
      </trkpt>
      <trkpt lat="45.1521" lon="5.03893">
        <ele>273.77899169922</ele>
        <time>2010-10-20T11:53:13Z</time>
      </trkpt>
      <trkpt lat="45.15227" lon="5.03905">
        <ele>272.6789855957</ele>
        <time>2010-10-20T11:53:16Z</time>
      </trkpt>
      <trkpt lat="45.15239" lon="5.03913">
        <ele>271.75100708008</ele>
        <time>2010-10-20T11:53:18Z</time>
      </trkpt>
      <trkpt lat="45.15304" lon="5.03959">
        <ele>269.64099121094</ele>
        <time>2010-10-20T11:53:29Z</time>
      </trkpt>
      <trkpt lat="45.15329" lon="5.03976">
        <ele>267.72100830078</ele>
        <time>2010-10-20T11:53:33Z</time>
      </trkpt>
      <trkpt lat="45.15375" lon="5.04002">
        <ele>267.49600219727</ele>
        <time>2010-10-20T11:53:40Z</time>
      </trkpt>
      <trkpt lat="45.15414" lon="5.04009">
        <ele>265.375</ele>
        <time>2010-10-20T11:53:45Z</time>
      </trkpt>
      <trkpt lat="45.15476" lon="5.04011">
        <ele>264.22799682617</ele>
        <time>2010-10-20T11:53:53Z</time>
      </trkpt>
      <trkpt lat="45.15506" lon="5.04011">
        <ele>263.88900756836</ele>
        <time>2010-10-20T11:53:57Z</time>
      </trkpt>
      <trkpt lat="45.15543" lon="5.04013">
        <ele>264.02200317383</ele>
        <time>2010-10-20T11:54:02Z</time>
      </trkpt>
      <trkpt lat="45.1559" lon="5.04012">
        <ele>264.3330078125</ele>
        <time>2010-10-20T11:54:09Z</time>
      </trkpt>
      <trkpt lat="45.15626" lon="5.04012">
        <ele>264.54299926758</ele>
        <time>2010-10-20T11:54:15Z</time>
      </trkpt>
      <trkpt lat="45.15661" lon="5.04012">
        <ele>265.10501098633</ele>
        <time>2010-10-20T11:54:21Z</time>
      </trkpt>
      <trkpt lat="45.15698" lon="5.04012">
        <ele>264.95498657227</ele>
        <time>2010-10-20T11:54:27Z</time>
      </trkpt>
      <trkpt lat="45.15777" lon="5.04013">
        <ele>264.26300048828</ele>
        <time>2010-10-20T11:54:39Z</time>
      </trkpt>
      <trkpt lat="45.15842" lon="5.04013">
        <ele>263.03298950195</ele>
        <time>2010-10-20T11:54:49Z</time>
      </trkpt>
      <trkpt lat="45.15905" lon="5.04014">
        <ele>263.39199829102</ele>
        <time>2010-10-20T11:54:59Z</time>
      </trkpt>
      <trkpt lat="45.15941" lon="5.04015">
        <ele>264.73999023438</ele>
        <time>2010-10-20T11:55:05Z</time>
      </trkpt>
      <trkpt lat="45.15993" lon="5.04015">
        <ele>265.21798706055</ele>
        <time>2010-10-20T11:55:14Z</time>
      </trkpt>
      <trkpt lat="45.1605" lon="5.04015">
        <ele>265.51501464844</ele>
        <time>2010-10-20T11:55:24Z</time>
      </trkpt>
      <trkpt lat="45.16103" lon="5.0401">
        <ele>265.63800048828</ele>
        <time>2010-10-20T11:55:34Z</time>
      </trkpt>
      <trkpt lat="45.16133" lon="5.03992">
        <ele>266.86801147461</ele>
        <time>2010-10-20T11:55:40Z</time>
      </trkpt>
      <trkpt lat="45.16142" lon="5.03983">
        <ele>266.91101074219</ele>
        <time>2010-10-20T11:55:42Z</time>
      </trkpt>
      <trkpt lat="45.16157" lon="5.03962">
        <ele>268.0950012207</ele>
        <time>2010-10-20T11:55:46Z</time>
      </trkpt>
      <trkpt lat="45.16175" lon="5.03954">
        <ele>268.60299682617</ele>
        <time>2010-10-20T11:55:50Z</time>
      </trkpt>
      <trkpt lat="45.16182" lon="5.03963">
        <ele>267.94400024414</ele>
        <time>2010-10-20T11:55:52Z</time>
      </trkpt>
      <trkpt lat="45.16186" lon="5.03976">
        <ele>267.54800415039</ele>
        <time>2010-10-20T11:55:54Z</time>
      </trkpt>
      <trkpt lat="45.16197" lon="5.04037">
        <ele>267.73400878906</ele>
        <time>2010-10-20T11:56:02Z</time>
      </trkpt>
      <trkpt lat="45.16199" lon="5.04045">
        <ele>267.55801391602</ele>
        <time>2010-10-20T11:56:03Z</time>
      </trkpt>
      <trkpt lat="45.16201" lon="5.0406">
        <ele>267.67498779297</ele>
        <time>2010-10-20T11:56:05Z</time>
      </trkpt>
      <trkpt lat="45.16213" lon="5.04131">
        <ele>266.84698486328</ele>
        <time>2010-10-20T11:56:14Z</time>
      </trkpt>
      <trkpt lat="45.16228" lon="5.04209">
        <ele>267.50100708008</ele>
        <time>2010-10-20T11:56:24Z</time>
      </trkpt>
      <trkpt lat="45.16236" lon="5.04274">
        <ele>268.28100585938</ele>
        <time>2010-10-20T11:56:32Z</time>
      </trkpt>
      <trkpt lat="45.16228" lon="5.04328">
        <ele>267.94000244141</ele>
        <time>2010-10-20T11:56:39Z</time>
      </trkpt>
      <trkpt lat="45.16208" lon="5.04407">
        <ele>269.01000976562</ele>
        <time>2010-10-20T11:56:49Z</time>
      </trkpt>
      <trkpt lat="45.1618" lon="5.04512">
        <ele>269.39599609375</ele>
        <time>2010-10-20T11:57:02Z</time>
      </trkpt>
      <trkpt lat="45.16165" lon="5.04584">
        <ele>270.67199707031</ele>
        <time>2010-10-20T11:57:11Z</time>
      </trkpt>
      <trkpt lat="45.16164" lon="5.04593">
        <ele>270.83801269531</ele>
        <time>2010-10-20T11:57:12Z</time>
      </trkpt>
      <trkpt lat="45.16162" lon="5.04673">
        <ele>270.38299560547</ele>
        <time>2010-10-20T11:57:21Z</time>
      </trkpt>
      <trkpt lat="45.16159" lon="5.04775">
        <ele>271.24099731445</ele>
        <time>2010-10-20T11:57:33Z</time>
      </trkpt>
      <trkpt lat="45.1616" lon="5.04867">
        <ele>271.46301269531</ele>
        <time>2010-10-20T11:57:44Z</time>
      </trkpt>
      <trkpt lat="45.16173" lon="5.04935">
        <ele>272.46099853516</ele>
        <time>2010-10-20T11:57:53Z</time>
      </trkpt>
      <trkpt lat="45.16195" lon="5.05009">
        <ele>273.04299926758</ele>
        <time>2010-10-20T11:58:03Z</time>
      </trkpt>
      <trkpt lat="45.16219" lon="5.05088">
        <ele>274.27600097656</ele>
        <time>2010-10-20T11:58:14Z</time>
      </trkpt>
      <trkpt lat="45.16232" lon="5.0513">
        <ele>275.25601196289</ele>
        <time>2010-10-20T11:58:20Z</time>
      </trkpt>
      <trkpt lat="45.16257" lon="5.05193">
        <ele>276.66198730469</ele>
        <time>2010-10-20T11:58:29Z</time>
      </trkpt>
      <trkpt lat="45.16282" lon="5.05238">
        <ele>277.45999145508</ele>
        <time>2010-10-20T11:58:36Z</time>
      </trkpt>
      <trkpt lat="45.16314" lon="5.0529">
        <ele>278.81698608398</ele>
        <time>2010-10-20T11:58:45Z</time>
      </trkpt>
      <trkpt lat="45.16352" lon="5.05354">
        <ele>279.69799804688</ele>
        <time>2010-10-20T11:58:56Z</time>
      </trkpt>
      <trkpt lat="45.16396" lon="5.05433">
        <ele>281.64898681641</ele>
        <time>2010-10-20T11:59:09Z</time>
      </trkpt>
      <trkpt lat="45.16437" lon="5.05511">
        <ele>283.29000854492</ele>
        <time>2010-10-20T11:59:22Z</time>
      </trkpt>
      <trkpt lat="45.16473" lon="5.05578">
        <ele>285.61401367188</ele>
        <time>2010-10-20T11:59:33Z</time>
      </trkpt>
      <trkpt lat="45.16513" lon="5.05657">
        <ele>286.13101196289</ele>
        <time>2010-10-20T11:59:45Z</time>
      </trkpt>
      <trkpt lat="45.16539" lon="5.05714">
        <ele>287</ele>
        <time>2010-10-20T11:59:54Z</time>
      </trkpt>
      <trkpt lat="45.16563" lon="5.05773">
        <ele>289.375</ele>
        <time>2010-10-20T12:00:03Z</time>
      </trkpt>
      <trkpt lat="45.16592" lon="5.05855">
        <ele>291.11999511719</ele>
        <time>2010-10-20T12:00:15Z</time>
      </trkpt>
      <trkpt lat="45.16616" lon="5.0592">
        <ele>292.40200805664</ele>
        <time>2010-10-20T12:00:25Z</time>
      </trkpt>
      <trkpt lat="45.1664" lon="5.05984">
        <ele>293.81698608398</ele>
        <time>2010-10-20T12:00:35Z</time>
      </trkpt>
      <trkpt lat="45.16664" lon="5.06061">
        <ele>295.32699584961</ele>
        <time>2010-10-20T12:00:46Z</time>
      </trkpt>
      <trkpt lat="45.16679" lon="5.06137">
        <ele>293.56600952148</ele>
        <time>2010-10-20T12:00:55Z</time>
      </trkpt>
      <trkpt lat="45.16689" lon="5.06189">
        <ele>292.90200805664</ele>
        <time>2010-10-20T12:01:01Z</time>
      </trkpt>
      <trkpt lat="45.16703" lon="5.06266">
        <ele>291.63400268555</ele>
        <time>2010-10-20T12:01:09Z</time>
      </trkpt>
      <trkpt lat="45.16716" lon="5.06332">
        <ele>289.51501464844</ele>
        <time>2010-10-20T12:01:16Z</time>
      </trkpt>
      <trkpt lat="45.1672" lon="5.06351">
        <ele>290.25601196289</ele>
        <time>2010-10-20T12:01:18Z</time>
      </trkpt>
      <trkpt lat="45.1673" lon="5.06398">
        <ele>288.13198852539</ele>
        <time>2010-10-20T12:01:23Z</time>
      </trkpt>
      <trkpt lat="45.16747" lon="5.06472">
        <ele>288.10299682617</ele>
        <time>2010-10-20T12:01:31Z</time>
      </trkpt>
      <trkpt lat="45.16766" lon="5.06513">
        <ele>288.18600463867</ele>
        <time>2010-10-20T12:01:36Z</time>
      </trkpt>
      <trkpt lat="45.16802" lon="5.06559">
        <ele>288.59899902344</ele>
        <time>2010-10-20T12:01:43Z</time>
      </trkpt>
      <trkpt lat="45.16849" lon="5.06608">
        <ele>287.76000976562</ele>
        <time>2010-10-20T12:01:52Z</time>
      </trkpt>
      <trkpt lat="45.16905" lon="5.06665">
        <ele>288.27301025391</ele>
        <time>2010-10-20T12:02:03Z</time>
      </trkpt>
      <trkpt lat="45.16958" lon="5.06718">
        <ele>289.52499389648</ele>
        <time>2010-10-20T12:02:13Z</time>
      </trkpt>
      <trkpt lat="45.17016" lon="5.06778">
        <ele>289.79800415039</ele>
        <time>2010-10-20T12:02:24Z</time>
      </trkpt>
      <trkpt lat="45.17061" lon="5.06824">
        <ele>290.47799682617</ele>
        <time>2010-10-20T12:02:33Z</time>
      </trkpt>
      <trkpt lat="45.17122" lon="5.06884">
        <ele>291.10299682617</ele>
        <time>2010-10-20T12:02:45Z</time>
      </trkpt>
      <trkpt lat="45.17157" lon="5.0692">
        <ele>291.97399902344</ele>
        <time>2010-10-20T12:02:52Z</time>
      </trkpt>
      <trkpt lat="45.17193" lon="5.06946">
        <ele>292.3210144043</ele>
        <time>2010-10-20T12:02:59Z</time>
      </trkpt>
      <trkpt lat="45.17224" lon="5.06956">
        <ele>292.30999755859</ele>
        <time>2010-10-20T12:03:05Z</time>
      </trkpt>
      <trkpt lat="45.17245" lon="5.0696">
        <ele>293.25900268555</ele>
        <time>2010-10-20T12:03:09Z</time>
      </trkpt>
      <trkpt lat="45.17288" lon="5.06984">
        <ele>294.54699707031</ele>
        <time>2010-10-20T12:03:18Z</time>
      </trkpt>
      <trkpt lat="45.17312" lon="5.06997">
        <ele>295.21499633789</ele>
        <time>2010-10-20T12:03:23Z</time>
      </trkpt>
      <trkpt lat="45.17338" lon="5.07007">
        <ele>295.11999511719</ele>
        <time>2010-10-20T12:03:28Z</time>
      </trkpt>
      <trkpt lat="45.17383" lon="5.07017">
        <ele>295.38299560547</ele>
        <time>2010-10-20T12:03:36Z</time>
      </trkpt>
      <trkpt lat="45.17393" lon="5.0702">
        <ele>295.76800537109</ele>
        <time>2010-10-20T12:03:38Z</time>
      </trkpt>
      <trkpt lat="45.1742" lon="5.07042">
        <ele>296.49200439453</ele>
        <time>2010-10-20T12:03:44Z</time>
      </trkpt>
      <trkpt lat="45.1745" lon="5.07059">
        <ele>297.56600952148</ele>
        <time>2010-10-20T12:03:51Z</time>
      </trkpt>
      <trkpt lat="45.17469" lon="5.07072">
        <ele>297.28100585938</ele>
        <time>2010-10-20T12:03:56Z</time>
      </trkpt>
      <trkpt lat="45.17489" lon="5.07098">
        <ele>298.01300048828</ele>
        <time>2010-10-20T12:04:03Z</time>
      </trkpt>
      <trkpt lat="45.17511" lon="5.0713">
        <ele>298.23001098633</ele>
        <time>2010-10-20T12:04:11Z</time>
      </trkpt>
      <trkpt lat="45.17539" lon="5.0717">
        <ele>298.50500488281</ele>
        <time>2010-10-20T12:04:20Z</time>
      </trkpt>
      <trkpt lat="45.17567" lon="5.0721">
        <ele>297.77499389648</ele>
        <time>2010-10-20T12:04:28Z</time>
      </trkpt>
      <trkpt lat="45.17595" lon="5.07252">
        <ele>298.63800048828</ele>
        <time>2010-10-20T12:04:36Z</time>
      </trkpt>
      <trkpt lat="45.17624" lon="5.0729">
        <ele>298.40301513672</ele>
        <time>2010-10-20T12:04:44Z</time>
      </trkpt>
      <trkpt lat="45.17653" lon="5.07331">
        <ele>298.35598754883</ele>
        <time>2010-10-20T12:04:52Z</time>
      </trkpt>
      <trkpt lat="45.17684" lon="5.07376">
        <ele>298.09100341797</ele>
        <time>2010-10-20T12:05:01Z</time>
      </trkpt>
      <trkpt lat="45.17719" lon="5.07427">
        <ele>297.21798706055</ele>
        <time>2010-10-20T12:05:11Z</time>
      </trkpt>
      <trkpt lat="45.17756" lon="5.0748">
        <ele>298.39001464844</ele>
        <time>2010-10-20T12:05:21Z</time>
      </trkpt>
      <trkpt lat="45.17799" lon="5.07541">
        <ele>300.38000488281</ele>
        <time>2010-10-20T12:05:32Z</time>
      </trkpt>
      <trkpt lat="45.17844" lon="5.07604">
        <ele>300.60000610352</ele>
        <time>2010-10-20T12:05:43Z</time>
      </trkpt>
      <trkpt lat="45.17864" lon="5.07633">
        <ele>302.00799560547</ele>
        <time>2010-10-20T12:05:48Z</time>
      </trkpt>
      <trkpt lat="45.17905" lon="5.0769">
        <ele>303.06799316406</ele>
        <time>2010-10-20T12:05:58Z</time>
      </trkpt>
      <trkpt lat="45.17935" lon="5.07733">
        <ele>303.1780090332</ele>
        <time>2010-10-20T12:06:06Z</time>
      </trkpt>
      <trkpt lat="45.17971" lon="5.07784">
        <ele>303.67300415039</ele>
        <time>2010-10-20T12:06:16Z</time>
      </trkpt>
      <trkpt lat="45.18006" lon="5.07833">
        <ele>304.67001342773</ele>
        <time>2010-10-20T12:06:26Z</time>
      </trkpt>
      <trkpt lat="45.18052" lon="5.07898">
        <ele>305.27398681641</ele>
        <time>2010-10-20T12:06:39Z</time>
      </trkpt>
      <trkpt lat="45.1809" lon="5.0795">
        <ele>305.26501464844</ele>
        <time>2010-10-20T12:06:49Z</time>
      </trkpt>
      <trkpt lat="45.18132" lon="5.0801">
        <ele>305.70098876953</ele>
        <time>2010-10-20T12:07:00Z</time>
      </trkpt>
      <trkpt lat="45.18174" lon="5.0807">
        <ele>306.7080078125</ele>
        <time>2010-10-20T12:07:12Z</time>
      </trkpt>
      <trkpt lat="45.18209" lon="5.08119">
        <ele>307.70498657227</ele>
        <time>2010-10-20T12:07:22Z</time>
      </trkpt>
      <trkpt lat="45.18252" lon="5.08179">
        <ele>309.30801391602</ele>
        <time>2010-10-20T12:07:34Z</time>
      </trkpt>
      <trkpt lat="45.18288" lon="5.08229">
        <ele>310.86099243164</ele>
        <time>2010-10-20T12:07:44Z</time>
      </trkpt>
      <trkpt lat="45.18321" lon="5.08276">
        <ele>311.97198486328</ele>
        <time>2010-10-20T12:07:53Z</time>
      </trkpt>
      <trkpt lat="45.18361" lon="5.08333">
        <ele>312.62799072266</ele>
        <time>2010-10-20T12:08:04Z</time>
      </trkpt>
      <trkpt lat="45.18405" lon="5.08394">
        <ele>313.00201416016</ele>
        <time>2010-10-20T12:08:16Z</time>
      </trkpt>
      <trkpt lat="45.18445" lon="5.08451">
        <ele>313.67700195312</ele>
        <time>2010-10-20T12:08:27Z</time>
      </trkpt>
      <trkpt lat="45.18463" lon="5.08476">
        <ele>315.57800292969</ele>
        <time>2010-10-20T12:08:32Z</time>
      </trkpt>
      <trkpt lat="45.18503" lon="5.08533">
        <ele>317.02600097656</ele>
        <time>2010-10-20T12:08:43Z</time>
      </trkpt>
      <trkpt lat="45.18536" lon="5.0858">
        <ele>317.90100097656</ele>
        <time>2010-10-20T12:08:52Z</time>
      </trkpt>
      <trkpt lat="45.18578" lon="5.08638">
        <ele>319.11199951172</ele>
        <time>2010-10-20T12:09:03Z</time>
      </trkpt>
      <trkpt lat="45.18611" lon="5.08687">
        <ele>317.86700439453</ele>
        <time>2010-10-20T12:09:12Z</time>
      </trkpt>
      <trkpt lat="45.18634" lon="5.08738">
        <ele>319.22100830078</ele>
        <time>2010-10-20T12:09:20Z</time>
      </trkpt>
      <trkpt lat="45.18661" lon="5.0882">
        <ele>320.72299194336</ele>
        <time>2010-10-20T12:09:32Z</time>
      </trkpt>
      <trkpt lat="45.18683" lon="5.08888">
        <ele>321.82800292969</ele>
        <time>2010-10-20T12:09:42Z</time>
      </trkpt>
      <trkpt lat="45.1871" lon="5.08971">
        <ele>323.48498535156</ele>
        <time>2010-10-20T12:09:54Z</time>
      </trkpt>
      <trkpt lat="45.1874" lon="5.09062">
        <ele>324.74200439453</ele>
        <time>2010-10-20T12:10:07Z</time>
      </trkpt>
      <trkpt lat="45.18765" lon="5.09139">
        <ele>325.40701293945</ele>
        <time>2010-10-20T12:10:18Z</time>
      </trkpt>
      <trkpt lat="45.18796" lon="5.09233">
        <ele>327.02899169922</ele>
        <time>2010-10-20T12:10:31Z</time>
      </trkpt>
      <trkpt lat="45.18826" lon="5.09322">
        <ele>328.06399536133</ele>
        <time>2010-10-20T12:10:43Z</time>
      </trkpt>
      <trkpt lat="45.18858" lon="5.09418">
        <ele>328.90100097656</ele>
        <time>2010-10-20T12:10:56Z</time>
      </trkpt>
      <trkpt lat="45.18877" lon="5.09478">
        <ele>328.44400024414</ele>
        <time>2010-10-20T12:11:04Z</time>
      </trkpt>
      <trkpt lat="45.18903" lon="5.09557">
        <ele>328.42498779297</ele>
        <time>2010-10-20T12:11:15Z</time>
      </trkpt>
      <trkpt lat="45.18929" lon="5.09632">
        <ele>330.62600708008</ele>
        <time>2010-10-20T12:11:26Z</time>
      </trkpt>
      <trkpt lat="45.18945" lon="5.0968">
        <ele>330.57299804688</ele>
        <time>2010-10-20T12:11:33Z</time>
      </trkpt>
      <trkpt lat="45.18967" lon="5.09752">
        <ele>330.06600952148</ele>
        <time>2010-10-20T12:11:43Z</time>
      </trkpt>
      <trkpt lat="45.18987" lon="5.09825">
        <ele>332.59399414062</ele>
        <time>2010-10-20T12:11:53Z</time>
      </trkpt>
      <trkpt lat="45.19009" lon="5.09904">
        <ele>332.75</ele>
        <time>2010-10-20T12:12:04Z</time>
      </trkpt>
      <trkpt lat="45.19028" lon="5.09974">
        <ele>334.02700805664</ele>
        <time>2010-10-20T12:12:14Z</time>
      </trkpt>
      <trkpt lat="45.19048" lon="5.10046">
        <ele>335.11599731445</ele>
        <time>2010-10-20T12:12:24Z</time>
      </trkpt>
      <trkpt lat="45.19065" lon="5.10107">
        <ele>335.99398803711</ele>
        <time>2010-10-20T12:12:32Z</time>
      </trkpt>
      <trkpt lat="45.19091" lon="5.102">
        <ele>336.3210144043</ele>
        <time>2010-10-20T12:12:44Z</time>
      </trkpt>
      <trkpt lat="45.19106" lon="5.10254">
        <ele>336.5530090332</ele>
        <time>2010-10-20T12:12:51Z</time>
      </trkpt>
      <trkpt lat="45.1913" lon="5.10341">
        <ele>338.15798950195</ele>
        <time>2010-10-20T12:13:02Z</time>
      </trkpt>
      <trkpt lat="45.19154" lon="5.10429">
        <ele>339.25601196289</ele>
        <time>2010-10-20T12:13:13Z</time>
      </trkpt>
      <trkpt lat="45.19173" lon="5.10499">
        <ele>339.76400756836</ele>
        <time>2010-10-20T12:13:22Z</time>
      </trkpt>
      <trkpt lat="45.19193" lon="5.10569">
        <ele>340.24499511719</ele>
        <time>2010-10-20T12:13:31Z</time>
      </trkpt>
      <trkpt lat="45.1922" lon="5.10666">
        <ele>341.32400512695</ele>
        <time>2010-10-20T12:13:44Z</time>
      </trkpt>
      <trkpt lat="45.19244" lon="5.10756">
        <ele>343.13900756836</ele>
        <time>2010-10-20T12:13:56Z</time>
      </trkpt>
      <trkpt lat="45.19266" lon="5.10836">
        <ele>345.12100219727</ele>
        <time>2010-10-20T12:14:07Z</time>
      </trkpt>
      <trkpt lat="45.19283" lon="5.10894">
        <ele>346.57901000977</ele>
        <time>2010-10-20T12:14:15Z</time>
      </trkpt>
      <trkpt lat="45.19297" lon="5.10946">
        <ele>347.16299438477</ele>
        <time>2010-10-20T12:14:22Z</time>
      </trkpt>
      <trkpt lat="45.1932" lon="5.11026">
        <ele>347.74499511719</ele>
        <time>2010-10-20T12:14:33Z</time>
      </trkpt>
      <trkpt lat="45.19339" lon="5.1109">
        <ele>350.04598999023</ele>
        <time>2010-10-20T12:14:42Z</time>
      </trkpt>
      <trkpt lat="45.19362" lon="5.11169">
        <ele>352.01000976562</ele>
        <time>2010-10-20T12:14:53Z</time>
      </trkpt>
      <trkpt lat="45.19378" lon="5.11215">
        <ele>353.59899902344</ele>
        <time>2010-10-20T12:15:00Z</time>
      </trkpt>
      <trkpt lat="45.19387" lon="5.11251">
        <ele>354.06600952148</ele>
        <time>2010-10-20T12:15:06Z</time>
      </trkpt>
      <trkpt lat="45.1941" lon="5.11327">
        <ele>356.77398681641</ele>
        <time>2010-10-20T12:15:17Z</time>
      </trkpt>
      <trkpt lat="45.19431" lon="5.11399">
        <ele>357.29000854492</ele>
        <time>2010-10-20T12:15:27Z</time>
      </trkpt>
      <trkpt lat="45.19446" lon="5.11451">
        <ele>357.96600341797</ele>
        <time>2010-10-20T12:15:34Z</time>
      </trkpt>
      <trkpt lat="45.19463" lon="5.11509">
        <ele>358.78298950195</ele>
        <time>2010-10-20T12:15:42Z</time>
      </trkpt>
      <trkpt lat="45.19484" lon="5.11581">
        <ele>359.63800048828</ele>
        <time>2010-10-20T12:15:52Z</time>
      </trkpt>
      <trkpt lat="45.19507" lon="5.11652">
        <ele>360.17001342773</ele>
        <time>2010-10-20T12:16:02Z</time>
      </trkpt>
      <trkpt lat="45.19527" lon="5.11688">
        <ele>361.17498779297</ele>
        <time>2010-10-20T12:16:08Z</time>
      </trkpt>
      <trkpt lat="45.19554" lon="5.11714">
        <ele>361.7380065918</ele>
        <time>2010-10-20T12:16:14Z</time>
      </trkpt>
      <trkpt lat="45.19599" lon="5.11749">
        <ele>362.30599975586</ele>
        <time>2010-10-20T12:16:24Z</time>
      </trkpt>
      <trkpt lat="45.19642" lon="5.11782">
        <ele>362.98300170898</ele>
        <time>2010-10-20T12:16:34Z</time>
      </trkpt>
      <trkpt lat="45.19685" lon="5.11815">
        <ele>363.07400512695</ele>
        <time>2010-10-20T12:16:43Z</time>
      </trkpt>
      <trkpt lat="45.19744" lon="5.11862">
        <ele>362.72698974609</ele>
        <time>2010-10-20T12:16:55Z</time>
      </trkpt>
      <trkpt lat="45.19786" lon="5.11894">
        <ele>362.76098632812</ele>
        <time>2010-10-20T12:17:03Z</time>
      </trkpt>
      <trkpt lat="45.19843" lon="5.11939">
        <ele>362.04998779297</ele>
        <time>2010-10-20T12:17:14Z</time>
      </trkpt>
      <trkpt lat="45.19911" lon="5.11993">
        <ele>362.73699951172</ele>
        <time>2010-10-20T12:17:27Z</time>
      </trkpt>
      <trkpt lat="45.1997" lon="5.1204">
        <ele>363.05899047852</ele>
        <time>2010-10-20T12:17:38Z</time>
      </trkpt>
      <trkpt lat="45.20031" lon="5.12088">
        <ele>362.93701171875</ele>
        <time>2010-10-20T12:17:49Z</time>
      </trkpt>
      <trkpt lat="45.20092" lon="5.12137">
        <ele>363.22900390625</ele>
        <time>2010-10-20T12:18:00Z</time>
      </trkpt>
      <trkpt lat="45.20137" lon="5.12173">
        <ele>364.53100585938</ele>
        <time>2010-10-20T12:18:09Z</time>
      </trkpt>
      <trkpt lat="45.20189" lon="5.12215">
        <ele>365.93701171875</ele>
        <time>2010-10-20T12:18:20Z</time>
      </trkpt>
      <trkpt lat="45.2024" lon="5.12254">
        <ele>367.77301025391</ele>
        <time>2010-10-20T12:18:31Z</time>
      </trkpt>
      <trkpt lat="45.20285" lon="5.1229">
        <ele>368.81298828125</ele>
        <time>2010-10-20T12:18:41Z</time>
      </trkpt>
      <trkpt lat="45.20323" lon="5.12322">
        <ele>370.41500854492</ele>
        <time>2010-10-20T12:18:50Z</time>
      </trkpt>
      <trkpt lat="45.20366" lon="5.12363">
        <ele>372.08700561523</ele>
        <time>2010-10-20T12:19:01Z</time>
      </trkpt>
      <trkpt lat="45.20399" lon="5.12396">
        <ele>373.62399291992</ele>
        <time>2010-10-20T12:19:10Z</time>
      </trkpt>
      <trkpt lat="45.20444" lon="5.12439">
        <ele>374.88400268555</ele>
        <time>2010-10-20T12:19:22Z</time>
      </trkpt>
      <trkpt lat="45.20483" lon="5.12477">
        <ele>376.70498657227</ele>
        <time>2010-10-20T12:19:33Z</time>
      </trkpt>
      <trkpt lat="45.20531" lon="5.12522">
        <ele>378.875</ele>
        <time>2010-10-20T12:19:46Z</time>
      </trkpt>
      <trkpt lat="45.20576" lon="5.12556">
        <ele>380.31799316406</ele>
        <time>2010-10-20T12:19:57Z</time>
      </trkpt>
      <trkpt lat="45.20631" lon="5.12595">
        <ele>382.32299804688</ele>
        <time>2010-10-20T12:20:10Z</time>
      </trkpt>
      <trkpt lat="45.20674" lon="5.12624">
        <ele>383.57800292969</ele>
        <time>2010-10-20T12:20:20Z</time>
      </trkpt>
      <trkpt lat="45.20706" lon="5.12641">
        <ele>384.27301025391</ele>
        <time>2010-10-20T12:20:27Z</time>
      </trkpt>
      <trkpt lat="45.20732" lon="5.12656">
        <ele>383.92999267578</ele>
        <time>2010-10-20T12:20:33Z</time>
      </trkpt>
      <trkpt lat="45.2077" lon="5.12679">
        <ele>384.51400756836</ele>
        <time>2010-10-20T12:20:42Z</time>
      </trkpt>
      <trkpt lat="45.20804" lon="5.12698">
        <ele>384.84399414062</ele>
        <time>2010-10-20T12:20:50Z</time>
      </trkpt>
      <trkpt lat="45.20839" lon="5.12719">
        <ele>384.70098876953</ele>
        <time>2010-10-20T12:20:58Z</time>
      </trkpt>
      <trkpt lat="45.20886" lon="5.1275">
        <ele>384.53500366211</ele>
        <time>2010-10-20T12:21:08Z</time>
      </trkpt>
      <trkpt lat="45.20921" lon="5.12784">
        <ele>385.49499511719</ele>
        <time>2010-10-20T12:21:16Z</time>
      </trkpt>
      <trkpt lat="45.20958" lon="5.1282">
        <ele>385.64700317383</ele>
        <time>2010-10-20T12:21:24Z</time>
      </trkpt>
      <trkpt lat="45.21" lon="5.1286">
        <ele>385.76699829102</ele>
        <time>2010-10-20T12:21:33Z</time>
      </trkpt>
      <trkpt lat="45.21014" lon="5.12873">
        <ele>385.91299438477</ele>
        <time>2010-10-20T12:21:36Z</time>
      </trkpt>
      <trkpt lat="45.21031" lon="5.12892">
        <ele>386.10598754883</ele>
        <time>2010-10-20T12:21:40Z</time>
      </trkpt>
      <trkpt lat="45.21074" lon="5.12952">
        <ele>386.94799804688</ele>
        <time>2010-10-20T12:21:51Z</time>
      </trkpt>
      <trkpt lat="45.21117" lon="5.12999">
        <ele>387.13800048828</ele>
        <time>2010-10-20T12:22:01Z</time>
      </trkpt>
      <trkpt lat="45.21158" lon="5.13033">
        <ele>388.07400512695</ele>
        <time>2010-10-20T12:22:10Z</time>
      </trkpt>
      <trkpt lat="45.21195" lon="5.13062">
        <ele>388.89401245117</ele>
        <time>2010-10-20T12:22:18Z</time>
      </trkpt>
      <trkpt lat="45.21208" lon="5.13072">
        <ele>388.89999389648</ele>
        <time>2010-10-20T12:22:21Z</time>
      </trkpt>
      <trkpt lat="45.21236" lon="5.13093">
        <ele>389.10598754883</ele>
        <time>2010-10-20T12:22:27Z</time>
      </trkpt>
      <trkpt lat="45.21257" lon="5.1311">
        <ele>389.45401000977</ele>
        <time>2010-10-20T12:22:32Z</time>
      </trkpt>
      <trkpt lat="45.21289" lon="5.13134">
        <ele>389.75399780273</ele>
        <time>2010-10-20T12:22:39Z</time>
      </trkpt>
      <trkpt lat="45.21338" lon="5.13174">
        <ele>392.20901489258</ele>
        <time>2010-10-20T12:22:50Z</time>
      </trkpt>
      <trkpt lat="45.2137" lon="5.13207">
        <ele>393.41101074219</ele>
        <time>2010-10-20T12:22:58Z</time>
      </trkpt>
      <trkpt lat="45.21399" lon="5.13248">
        <ele>394.1669921875</ele>
        <time>2010-10-20T12:23:06Z</time>
      </trkpt>
      <trkpt lat="45.21436" lon="5.13307">
        <ele>393.65798950195</ele>
        <time>2010-10-20T12:23:16Z</time>
      </trkpt>
      <trkpt lat="45.21478" lon="5.13375">
        <ele>393.5719909668</ele>
        <time>2010-10-20T12:23:27Z</time>
      </trkpt>
      <trkpt lat="45.21513" lon="5.13432">
        <ele>393.3630065918</ele>
        <time>2010-10-20T12:23:36Z</time>
      </trkpt>
      <trkpt lat="45.21556" lon="5.13502">
        <ele>395.74398803711</ele>
        <time>2010-10-20T12:23:48Z</time>
      </trkpt>
      <trkpt lat="45.216" lon="5.13573">
        <ele>396.68099975586</ele>
        <time>2010-10-20T12:24:00Z</time>
      </trkpt>
      <trkpt lat="45.21638" lon="5.13635">
        <ele>397.59899902344</ele>
        <time>2010-10-20T12:24:11Z</time>
      </trkpt>
      <trkpt lat="45.21685" lon="5.13711">
        <ele>399.58898925781</ele>
        <time>2010-10-20T12:24:25Z</time>
      </trkpt>
      <trkpt lat="45.21726" lon="5.13777">
        <ele>401.67098999023</ele>
        <time>2010-10-20T12:24:37Z</time>
      </trkpt>
      <trkpt lat="45.21771" lon="5.13849">
        <ele>403.61700439453</ele>
        <time>2010-10-20T12:24:50Z</time>
      </trkpt>
      <trkpt lat="45.21808" lon="5.1391">
        <ele>405.70401000977</ele>
        <time>2010-10-20T12:25:01Z</time>
      </trkpt>
      <trkpt lat="45.21839" lon="5.13959">
        <ele>406.66101074219</ele>
        <time>2010-10-20T12:25:10Z</time>
      </trkpt>
      <trkpt lat="45.21864" lon="5.13993">
        <ele>407.49099731445</ele>
        <time>2010-10-20T12:25:17Z</time>
      </trkpt>
      <trkpt lat="45.21886" lon="5.14012">
        <ele>408.05801391602</ele>
        <time>2010-10-20T12:25:23Z</time>
      </trkpt>
      <trkpt lat="45.21893" lon="5.14014">
        <ele>408.11401367188</ele>
        <time>2010-10-20T12:25:25Z</time>
      </trkpt>
      <trkpt lat="45.21913" lon="5.14019">
        <ele>408.31600952148</ele>
        <time>2010-10-20T12:25:31Z</time>
      </trkpt>
      <trkpt lat="45.21941" lon="5.14035">
        <ele>409.8330078125</ele>
        <time>2010-10-20T12:25:39Z</time>
      </trkpt>
      <trkpt lat="45.21971" lon="5.14049">
        <ele>410.54000854492</ele>
        <time>2010-10-20T12:25:47Z</time>
      </trkpt>
      <trkpt lat="45.21999" lon="5.1406">
        <ele>411.21398925781</ele>
        <time>2010-10-20T12:25:54Z</time>
      </trkpt>
      <trkpt lat="45.22022" lon="5.14069">
        <ele>412.35998535156</ele>
        <time>2010-10-20T12:26:00Z</time>
      </trkpt>
      <trkpt lat="45.22049" lon="5.14081">
        <ele>413.17599487305</ele>
        <time>2010-10-20T12:26:07Z</time>
      </trkpt>
      <trkpt lat="45.22078" lon="5.14091">
        <ele>413.96499633789</ele>
        <time>2010-10-20T12:26:14Z</time>
      </trkpt>
      <trkpt lat="45.22099" lon="5.14101">
        <ele>414.36898803711</ele>
        <time>2010-10-20T12:26:20Z</time>
      </trkpt>
      <trkpt lat="45.22131" lon="5.14115">
        <ele>415.30099487305</ele>
        <time>2010-10-20T12:26:28Z</time>
      </trkpt>
      <trkpt lat="45.22168" lon="5.14131">
        <ele>416.31399536133</ele>
        <time>2010-10-20T12:26:37Z</time>
      </trkpt>
      <trkpt lat="45.22196" lon="5.14143">
        <ele>417.75900268555</ele>
        <time>2010-10-20T12:26:44Z</time>
      </trkpt>
      <trkpt lat="45.22224" lon="5.14157">
        <ele>418.49200439453</ele>
        <time>2010-10-20T12:26:51Z</time>
      </trkpt>
      <trkpt lat="45.22252" lon="5.14176">
        <ele>418.65600585938</ele>
        <time>2010-10-20T12:26:58Z</time>
      </trkpt>
      <trkpt lat="45.22292" lon="5.14208">
        <ele>419.38400268555</ele>
        <time>2010-10-20T12:27:08Z</time>
      </trkpt>
      <trkpt lat="45.22322" lon="5.14234">
        <ele>419.30499267578</ele>
        <time>2010-10-20T12:27:15Z</time>
      </trkpt>
      <trkpt lat="45.22369" lon="5.14273">
        <ele>420.06500244141</ele>
        <time>2010-10-20T12:27:25Z</time>
      </trkpt>
      <trkpt lat="45.22412" lon="5.14308">
        <ele>419.94000244141</ele>
        <time>2010-10-20T12:27:34Z</time>
      </trkpt>
      <trkpt lat="45.22456" lon="5.14343">
        <ele>420.73599243164</ele>
        <time>2010-10-20T12:27:43Z</time>
      </trkpt>
      <trkpt lat="45.22485" lon="5.14368">
        <ele>420.05200195312</ele>
        <time>2010-10-20T12:27:49Z</time>
      </trkpt>
      <trkpt lat="45.22525" lon="5.14402">
        <ele>420.97399902344</ele>
        <time>2010-10-20T12:27:58Z</time>
      </trkpt>
      <trkpt lat="45.22578" lon="5.14446">
        <ele>422.88400268555</ele>
        <time>2010-10-20T12:28:10Z</time>
      </trkpt>
      <trkpt lat="45.22606" lon="5.14472">
        <ele>423.69299316406</ele>
        <time>2010-10-20T12:28:17Z</time>
      </trkpt>
      <trkpt lat="45.22641" lon="5.1451">
        <ele>424.87200927734</ele>
        <time>2010-10-20T12:28:26Z</time>
      </trkpt>
      <trkpt lat="45.22669" lon="5.14546">
        <ele>424.82901000977</ele>
        <time>2010-10-20T12:28:34Z</time>
      </trkpt>
      <trkpt lat="45.22699" lon="5.14584">
        <ele>426.40600585938</ele>
        <time>2010-10-20T12:28:42Z</time>
      </trkpt>
      <trkpt lat="45.2273" lon="5.14623">
        <ele>426.43899536133</ele>
        <time>2010-10-20T12:28:50Z</time>
      </trkpt>
      <trkpt lat="45.22775" lon="5.14678">
        <ele>426.61499023438</ele>
        <time>2010-10-20T12:29:01Z</time>
      </trkpt>
      <trkpt lat="45.2281" lon="5.14724">
        <ele>426.65399169922</ele>
        <time>2010-10-20T12:29:10Z</time>
      </trkpt>
      <trkpt lat="45.22849" lon="5.14766">
        <ele>427.1130065918</ele>
        <time>2010-10-20T12:29:19Z</time>
      </trkpt>
      <trkpt lat="45.22888" lon="5.14806">
        <ele>427.08700561523</ele>
        <time>2010-10-20T12:29:28Z</time>
      </trkpt>
      <trkpt lat="45.22929" lon="5.14849">
        <ele>427.86599731445</ele>
        <time>2010-10-20T12:29:38Z</time>
      </trkpt>
      <trkpt lat="45.2296" lon="5.14881">
        <ele>430.01901245117</ele>
        <time>2010-10-20T12:29:46Z</time>
      </trkpt>
      <trkpt lat="45.22989" lon="5.14912">
        <ele>430.39300537109</ele>
        <time>2010-10-20T12:29:54Z</time>
      </trkpt>
      <trkpt lat="45.23004" lon="5.14925">
        <ele>431.30200195312</ele>
        <time>2010-10-20T12:29:58Z</time>
      </trkpt>
      <trkpt lat="45.23035" lon="5.14942">
        <ele>432.52899169922</ele>
        <time>2010-10-20T12:30:06Z</time>
      </trkpt>
      <trkpt lat="45.23077" lon="5.14961">
        <ele>434.46798706055</ele>
        <time>2010-10-20T12:30:16Z</time>
      </trkpt>
      <trkpt lat="45.23103" lon="5.14973">
        <ele>435.32400512695</ele>
        <time>2010-10-20T12:30:23Z</time>
      </trkpt>
      <trkpt lat="45.23132" lon="5.14985">
        <ele>436.81600952148</ele>
        <time>2010-10-20T12:30:31Z</time>
      </trkpt>
      <trkpt lat="45.23155" lon="5.14995">
        <ele>438.4469909668</ele>
        <time>2010-10-20T12:30:38Z</time>
      </trkpt>
      <trkpt lat="45.23184" lon="5.15006">
        <ele>440.99200439453</ele>
        <time>2010-10-20T12:30:46Z</time>
      </trkpt>
      <trkpt lat="45.23217" lon="5.1502">
        <ele>441.88598632812</ele>
        <time>2010-10-20T12:30:55Z</time>
      </trkpt>
      <trkpt lat="45.23241" lon="5.15031">
        <ele>443.88900756836</ele>
        <time>2010-10-20T12:31:02Z</time>
      </trkpt>
      <trkpt lat="45.23267" lon="5.15048">
        <ele>445.18399047852</ele>
        <time>2010-10-20T12:31:10Z</time>
      </trkpt>
      <trkpt lat="45.2327" lon="5.1505">
        <ele>445.38900756836</ele>
        <time>2010-10-20T12:31:11Z</time>
      </trkpt>
      <trkpt lat="45.2329" lon="5.15071">
        <ele>447.26501464844</ele>
        <time>2010-10-20T12:31:18Z</time>
      </trkpt>
      <trkpt lat="45.23302" lon="5.15087">
        <ele>448.66400146484</ele>
        <time>2010-10-20T12:31:23Z</time>
      </trkpt>
      <trkpt lat="45.23317" lon="5.15109">
        <ele>449.51000976562</ele>
        <time>2010-10-20T12:31:29Z</time>
      </trkpt>
      <trkpt lat="45.23332" lon="5.1514">
        <ele>451.34298706055</ele>
        <time>2010-10-20T12:31:36Z</time>
      </trkpt>
      <trkpt lat="45.23347" lon="5.1518">
        <ele>453.34298706055</ele>
        <time>2010-10-20T12:31:45Z</time>
      </trkpt>
      <trkpt lat="45.23362" lon="5.15214">
        <ele>454.68701171875</ele>
        <time>2010-10-20T12:31:53Z</time>
      </trkpt>
      <trkpt lat="45.23376" lon="5.15241">
        <ele>455.98699951172</ele>
        <time>2010-10-20T12:32:00Z</time>
      </trkpt>
      <trkpt lat="45.23388" lon="5.15261">
        <ele>457.0299987793</ele>
        <time>2010-10-20T12:32:06Z</time>
      </trkpt>
      <trkpt lat="45.23399" lon="5.15282">
        <ele>458.55801391602</ele>
        <time>2010-10-20T12:32:12Z</time>
      </trkpt>
      <trkpt lat="45.23408" lon="5.1531">
        <ele>459.89700317383</ele>
        <time>2010-10-20T12:32:19Z</time>
      </trkpt>
      <trkpt lat="45.23416" lon="5.15344">
        <ele>461.42401123047</ele>
        <time>2010-10-20T12:32:27Z</time>
      </trkpt>
      <trkpt lat="45.23424" lon="5.15378">
        <ele>462.74600219727</ele>
        <time>2010-10-20T12:32:35Z</time>
      </trkpt>
      <trkpt lat="45.23436" lon="5.15407">
        <ele>463.80499267578</ele>
        <time>2010-10-20T12:32:42Z</time>
      </trkpt>
      <trkpt lat="45.23454" lon="5.15423">
        <ele>465.19000244141</ele>
        <time>2010-10-20T12:32:48Z</time>
      </trkpt>
      <trkpt lat="45.23474" lon="5.15424">
        <ele>466.42599487305</ele>
        <time>2010-10-20T12:32:54Z</time>
      </trkpt>
      <trkpt lat="45.23505" lon="5.15411">
        <ele>468.30099487305</ele>
        <time>2010-10-20T12:33:03Z</time>
      </trkpt>
      <trkpt lat="45.23526" lon="5.15398">
        <ele>469.93099975586</ele>
        <time>2010-10-20T12:33:10Z</time>
      </trkpt>
      <trkpt lat="45.2354" lon="5.15401">
        <ele>470.38299560547</ele>
        <time>2010-10-20T12:33:14Z</time>
      </trkpt>
      <trkpt lat="45.23548" lon="5.15415">
        <ele>471.42999267578</ele>
        <time>2010-10-20T12:33:18Z</time>
      </trkpt>
      <trkpt lat="45.23549" lon="5.15444">
        <ele>472.79901123047</ele>
        <time>2010-10-20T12:33:24Z</time>
      </trkpt>
      <trkpt lat="45.2355" lon="5.15478">
        <ele>474.34600830078</ele>
        <time>2010-10-20T12:33:31Z</time>
      </trkpt>
      <trkpt lat="45.23559" lon="5.15506">
        <ele>475.1789855957</ele>
        <time>2010-10-20T12:33:37Z</time>
      </trkpt>
      <trkpt lat="45.23576" lon="5.15528">
        <ele>476.33898925781</ele>
        <time>2010-10-20T12:33:43Z</time>
      </trkpt>
      <trkpt lat="45.23602" lon="5.15542">
        <ele>477.81500244141</ele>
        <time>2010-10-20T12:33:50Z</time>
      </trkpt>
      <trkpt lat="45.23629" lon="5.15547">
        <ele>479.52200317383</ele>
        <time>2010-10-20T12:33:57Z</time>
      </trkpt>
      <trkpt lat="45.23661" lon="5.1554">
        <ele>481</ele>
        <time>2010-10-20T12:34:05Z</time>
      </trkpt>
      <trkpt lat="45.23699" lon="5.15527">
        <ele>483.24099731445</ele>
        <time>2010-10-20T12:34:15Z</time>
      </trkpt>
      <trkpt lat="45.23729" lon="5.15517">
        <ele>484.52398681641</ele>
        <time>2010-10-20T12:34:23Z</time>
      </trkpt>
      <trkpt lat="45.23759" lon="5.15508">
        <ele>485.58499145508</ele>
        <time>2010-10-20T12:34:31Z</time>
      </trkpt>
      <trkpt lat="45.23781" lon="5.15506">
        <ele>486.34399414062</ele>
        <time>2010-10-20T12:34:37Z</time>
      </trkpt>
      <trkpt lat="45.23807" lon="5.1551">
        <ele>487.83801269531</ele>
        <time>2010-10-20T12:34:44Z</time>
      </trkpt>
      <trkpt lat="45.23837" lon="5.15521">
        <ele>489.9469909668</ele>
        <time>2010-10-20T12:34:52Z</time>
      </trkpt>
      <trkpt lat="45.23874" lon="5.15538">
        <ele>491.24499511719</ele>
        <time>2010-10-20T12:35:02Z</time>
      </trkpt>
      <trkpt lat="45.23904" lon="5.15552">
        <ele>492.26400756836</ele>
        <time>2010-10-20T12:35:10Z</time>
      </trkpt>
      <trkpt lat="45.2394" lon="5.15569">
        <ele>494.92001342773</ele>
        <time>2010-10-20T12:35:20Z</time>
      </trkpt>
      <trkpt lat="45.23969" lon="5.15586">
        <ele>496.63400268555</ele>
        <time>2010-10-20T12:35:28Z</time>
      </trkpt>
      <trkpt lat="45.23993" lon="5.15602">
        <ele>497.98400878906</ele>
        <time>2010-10-20T12:35:35Z</time>
      </trkpt>
      <trkpt lat="45.24015" lon="5.15622">
        <ele>499.47500610352</ele>
        <time>2010-10-20T12:35:42Z</time>
      </trkpt>
      <trkpt lat="45.24039" lon="5.15647">
        <ele>501.27301025391</ele>
        <time>2010-10-20T12:35:50Z</time>
      </trkpt>
      <trkpt lat="45.2406" lon="5.15677">
        <ele>502.88198852539</ele>
        <time>2010-10-20T12:35:58Z</time>
      </trkpt>
      <trkpt lat="45.24071" lon="5.15701">
        <ele>504.04400634766</ele>
        <time>2010-10-20T12:36:04Z</time>
      </trkpt>
      <trkpt lat="45.24091" lon="5.15743">
        <ele>505.96899414062</ele>
        <time>2010-10-20T12:36:13Z</time>
      </trkpt>
      <trkpt lat="45.24104" lon="5.15774">
        <ele>507.26098632812</ele>
        <time>2010-10-20T12:36:20Z</time>
      </trkpt>
      <trkpt lat="45.24109" lon="5.15789">
        <ele>508.17300415039</ele>
        <time>2010-10-20T12:36:24Z</time>
      </trkpt>
      <trkpt lat="45.24119" lon="5.15808">
        <ele>509.00100708008</ele>
        <time>2010-10-20T12:36:29Z</time>
      </trkpt>
      <trkpt lat="45.24139" lon="5.15834">
        <ele>510.22698974609</ele>
        <time>2010-10-20T12:36:35Z</time>
      </trkpt>
      <trkpt lat="45.24158" lon="5.15854">
        <ele>511.40600585938</ele>
        <time>2010-10-20T12:36:41Z</time>
      </trkpt>
      <trkpt lat="45.24183" lon="5.15868">
        <ele>513.02197265625</ele>
        <time>2010-10-20T12:36:48Z</time>
      </trkpt>
      <trkpt lat="45.24218" lon="5.15885">
        <ele>514.91101074219</ele>
        <time>2010-10-20T12:36:58Z</time>
      </trkpt>
      <trkpt lat="45.24245" lon="5.15898">
        <ele>516.86499023438</ele>
        <time>2010-10-20T12:37:06Z</time>
      </trkpt>
      <trkpt lat="45.24272" lon="5.15909">
        <ele>518.19799804688</ele>
        <time>2010-10-20T12:37:14Z</time>
      </trkpt>
      <trkpt lat="45.24303" lon="5.15916">
        <ele>520.01397705078</ele>
        <time>2010-10-20T12:37:23Z</time>
      </trkpt>
      <trkpt lat="45.24332" lon="5.15914">
        <ele>522.03997802734</ele>
        <time>2010-10-20T12:37:31Z</time>
      </trkpt>
      <trkpt lat="45.24361" lon="5.159">
        <ele>523.45001220703</ele>
        <time>2010-10-20T12:37:39Z</time>
      </trkpt>
      <trkpt lat="45.24393" lon="5.15886">
        <ele>525.21197509766</ele>
        <time>2010-10-20T12:37:48Z</time>
      </trkpt>
      <trkpt lat="45.24422" lon="5.15879">
        <ele>526.67901611328</ele>
        <time>2010-10-20T12:37:56Z</time>
      </trkpt>
      <trkpt lat="45.24437" lon="5.15876">
        <ele>527.53399658203</ele>
        <time>2010-10-20T12:38:01Z</time>
      </trkpt>
      <trkpt lat="45.24445" lon="5.15872">
        <ele>528.13000488281</ele>
        <time>2010-10-20T12:38:06Z</time>
      </trkpt>
      <trkpt lat="45.24464" lon="5.15866">
        <ele>528.24102783203</ele>
        <time>2010-10-20T12:38:12Z</time>
      </trkpt>
      <trkpt lat="45.24475" lon="5.1586">
        <ele>528.70098876953</ele>
        <time>2010-10-20T12:38:15Z</time>
      </trkpt>
      <trkpt lat="45.24512" lon="5.15835">
        <ele>529.99298095703</ele>
        <time>2010-10-20T12:38:25Z</time>
      </trkpt>
      <trkpt lat="45.24542" lon="5.15814">
        <ele>531.20599365234</ele>
        <time>2010-10-20T12:38:34Z</time>
      </trkpt>
      <trkpt lat="45.24574" lon="5.15792">
        <ele>533</ele>
        <time>2010-10-20T12:38:43Z</time>
      </trkpt>
      <trkpt lat="45.24596" lon="5.15778">
        <ele>533.78302001953</ele>
        <time>2010-10-20T12:38:50Z</time>
      </trkpt>
      <trkpt lat="45.24614" lon="5.15765">
        <ele>533.54400634766</ele>
        <time>2010-10-20T12:38:57Z</time>
      </trkpt>
      <trkpt lat="45.24628" lon="5.15756">
        <ele>533.0419921875</ele>
        <time>2010-10-20T12:39:03Z</time>
      </trkpt>
      <trkpt lat="45.24645" lon="5.15743">
        <ele>532.36999511719</ele>
        <time>2010-10-20T12:39:09Z</time>
      </trkpt>
      <trkpt lat="45.24651" lon="5.1574">
        <ele>532.01702880859</ele>
        <time>2010-10-20T12:39:11Z</time>
      </trkpt>
      <trkpt lat="45.24654" lon="5.15737">
        <ele>531.85400390625</ele>
        <time>2010-10-20T12:39:12Z</time>
      </trkpt>
      <trkpt lat="45.24669" lon="5.15727">
        <ele>531.24597167969</ele>
        <time>2010-10-20T12:39:17Z</time>
      </trkpt>
      <trkpt lat="45.24688" lon="5.15714">
        <ele>530.41998291016</ele>
        <time>2010-10-20T12:39:23Z</time>
      </trkpt>
      <trkpt lat="45.24707" lon="5.157">
        <ele>529.3330078125</ele>
        <time>2010-10-20T12:39:29Z</time>
      </trkpt>
      <trkpt lat="45.24734" lon="5.15681">
        <ele>528.11700439453</ele>
        <time>2010-10-20T12:39:37Z</time>
      </trkpt>
      <trkpt lat="45.24753" lon="5.15669">
        <ele>526.82800292969</ele>
        <time>2010-10-20T12:39:43Z</time>
      </trkpt>
      <trkpt lat="45.24769" lon="5.15659">
        <ele>525.87701416016</ele>
        <time>2010-10-20T12:39:49Z</time>
      </trkpt>
      <trkpt lat="45.24781" lon="5.15654">
        <ele>525.08099365234</ele>
        <time>2010-10-20T12:39:55Z</time>
      </trkpt>
      <trkpt lat="45.24797" lon="5.15649">
        <ele>524.26898193359</ele>
        <time>2010-10-20T12:40:01Z</time>
      </trkpt>
      <trkpt lat="45.24824" lon="5.1564">
        <ele>522.24798583984</ele>
        <time>2010-10-20T12:40:07Z</time>
      </trkpt>
      <trkpt lat="45.2486" lon="5.15629">
        <ele>519.86700439453</ele>
        <time>2010-10-20T12:40:13Z</time>
      </trkpt>
      <trkpt lat="45.24905" lon="5.15616">
        <ele>517.10900878906</ele>
        <time>2010-10-20T12:40:19Z</time>
      </trkpt>
      <trkpt lat="45.24928" lon="5.15625">
        <ele>515.06500244141</ele>
        <time>2010-10-20T12:40:22Z</time>
      </trkpt>
      <trkpt lat="45.24932" lon="5.15646">
        <ele>513.75897216797</ele>
        <time>2010-10-20T12:40:24Z</time>
      </trkpt>
      <trkpt lat="45.24932" lon="5.15656">
        <ele>513.51501464844</ele>
        <time>2010-10-20T12:40:25Z</time>
      </trkpt>
      <trkpt lat="45.24924" lon="5.15686">
        <ele>513.41198730469</ele>
        <time>2010-10-20T12:40:28Z</time>
      </trkpt>
      <trkpt lat="45.2491" lon="5.15724">
        <ele>511.72601318359</ele>
        <time>2010-10-20T12:40:32Z</time>
      </trkpt>
      <trkpt lat="45.24888" lon="5.15784">
        <ele>509.23498535156</ele>
        <time>2010-10-20T12:40:38Z</time>
      </trkpt>
      <trkpt lat="45.24884" lon="5.15795">
        <ele>508.78201293945</ele>
        <time>2010-10-20T12:40:39Z</time>
      </trkpt>
      <trkpt lat="45.24889" lon="5.15846">
        <ele>506.98098754883</ele>
        <time>2010-10-20T12:40:43Z</time>
      </trkpt>
      <trkpt lat="45.24893" lon="5.15872">
        <ele>505.76000976562</ele>
        <time>2010-10-20T12:40:45Z</time>
      </trkpt>
      <trkpt lat="45.24903" lon="5.1592">
        <ele>503.71099853516</ele>
        <time>2010-10-20T12:40:49Z</time>
      </trkpt>
      <trkpt lat="45.24899" lon="5.15943">
        <ele>502.98999023438</ele>
        <time>2010-10-20T12:40:51Z</time>
      </trkpt>
      <trkpt lat="45.2489" lon="5.15964">
        <ele>501.84201049805</ele>
        <time>2010-10-20T12:40:53Z</time>
      </trkpt>
      <trkpt lat="45.24886" lon="5.16001">
        <ele>500.52499389648</ele>
        <time>2010-10-20T12:40:56Z</time>
      </trkpt>
      <trkpt lat="45.24896" lon="5.16037">
        <ele>498.52700805664</ele>
        <time>2010-10-20T12:40:59Z</time>
      </trkpt>
      <trkpt lat="45.24913" lon="5.16048">
        <ele>496.99700927734</ele>
        <time>2010-10-20T12:41:01Z</time>
      </trkpt>
      <trkpt lat="45.24943" lon="5.16055">
        <ele>495.04901123047</ele>
        <time>2010-10-20T12:41:04Z</time>
      </trkpt>
      <trkpt lat="45.24972" lon="5.16067">
        <ele>493.16500854492</ele>
        <time>2010-10-20T12:41:07Z</time>
      </trkpt>
      <trkpt lat="45.24993" lon="5.16059">
        <ele>491.91900634766</ele>
        <time>2010-10-20T12:41:09Z</time>
      </trkpt>
      <trkpt lat="45.25046" lon="5.16048">
        <ele>487.48498535156</ele>
        <time>2010-10-20T12:41:14Z</time>
      </trkpt>
      <trkpt lat="45.25066" lon="5.1606">
        <ele>485.87399291992</ele>
        <time>2010-10-20T12:41:16Z</time>
      </trkpt>
      <trkpt lat="45.25093" lon="5.16085">
        <ele>483.83401489258</ele>
        <time>2010-10-20T12:41:19Z</time>
      </trkpt>
      <trkpt lat="45.25128" lon="5.16113">
        <ele>481.94000244141</ele>
        <time>2010-10-20T12:41:23Z</time>
      </trkpt>
      <trkpt lat="45.25136" lon="5.16118">
        <ele>481.86898803711</ele>
        <time>2010-10-20T12:41:24Z</time>
      </trkpt>
      <trkpt lat="45.25163" lon="5.16148">
        <ele>480.51699829102</ele>
        <time>2010-10-20T12:41:29Z</time>
      </trkpt>
      <trkpt lat="45.25177" lon="5.16182">
        <ele>479.18600463867</ele>
        <time>2010-10-20T12:41:36Z</time>
      </trkpt>
      <trkpt lat="45.25186" lon="5.16205">
        <ele>478.29098510742</ele>
        <time>2010-10-20T12:41:41Z</time>
      </trkpt>
      <trkpt lat="45.25188" lon="5.16217">
        <ele>477.75</ele>
        <time>2010-10-20T12:41:43Z</time>
      </trkpt>
      <trkpt lat="45.25199" lon="5.16263">
        <ele>474.58801269531</ele>
        <time>2010-10-20T12:41:48Z</time>
      </trkpt>
      <trkpt lat="45.25199" lon="5.16293">
        <ele>472.98901367188</ele>
        <time>2010-10-20T12:41:51Z</time>
      </trkpt>
      <trkpt lat="45.25198" lon="5.16303">
        <ele>472.84799194336</ele>
        <time>2010-10-20T12:41:52Z</time>
      </trkpt>
      <trkpt lat="45.25195" lon="5.16341">
        <ele>471.99200439453</ele>
        <time>2010-10-20T12:41:56Z</time>
      </trkpt>
      <trkpt lat="45.25188" lon="5.16392">
        <ele>470.30499267578</ele>
        <time>2010-10-20T12:42:01Z</time>
      </trkpt>
      <trkpt lat="45.25174" lon="5.16427">
        <ele>468.83200073242</ele>
        <time>2010-10-20T12:42:05Z</time>
      </trkpt>
      <trkpt lat="45.25158" lon="5.1645">
        <ele>467.20001220703</ele>
        <time>2010-10-20T12:42:08Z</time>
      </trkpt>
      <trkpt lat="45.25143" lon="5.16491">
        <ele>465.36199951172</ele>
        <time>2010-10-20T12:42:12Z</time>
      </trkpt>
      <trkpt lat="45.25146" lon="5.16516">
        <ele>463.82901000977</ele>
        <time>2010-10-20T12:42:14Z</time>
      </trkpt>
      <trkpt lat="45.25159" lon="5.16536">
        <ele>462.52801513672</ele>
        <time>2010-10-20T12:42:16Z</time>
      </trkpt>
      <trkpt lat="45.25175" lon="5.16552">
        <ele>460.51800537109</ele>
        <time>2010-10-20T12:42:18Z</time>
      </trkpt>
      <trkpt lat="45.25191" lon="5.1657">
        <ele>459.50698852539</ele>
        <time>2010-10-20T12:42:20Z</time>
      </trkpt>
      <trkpt lat="45.25219" lon="5.16629">
        <ele>456.16400146484</ele>
        <time>2010-10-20T12:42:25Z</time>
      </trkpt>
      <trkpt lat="45.25252" lon="5.16706">
        <ele>451.41400146484</ele>
        <time>2010-10-20T12:42:31Z</time>
      </trkpt>
      <trkpt lat="45.25286" lon="5.16784">
        <ele>448.64001464844</ele>
        <time>2010-10-20T12:42:37Z</time>
      </trkpt>
      <trkpt lat="45.25308" lon="5.16837">
        <ele>446.06201171875</ele>
        <time>2010-10-20T12:42:41Z</time>
      </trkpt>
      <trkpt lat="45.25317" lon="5.16866">
        <ele>444.88400268555</ele>
        <time>2010-10-20T12:42:43Z</time>
      </trkpt>
      <trkpt lat="45.25327" lon="5.16944">
        <ele>441.69198608398</ele>
        <time>2010-10-20T12:42:48Z</time>
      </trkpt>
      <trkpt lat="45.25334" lon="5.16991">
        <ele>439.74398803711</ele>
        <time>2010-10-20T12:42:51Z</time>
      </trkpt>
      <trkpt lat="45.25355" lon="5.17048">
        <ele>437.03399658203</ele>
        <time>2010-10-20T12:42:55Z</time>
      </trkpt>
      <trkpt lat="45.25362" lon="5.1706">
        <ele>436.25201416016</ele>
        <time>2010-10-20T12:42:56Z</time>
      </trkpt>
      <trkpt lat="45.25411" lon="5.17128">
        <ele>432.38400268555</ele>
        <time>2010-10-20T12:43:02Z</time>
      </trkpt>
      <trkpt lat="45.25441" lon="5.17139">
        <ele>430.62399291992</ele>
        <time>2010-10-20T12:43:05Z</time>
      </trkpt>
      <trkpt lat="45.25453" lon="5.17139">
        <ele>430.16900634766</ele>
        <time>2010-10-20T12:43:06Z</time>
      </trkpt>
      <trkpt lat="45.25519" lon="5.1714">
        <ele>427.59298706055</ele>
        <time>2010-10-20T12:43:12Z</time>
      </trkpt>
      <trkpt lat="45.2555" lon="5.17165">
        <ele>427.89599609375</ele>
        <time>2010-10-20T12:43:16Z</time>
      </trkpt>
      <trkpt lat="45.25556" lon="5.17174">
        <ele>428.18899536133</ele>
        <time>2010-10-20T12:43:17Z</time>
      </trkpt>
      <trkpt lat="45.25575" lon="5.17214">
        <ele>431.2380065918</ele>
        <time>2010-10-20T12:43:22Z</time>
      </trkpt>
      <trkpt lat="45.25578" lon="5.17221">
        <ele>431.14199829102</ele>
        <time>2010-10-20T12:43:23Z</time>
      </trkpt>
      <trkpt lat="45.2559" lon="5.17241">
        <ele>430.39599609375</ele>
        <time>2010-10-20T12:43:26Z</time>
      </trkpt>
      <trkpt lat="45.2561" lon="5.17266">
        <ele>429.57501220703</ele>
        <time>2010-10-20T12:43:30Z</time>
      </trkpt>
      <trkpt lat="45.25644" lon="5.17297">
        <ele>430.36099243164</ele>
        <time>2010-10-20T12:43:37Z</time>
      </trkpt>
      <trkpt lat="45.25663" lon="5.17314">
        <ele>431.6969909668</ele>
        <time>2010-10-20T12:43:43Z</time>
      </trkpt>
      <trkpt lat="45.25665" lon="5.17318">
        <ele>432.16000366211</ele>
        <time>2010-10-20T12:43:45Z</time>
      </trkpt>
      <trkpt lat="45.25667" lon="5.1732">
        <ele>432.6960144043</ele>
        <time>2010-10-20T12:43:50Z</time>
      </trkpt>
      <trkpt lat="45.25666" lon="5.1732">
        <ele>432.61401367188</ele>
        <time>2010-10-20T12:43:51Z</time>
      </trkpt>
      <trkpt lat="45.25667" lon="5.1732">
        <ele>432.48098754883</ele>
        <time>2010-10-20T12:44:05Z</time>
      </trkpt>
      <trkpt lat="45.25667" lon="5.1732">
        <ele>432.47500610352</ele>
        <time>2010-10-20T12:44:06Z</time>
      </trkpt>
      <trkpt lat="45.25664" lon="5.1732">
        <ele>432.61801147461</ele>
        <time>2010-10-20T12:44:39Z</time>
      </trkpt>
      <trkpt lat="45.2566" lon="5.17317">
        <ele>432.75601196289</ele>
        <time>2010-10-20T12:45:39Z</time>
      </trkpt>
      <trkpt lat="45.25661" lon="5.17318">
        <ele>432.69198608398</ele>
        <time>2010-10-20T12:45:40Z</time>
      </trkpt>
      <trkpt lat="45.25661" lon="5.17318">
        <ele>432.67300415039</ele>
        <time>2010-10-20T12:45:41Z</time>
      </trkpt>
      <trkpt lat="45.25663" lon="5.17319">
        <ele>432.68701171875</ele>
        <time>2010-10-20T12:45:42Z</time>
      </trkpt>
      <trkpt lat="45.25663" lon="5.17319">
        <ele>432.78298950195</ele>
        <time>2010-10-20T12:45:44Z</time>
      </trkpt>
      <trkpt lat="45.25672" lon="5.17315">
        <ele>433.26000976562</ele>
        <time>2010-10-20T12:45:54Z</time>
      </trkpt>
      <trkpt lat="45.25674" lon="5.17297">
        <ele>432.63598632812</ele>
        <time>2010-10-20T12:46:06Z</time>
      </trkpt>
      <trkpt lat="45.25678" lon="5.17271">
        <ele>432.73901367188</ele>
        <time>2010-10-20T12:46:10Z</time>
      </trkpt>
      <trkpt lat="45.2568" lon="5.17247">
        <ele>432.42300415039</ele>
        <time>2010-10-20T12:46:13Z</time>
      </trkpt>
      <trkpt lat="45.25687" lon="5.17189">
        <ele>432.1789855957</ele>
        <time>2010-10-20T12:46:20Z</time>
      </trkpt>
      <trkpt lat="45.25694" lon="5.17133">
        <ele>432.02398681641</ele>
        <time>2010-10-20T12:46:27Z</time>
      </trkpt>
      <trkpt lat="45.25702" lon="5.1706">
        <ele>431.64099121094</ele>
        <time>2010-10-20T12:46:35Z</time>
      </trkpt>
      <trkpt lat="45.25711" lon="5.16983">
        <ele>431.23098754883</ele>
        <time>2010-10-20T12:46:43Z</time>
      </trkpt>
      <trkpt lat="45.25714" lon="5.16946">
        <ele>431.44299316406</ele>
        <time>2010-10-20T12:46:47Z</time>
      </trkpt>
      <trkpt lat="45.25712" lon="5.16902">
        <ele>431.44000244141</ele>
        <time>2010-10-20T12:46:53Z</time>
      </trkpt>
      <trkpt lat="45.2571" lon="5.16885">
        <ele>430.97299194336</ele>
        <time>2010-10-20T12:46:56Z</time>
      </trkpt>
      <trkpt lat="45.25709" lon="5.1686">
        <ele>430.87799072266</ele>
        <time>2010-10-20T12:47:00Z</time>
      </trkpt>
      <trkpt lat="45.25705" lon="5.16801">
        <ele>429.66500854492</ele>
        <time>2010-10-20T12:47:08Z</time>
      </trkpt>
      <trkpt lat="45.25705" lon="5.16794">
        <ele>429.62600708008</ele>
        <time>2010-10-20T12:47:09Z</time>
      </trkpt>
      <trkpt lat="45.257" lon="5.1673">
        <ele>428.96301269531</ele>
        <time>2010-10-20T12:47:17Z</time>
      </trkpt>
      <trkpt lat="45.25694" lon="5.16663">
        <ele>427.96301269531</ele>
        <time>2010-10-20T12:47:25Z</time>
      </trkpt>
      <trkpt lat="45.25681" lon="5.16595">
        <ele>426.69400024414</ele>
        <time>2010-10-20T12:47:33Z</time>
      </trkpt>
      <trkpt lat="45.2568" lon="5.16587">
        <ele>426.60299682617</ele>
        <time>2010-10-20T12:47:34Z</time>
      </trkpt>
      <trkpt lat="45.25668" lon="5.16535">
        <ele>425.75201416016</ele>
        <time>2010-10-20T12:47:40Z</time>
      </trkpt>
      <trkpt lat="45.2566" lon="5.1649">
        <ele>424.8450012207</ele>
        <time>2010-10-20T12:47:45Z</time>
      </trkpt>
      <trkpt lat="45.25658" lon="5.16482">
        <ele>424.92700195312</ele>
        <time>2010-10-20T12:47:46Z</time>
      </trkpt>
      <trkpt lat="45.25654" lon="5.16455">
        <ele>424.75799560547</ele>
        <time>2010-10-20T12:47:49Z</time>
      </trkpt>
      <trkpt lat="45.25654" lon="5.16387">
        <ele>424.54501342773</ele>
        <time>2010-10-20T12:47:57Z</time>
      </trkpt>
      <trkpt lat="45.25654" lon="5.16346">
        <ele>424.46301269531</ele>
        <time>2010-10-20T12:48:02Z</time>
      </trkpt>
      <trkpt lat="45.25655" lon="5.16324">
        <ele>425.01400756836</ele>
        <time>2010-10-20T12:48:05Z</time>
      </trkpt>
      <trkpt lat="45.25655" lon="5.16316">
        <ele>424.99398803711</ele>
        <time>2010-10-20T12:48:06Z</time>
      </trkpt>
      <trkpt lat="45.25658" lon="5.1626">
        <ele>424.94900512695</ele>
        <time>2010-10-20T12:48:13Z</time>
      </trkpt>
      <trkpt lat="45.25661" lon="5.16205">
        <ele>425.45700073242</ele>
        <time>2010-10-20T12:48:20Z</time>
      </trkpt>
      <trkpt lat="45.25658" lon="5.16148">
        <ele>425.2200012207</ele>
        <time>2010-10-20T12:48:27Z</time>
      </trkpt>
      <trkpt lat="45.25648" lon="5.16086">
        <ele>423.64801025391</ele>
        <time>2010-10-20T12:48:34Z</time>
      </trkpt>
      <trkpt lat="45.25644" lon="5.16017">
        <ele>421.63800048828</ele>
        <time>2010-10-20T12:48:41Z</time>
      </trkpt>
      <trkpt lat="45.25647" lon="5.1596">
        <ele>420.58401489258</ele>
        <time>2010-10-20T12:48:47Z</time>
      </trkpt>
      <trkpt lat="45.25651" lon="5.15933">
        <ele>420.60198974609</ele>
        <time>2010-10-20T12:48:50Z</time>
      </trkpt>
      <trkpt lat="45.25663" lon="5.15869">
        <ele>419.96301269531</ele>
        <time>2010-10-20T12:48:57Z</time>
      </trkpt>
      <trkpt lat="45.25671" lon="5.15833">
        <ele>419.57800292969</ele>
        <time>2010-10-20T12:49:01Z</time>
      </trkpt>
      <trkpt lat="45.25682" lon="5.15771">
        <ele>419.87100219727</ele>
        <time>2010-10-20T12:49:08Z</time>
      </trkpt>
      <trkpt lat="45.25696" lon="5.157">
        <ele>418.76800537109</ele>
        <time>2010-10-20T12:49:16Z</time>
      </trkpt>
      <trkpt lat="45.25701" lon="5.15673">
        <ele>418.67999267578</ele>
        <time>2010-10-20T12:49:19Z</time>
      </trkpt>
      <trkpt lat="45.25712" lon="5.15617">
        <ele>417.64300537109</ele>
        <time>2010-10-20T12:49:25Z</time>
      </trkpt>
      <trkpt lat="45.25726" lon="5.15537">
        <ele>416.97500610352</ele>
        <time>2010-10-20T12:49:34Z</time>
      </trkpt>
      <trkpt lat="45.25727" lon="5.15471">
        <ele>416.55999755859</ele>
        <time>2010-10-20T12:49:41Z</time>
      </trkpt>
      <trkpt lat="45.25727" lon="5.15401">
        <ele>415.38800048828</ele>
        <time>2010-10-20T12:49:48Z</time>
      </trkpt>
      <trkpt lat="45.25737" lon="5.15333">
        <ele>414.10998535156</ele>
        <time>2010-10-20T12:49:55Z</time>
      </trkpt>
      <trkpt lat="45.25753" lon="5.15266">
        <ele>413.35699462891</ele>
        <time>2010-10-20T12:50:02Z</time>
      </trkpt>
      <trkpt lat="45.25761" lon="5.15239">
        <ele>413.41598510742</ele>
        <time>2010-10-20T12:50:05Z</time>
      </trkpt>
      <trkpt lat="45.25785" lon="5.15192">
        <ele>412.42401123047</ele>
        <time>2010-10-20T12:50:11Z</time>
      </trkpt>
      <trkpt lat="45.25822" lon="5.15137">
        <ele>412.35000610352</ele>
        <time>2010-10-20T12:50:19Z</time>
      </trkpt>
      <trkpt lat="45.25847" lon="5.15085">
        <ele>412.48001098633</ele>
        <time>2010-10-20T12:50:26Z</time>
      </trkpt>
      <trkpt lat="45.25851" lon="5.15077">
        <ele>412.5119934082</ele>
        <time>2010-10-20T12:50:27Z</time>
      </trkpt>
      <trkpt lat="45.25883" lon="5.15027">
        <ele>411.38500976562</ele>
        <time>2010-10-20T12:50:34Z</time>
      </trkpt>
      <trkpt lat="45.25916" lon="5.14984">
        <ele>411.43301391602</ele>
        <time>2010-10-20T12:50:41Z</time>
      </trkpt>
      <trkpt lat="45.25943" lon="5.14934">
        <ele>411.53201293945</ele>
        <time>2010-10-20T12:50:48Z</time>
      </trkpt>
      <trkpt lat="45.25963" lon="5.14879">
        <ele>411.38800048828</ele>
        <time>2010-10-20T12:50:55Z</time>
      </trkpt>
      <trkpt lat="45.25983" lon="5.14811">
        <ele>411.16799926758</ele>
        <time>2010-10-20T12:51:03Z</time>
      </trkpt>
      <trkpt lat="45.25995" lon="5.14763">
        <ele>411.64599609375</ele>
        <time>2010-10-20T12:51:09Z</time>
      </trkpt>
      <trkpt lat="45.26" lon="5.14709">
        <ele>411.42700195312</ele>
        <time>2010-10-20T12:51:15Z</time>
      </trkpt>
      <trkpt lat="45.25998" lon="5.14647">
        <ele>411.4169921875</ele>
        <time>2010-10-20T12:51:22Z</time>
      </trkpt>
      <trkpt lat="45.25999" lon="5.14587">
        <ele>411.74398803711</ele>
        <time>2010-10-20T12:51:29Z</time>
      </trkpt>
      <trkpt lat="45.26003" lon="5.14553">
        <ele>411.21499633789</ele>
        <time>2010-10-20T12:51:33Z</time>
      </trkpt>
      <trkpt lat="45.26004" lon="5.14529">
        <ele>410.86801147461</ele>
        <time>2010-10-20T12:51:36Z</time>
      </trkpt>
      <trkpt lat="45.26014" lon="5.14494">
        <ele>410.47299194336</ele>
        <time>2010-10-20T12:51:40Z</time>
      </trkpt>
      <trkpt lat="45.26036" lon="5.14439">
        <ele>409.46798706055</ele>
        <time>2010-10-20T12:51:46Z</time>
      </trkpt>
      <trkpt lat="45.26038" lon="5.14412">
        <ele>408.82400512695</ele>
        <time>2010-10-20T12:51:49Z</time>
      </trkpt>
      <trkpt lat="45.2605" lon="5.14336">
        <ele>406.48999023438</ele>
        <time>2010-10-20T12:51:56Z</time>
      </trkpt>
      <trkpt lat="45.26062" lon="5.14253">
        <ele>405.46398925781</ele>
        <time>2010-10-20T12:52:04Z</time>
      </trkpt>
      <trkpt lat="45.26063" lon="5.14233">
        <ele>404.94900512695</ele>
        <time>2010-10-20T12:52:06Z</time>
      </trkpt>
      <trkpt lat="45.26059" lon="5.14167">
        <ele>402.83999633789</ele>
        <time>2010-10-20T12:52:12Z</time>
      </trkpt>
      <trkpt lat="45.26048" lon="5.14114">
        <ele>402.41299438477</ele>
        <time>2010-10-20T12:52:17Z</time>
      </trkpt>
      <trkpt lat="45.26036" lon="5.14058">
        <ele>402.10198974609</ele>
        <time>2010-10-20T12:52:22Z</time>
      </trkpt>
      <trkpt lat="45.26036" lon="5.13987">
        <ele>400.72299194336</ele>
        <time>2010-10-20T12:52:28Z</time>
      </trkpt>
      <trkpt lat="45.26051" lon="5.13918">
        <ele>400.16598510742</ele>
        <time>2010-10-20T12:52:34Z</time>
      </trkpt>
      <trkpt lat="45.26064" lon="5.13873">
        <ele>400.75698852539</ele>
        <time>2010-10-20T12:52:38Z</time>
      </trkpt>
      <trkpt lat="45.26067" lon="5.13825">
        <ele>400.03500366211</ele>
        <time>2010-10-20T12:52:42Z</time>
      </trkpt>
      <trkpt lat="45.26058" lon="5.13714">
        <ele>399.47799682617</ele>
        <time>2010-10-20T12:52:51Z</time>
      </trkpt>
      <trkpt lat="45.26044" lon="5.13589">
        <ele>401.22900390625</ele>
        <time>2010-10-20T12:53:01Z</time>
      </trkpt>
      <trkpt lat="45.26043" lon="5.13576">
        <ele>401.19299316406</ele>
        <time>2010-10-20T12:53:02Z</time>
      </trkpt>
      <trkpt lat="45.2603" lon="5.13459">
        <ele>399.71499633789</ele>
        <time>2010-10-20T12:53:11Z</time>
      </trkpt>
      <trkpt lat="45.26013" lon="5.13343">
        <ele>398.68301391602</ele>
        <time>2010-10-20T12:53:20Z</time>
      </trkpt>
      <trkpt lat="45.25992" lon="5.13227">
        <ele>397.27700805664</ele>
        <time>2010-10-20T12:53:29Z</time>
      </trkpt>
      <trkpt lat="45.25979" lon="5.13133">
        <ele>395.48999023438</ele>
        <time>2010-10-20T12:53:36Z</time>
      </trkpt>
      <trkpt lat="45.25986" lon="5.13079">
        <ele>395.18099975586</ele>
        <time>2010-10-20T12:53:40Z</time>
      </trkpt>
      <trkpt lat="45.26017" lon="5.12955">
        <ele>392.9289855957</ele>
        <time>2010-10-20T12:53:50Z</time>
      </trkpt>
      <trkpt lat="45.26019" lon="5.12942">
        <ele>392.6969909668</ele>
        <time>2010-10-20T12:53:51Z</time>
      </trkpt>
      <trkpt lat="45.2604" lon="5.12848">
        <ele>392.49200439453</ele>
        <time>2010-10-20T12:53:59Z</time>
      </trkpt>
      <trkpt lat="45.2606" lon="5.12749">
        <ele>391.27499389648</ele>
        <time>2010-10-20T12:54:08Z</time>
      </trkpt>
      <trkpt lat="45.2608" lon="5.12689">
        <ele>389.54901123047</ele>
        <time>2010-10-20T12:54:14Z</time>
      </trkpt>
      <trkpt lat="45.26111" lon="5.12627">
        <ele>389.06298828125</ele>
        <time>2010-10-20T12:54:21Z</time>
      </trkpt>
      <trkpt lat="45.26143" lon="5.12563">
        <ele>390.59698486328</ele>
        <time>2010-10-20T12:54:28Z</time>
      </trkpt>
      <trkpt lat="45.26167" lon="5.12497">
        <ele>390.06399536133</ele>
        <time>2010-10-20T12:54:34Z</time>
      </trkpt>
      <trkpt lat="45.26195" lon="5.12434">
        <ele>388.60699462891</ele>
        <time>2010-10-20T12:54:40Z</time>
      </trkpt>
      <trkpt lat="45.26229" lon="5.12377">
        <ele>387.42599487305</ele>
        <time>2010-10-20T12:54:46Z</time>
      </trkpt>
      <trkpt lat="45.26277" lon="5.12295">
        <ele>383.69900512695</ele>
        <time>2010-10-20T12:54:54Z</time>
      </trkpt>
      <trkpt lat="45.26291" lon="5.12263">
        <ele>381.97500610352</ele>
        <time>2010-10-20T12:54:57Z</time>
      </trkpt>
      <trkpt lat="45.26304" lon="5.12201">
        <ele>382.9280090332</ele>
        <time>2010-10-20T12:55:03Z</time>
      </trkpt>
      <trkpt lat="45.26314" lon="5.1214">
        <ele>382.8330078125</ele>
        <time>2010-10-20T12:55:09Z</time>
      </trkpt>
      <trkpt lat="45.2632" lon="5.12096">
        <ele>381.44198608398</ele>
        <time>2010-10-20T12:55:13Z</time>
      </trkpt>
      <trkpt lat="45.2633" lon="5.12017">
        <ele>379.34698486328</ele>
        <time>2010-10-20T12:55:20Z</time>
      </trkpt>
      <trkpt lat="45.26339" lon="5.11951">
        <ele>380.1369934082</ele>
        <time>2010-10-20T12:55:26Z</time>
      </trkpt>
      <trkpt lat="45.26351" lon="5.11874">
        <ele>379.73199462891</ele>
        <time>2010-10-20T12:55:33Z</time>
      </trkpt>
      <trkpt lat="45.26361" lon="5.11806">
        <ele>379.53900146484</ele>
        <time>2010-10-20T12:55:39Z</time>
      </trkpt>
      <trkpt lat="45.2636" lon="5.11734">
        <ele>378.30099487305</ele>
        <time>2010-10-20T12:55:45Z</time>
      </trkpt>
      <trkpt lat="45.26354" lon="5.11664">
        <ele>377.31900024414</ele>
        <time>2010-10-20T12:55:51Z</time>
      </trkpt>
      <trkpt lat="45.26355" lon="5.11593">
        <ele>377.05200195312</ele>
        <time>2010-10-20T12:55:57Z</time>
      </trkpt>
      <trkpt lat="45.26365" lon="5.11538">
        <ele>376.71301269531</ele>
        <time>2010-10-20T12:56:02Z</time>
      </trkpt>
      <trkpt lat="45.26385" lon="5.11477">
        <ele>377.18301391602</ele>
        <time>2010-10-20T12:56:08Z</time>
      </trkpt>
      <trkpt lat="45.26394" lon="5.11422">
        <ele>376.54901123047</ele>
        <time>2010-10-20T12:56:13Z</time>
      </trkpt>
      <trkpt lat="45.26403" lon="5.11335">
        <ele>376.51901245117</ele>
        <time>2010-10-20T12:56:21Z</time>
      </trkpt>
      <trkpt lat="45.26406" lon="5.11269">
        <ele>375.77099609375</ele>
        <time>2010-10-20T12:56:27Z</time>
      </trkpt>
      <trkpt lat="45.26414" lon="5.11195">
        <ele>375.18399047852</ele>
        <time>2010-10-20T12:56:34Z</time>
      </trkpt>
      <trkpt lat="45.26425" lon="5.11112">
        <ele>375.56399536133</ele>
        <time>2010-10-20T12:56:42Z</time>
      </trkpt>
      <trkpt lat="45.26423" lon="5.11036">
        <ele>374.75601196289</ele>
        <time>2010-10-20T12:56:49Z</time>
      </trkpt>
      <trkpt lat="45.26423" lon="5.10967">
        <ele>374.35800170898</ele>
        <time>2010-10-20T12:56:55Z</time>
      </trkpt>
      <trkpt lat="45.2643" lon="5.10874">
        <ele>374.26800537109</ele>
        <time>2010-10-20T12:57:03Z</time>
      </trkpt>
      <trkpt lat="45.2643" lon="5.10815">
        <ele>373.43399047852</ele>
        <time>2010-10-20T12:57:08Z</time>
      </trkpt>
      <trkpt lat="45.26421" lon="5.10758">
        <ele>373.04000854492</ele>
        <time>2010-10-20T12:57:13Z</time>
      </trkpt>
      <trkpt lat="45.26413" lon="5.10701">
        <ele>372.86199951172</ele>
        <time>2010-10-20T12:57:18Z</time>
      </trkpt>
      <trkpt lat="45.26421" lon="5.1063">
        <ele>372.23300170898</ele>
        <time>2010-10-20T12:57:24Z</time>
      </trkpt>
      <trkpt lat="45.26435" lon="5.10549">
        <ele>371.42001342773</ele>
        <time>2010-10-20T12:57:31Z</time>
      </trkpt>
      <trkpt lat="45.26447" lon="5.10492">
        <ele>369.76998901367</ele>
        <time>2010-10-20T12:57:36Z</time>
      </trkpt>
      <trkpt lat="45.26449" lon="5.10481">
        <ele>370.00900268555</ele>
        <time>2010-10-20T12:57:37Z</time>
      </trkpt>
      <trkpt lat="45.26467" lon="5.10366">
        <ele>370.13900756836</ele>
        <time>2010-10-20T12:57:47Z</time>
      </trkpt>
      <trkpt lat="45.26483" lon="5.10275">
        <ele>370.3450012207</ele>
        <time>2010-10-20T12:57:55Z</time>
      </trkpt>
      <trkpt lat="45.26499" lon="5.10184">
        <ele>369.97299194336</ele>
        <time>2010-10-20T12:58:03Z</time>
      </trkpt>
      <trkpt lat="45.26506" lon="5.10126">
        <ele>369.95401000977</ele>
        <time>2010-10-20T12:58:08Z</time>
      </trkpt>
      <trkpt lat="45.26497" lon="5.10056">
        <ele>369.29598999023</ele>
        <time>2010-10-20T12:58:14Z</time>
      </trkpt>
      <trkpt lat="45.26486" lon="5.10009">
        <ele>368.14498901367</ele>
        <time>2010-10-20T12:58:18Z</time>
      </trkpt>
      <trkpt lat="45.26481" lon="5.09986">
        <ele>367.31201171875</ele>
        <time>2010-10-20T12:58:20Z</time>
      </trkpt>
      <trkpt lat="45.26456" lon="5.09889">
        <ele>367.51998901367</ele>
        <time>2010-10-20T12:58:28Z</time>
      </trkpt>
      <trkpt lat="45.26451" lon="5.09862">
        <ele>366.58499145508</ele>
        <time>2010-10-20T12:58:30Z</time>
      </trkpt>
      <trkpt lat="45.26453" lon="5.09807">
        <ele>366.08898925781</ele>
        <time>2010-10-20T12:58:34Z</time>
      </trkpt>
      <trkpt lat="45.26463" lon="5.09718">
        <ele>365.78298950195</ele>
        <time>2010-10-20T12:58:41Z</time>
      </trkpt>
      <trkpt lat="45.26456" lon="5.09653">
        <ele>365.08099365234</ele>
        <time>2010-10-20T12:58:46Z</time>
      </trkpt>
      <trkpt lat="45.2645" lon="5.09593">
        <ele>365.3219909668</ele>
        <time>2010-10-20T12:58:51Z</time>
      </trkpt>
      <trkpt lat="45.26454" lon="5.09509">
        <ele>364.7380065918</ele>
        <time>2010-10-20T12:58:58Z</time>
      </trkpt>
      <trkpt lat="45.26459" lon="5.09413">
        <ele>364.22100830078</ele>
        <time>2010-10-20T12:59:06Z</time>
      </trkpt>
      <trkpt lat="45.26464" lon="5.09324">
        <ele>363.61401367188</ele>
        <time>2010-10-20T12:59:14Z</time>
      </trkpt>
      <trkpt lat="45.2647" lon="5.0925">
        <ele>363.13101196289</ele>
        <time>2010-10-20T12:59:21Z</time>
      </trkpt>
      <trkpt lat="45.26475" lon="5.09166">
        <ele>362.52600097656</ele>
        <time>2010-10-20T12:59:29Z</time>
      </trkpt>
      <trkpt lat="45.26481" lon="5.09055">
        <ele>361.70498657227</ele>
        <time>2010-10-20T12:59:39Z</time>
      </trkpt>
      <trkpt lat="45.26488" lon="5.08939">
        <ele>360.56399536133</ele>
        <time>2010-10-20T12:59:49Z</time>
      </trkpt>
      <trkpt lat="45.26494" lon="5.08844">
        <ele>359.72900390625</ele>
        <time>2010-10-20T12:59:57Z</time>
      </trkpt>
      <trkpt lat="45.26503" lon="5.08688">
        <ele>358.14001464844</ele>
        <time>2010-10-20T13:00:10Z</time>
      </trkpt>
      <trkpt lat="45.26502" lon="5.08602">
        <ele>357.01400756836</ele>
        <time>2010-10-20T13:00:17Z</time>
      </trkpt>
      <trkpt lat="45.26493" lon="5.08477">
        <ele>356.37200927734</ele>
        <time>2010-10-20T13:00:27Z</time>
      </trkpt>
      <trkpt lat="45.26487" lon="5.08381">
        <ele>355.71899414062</ele>
        <time>2010-10-20T13:00:35Z</time>
      </trkpt>
      <trkpt lat="45.2648" lon="5.08285">
        <ele>354.94400024414</ele>
        <time>2010-10-20T13:00:43Z</time>
      </trkpt>
      <trkpt lat="45.26473" lon="5.08161">
        <ele>353.28601074219</ele>
        <time>2010-10-20T13:00:53Z</time>
      </trkpt>
      <trkpt lat="45.26474" lon="5.08074">
        <ele>352.92498779297</ele>
        <time>2010-10-20T13:01:00Z</time>
      </trkpt>
      <trkpt lat="45.26484" lon="5.08005">
        <ele>352.22100830078</ele>
        <time>2010-10-20T13:01:06Z</time>
      </trkpt>
      <trkpt lat="45.26498" lon="5.07917">
        <ele>352.12100219727</ele>
        <time>2010-10-20T13:01:14Z</time>
      </trkpt>
      <trkpt lat="45.26516" lon="5.07807">
        <ele>351.9049987793</ele>
        <time>2010-10-20T13:01:24Z</time>
      </trkpt>
      <trkpt lat="45.26532" lon="5.0771">
        <ele>352.5830078125</ele>
        <time>2010-10-20T13:01:33Z</time>
      </trkpt>
      <trkpt lat="45.26546" lon="5.07618">
        <ele>352.33700561523</ele>
        <time>2010-10-20T13:01:42Z</time>
      </trkpt>
      <trkpt lat="45.26547" lon="5.07553">
        <ele>352.56399536133</ele>
        <time>2010-10-20T13:01:48Z</time>
      </trkpt>
      <trkpt lat="45.26544" lon="5.07443">
        <ele>350.17498779297</ele>
        <time>2010-10-20T13:01:57Z</time>
      </trkpt>
      <trkpt lat="45.2654" lon="5.07325">
        <ele>347.36401367188</ele>
        <time>2010-10-20T13:02:06Z</time>
      </trkpt>
      <trkpt lat="45.26538" lon="5.07286">
        <ele>346.07299804688</ele>
        <time>2010-10-20T13:02:09Z</time>
      </trkpt>
      <trkpt lat="45.26536" lon="5.07204">
        <ele>344.36801147461</ele>
        <time>2010-10-20T13:02:15Z</time>
      </trkpt>
      <trkpt lat="45.26533" lon="5.07093">
        <ele>342.62600708008</ele>
        <time>2010-10-20T13:02:23Z</time>
      </trkpt>
      <trkpt lat="45.26529" lon="5.06981">
        <ele>340.77301025391</ele>
        <time>2010-10-20T13:02:31Z</time>
      </trkpt>
      <trkpt lat="45.26526" lon="5.06854">
        <ele>338.61898803711</ele>
        <time>2010-10-20T13:02:40Z</time>
      </trkpt>
      <trkpt lat="45.26526" lon="5.06747">
        <ele>338.27301025391</ele>
        <time>2010-10-20T13:02:48Z</time>
      </trkpt>
      <trkpt lat="45.26522" lon="5.06681">
        <ele>339.25698852539</ele>
        <time>2010-10-20T13:02:54Z</time>
      </trkpt>
      <trkpt lat="45.26521" lon="5.06637">
        <ele>339.51998901367</ele>
        <time>2010-10-20T13:02:59Z</time>
      </trkpt>
      <trkpt lat="45.26522" lon="5.06605">
        <ele>340.67199707031</ele>
        <time>2010-10-20T13:03:03Z</time>
      </trkpt>
      <trkpt lat="45.26526" lon="5.06547">
        <ele>341.25100708008</ele>
        <time>2010-10-20T13:03:10Z</time>
      </trkpt>
      <trkpt lat="45.26535" lon="5.06486">
        <ele>342.14700317383</ele>
        <time>2010-10-20T13:03:17Z</time>
      </trkpt>
      <trkpt lat="45.26548" lon="5.06415">
        <ele>341.53601074219</ele>
        <time>2010-10-20T13:03:25Z</time>
      </trkpt>
      <trkpt lat="45.26564" lon="5.06355">
        <ele>342.36599731445</ele>
        <time>2010-10-20T13:03:32Z</time>
      </trkpt>
      <trkpt lat="45.26573" lon="5.06309">
        <ele>342.14599609375</ele>
        <time>2010-10-20T13:03:37Z</time>
      </trkpt>
      <trkpt lat="45.26574" lon="5.06246">
        <ele>340.85101318359</ele>
        <time>2010-10-20T13:03:43Z</time>
      </trkpt>
      <trkpt lat="45.26572" lon="5.06234">
        <ele>340.68701171875</ele>
        <time>2010-10-20T13:03:44Z</time>
      </trkpt>
      <trkpt lat="45.2656" lon="5.06188">
        <ele>338.99899291992</ele>
        <time>2010-10-20T13:03:48Z</time>
      </trkpt>
      <trkpt lat="45.26543" lon="5.0607">
        <ele>336.12899780273</ele>
        <time>2010-10-20T13:03:57Z</time>
      </trkpt>
      <trkpt lat="45.26527" lon="5.0596">
        <ele>333.96099853516</ele>
        <time>2010-10-20T13:04:05Z</time>
      </trkpt>
      <trkpt lat="45.26511" lon="5.0584">
        <ele>332.61700439453</ele>
        <time>2010-10-20T13:04:14Z</time>
      </trkpt>
      <trkpt lat="45.26497" lon="5.05737">
        <ele>332.47299194336</ele>
        <time>2010-10-20T13:04:22Z</time>
      </trkpt>
      <trkpt lat="45.26493" lon="5.05661">
        <ele>333.07699584961</ele>
        <time>2010-10-20T13:04:28Z</time>
      </trkpt>
      <trkpt lat="45.26493" lon="5.05564">
        <ele>332.84298706055</ele>
        <time>2010-10-20T13:04:36Z</time>
      </trkpt>
      <trkpt lat="45.26492" lon="5.05472">
        <ele>329.98999023438</ele>
        <time>2010-10-20T13:04:43Z</time>
      </trkpt>
      <trkpt lat="45.26481" lon="5.05389">
        <ele>328.26998901367</ele>
        <time>2010-10-20T13:04:49Z</time>
      </trkpt>
      <trkpt lat="45.26456" lon="5.05223">
        <ele>326.62701416016</ele>
        <time>2010-10-20T13:05:01Z</time>
      </trkpt>
      <trkpt lat="45.26438" lon="5.05103">
        <ele>325.20199584961</ele>
        <time>2010-10-20T13:05:10Z</time>
      </trkpt>
      <trkpt lat="45.26419" lon="5.05003">
        <ele>325.10699462891</ele>
        <time>2010-10-20T13:05:18Z</time>
      </trkpt>
      <trkpt lat="45.26395" lon="5.04906">
        <ele>323.89300537109</ele>
        <time>2010-10-20T13:05:26Z</time>
      </trkpt>
      <trkpt lat="45.26374" lon="5.04824">
        <ele>321.2080078125</ele>
        <time>2010-10-20T13:05:32Z</time>
      </trkpt>
      <trkpt lat="45.2635" lon="5.0471">
        <ele>318.7619934082</ele>
        <time>2010-10-20T13:05:40Z</time>
      </trkpt>
      <trkpt lat="45.26324" lon="5.04571">
        <ele>319.46600341797</ele>
        <time>2010-10-20T13:05:50Z</time>
      </trkpt>
      <trkpt lat="45.263" lon="5.04477">
        <ele>319.71499633789</ele>
        <time>2010-10-20T13:05:57Z</time>
      </trkpt>
      <trkpt lat="45.26277" lon="5.04394">
        <ele>318.48400878906</ele>
        <time>2010-10-20T13:06:03Z</time>
      </trkpt>
      <trkpt lat="45.26256" lon="5.04295">
        <ele>317.86199951172</ele>
        <time>2010-10-20T13:06:10Z</time>
      </trkpt>
      <trkpt lat="45.26237" lon="5.04214">
        <ele>317.68200683594</ele>
        <time>2010-10-20T13:06:16Z</time>
      </trkpt>
      <trkpt lat="45.26221" lon="5.04147">
        <ele>316.41198730469</ele>
        <time>2010-10-20T13:06:21Z</time>
      </trkpt>
      <trkpt lat="45.26194" lon="5.04041">
        <ele>314.91101074219</ele>
        <time>2010-10-20T13:06:29Z</time>
      </trkpt>
      <trkpt lat="45.26164" lon="5.03967">
        <ele>313.60598754883</ele>
        <time>2010-10-20T13:06:35Z</time>
      </trkpt>
      <trkpt lat="45.26147" lon="5.03897">
        <ele>312.57501220703</ele>
        <time>2010-10-20T13:06:40Z</time>
      </trkpt>
      <trkpt lat="45.2612" lon="5.03784">
        <ele>311.44799804688</ele>
        <time>2010-10-20T13:06:48Z</time>
      </trkpt>
      <trkpt lat="45.2608" lon="5.0367">
        <ele>311.5710144043</ele>
        <time>2010-10-20T13:06:57Z</time>
      </trkpt>
      <trkpt lat="45.26051" lon="5.03585">
        <ele>309.83200073242</ele>
        <time>2010-10-20T13:07:04Z</time>
      </trkpt>
      <trkpt lat="45.26025" lon="5.03511">
        <ele>310.17599487305</ele>
        <time>2010-10-20T13:07:10Z</time>
      </trkpt>
      <trkpt lat="45.26008" lon="5.03462">
        <ele>308.68701171875</ele>
        <time>2010-10-20T13:07:14Z</time>
      </trkpt>
      <trkpt lat="45.25974" lon="5.03366">
        <ele>307.60198974609</ele>
        <time>2010-10-20T13:07:22Z</time>
      </trkpt>
      <trkpt lat="45.25944" lon="5.03291">
        <ele>308.04400634766</ele>
        <time>2010-10-20T13:07:29Z</time>
      </trkpt>
      <trkpt lat="45.25916" lon="5.03225">
        <ele>309.28601074219</ele>
        <time>2010-10-20T13:07:36Z</time>
      </trkpt>
      <trkpt lat="45.25884" lon="5.03151">
        <ele>309.43499755859</ele>
        <time>2010-10-20T13:07:44Z</time>
      </trkpt>
      <trkpt lat="45.25858" lon="5.0309">
        <ele>309.77801513672</ele>
        <time>2010-10-20T13:07:51Z</time>
      </trkpt>
      <trkpt lat="45.25836" lon="5.03048">
        <ele>309.54501342773</ele>
        <time>2010-10-20T13:07:56Z</time>
      </trkpt>
      <trkpt lat="45.25808" lon="5.02996">
        <ele>308.60800170898</ele>
        <time>2010-10-20T13:08:02Z</time>
      </trkpt>
      <trkpt lat="45.25777" lon="5.02939">
        <ele>307.73498535156</ele>
        <time>2010-10-20T13:08:08Z</time>
      </trkpt>
      <trkpt lat="45.25737" lon="5.02865">
        <ele>308.31698608398</ele>
        <time>2010-10-20T13:08:16Z</time>
      </trkpt>
      <trkpt lat="45.25719" lon="5.0283">
        <ele>309.28900146484</ele>
        <time>2010-10-20T13:08:20Z</time>
      </trkpt>
      <trkpt lat="45.25721" lon="5.02802">
        <ele>311.62899780273</ele>
        <time>2010-10-20T13:08:24Z</time>
      </trkpt>
      <trkpt lat="45.25714" lon="5.02789">
        <ele>311.56298828125</ele>
        <time>2010-10-20T13:08:27Z</time>
      </trkpt>
      <trkpt lat="45.25708" lon="5.02801">
        <ele>310.96701049805</ele>
        <time>2010-10-20T13:08:29Z</time>
      </trkpt>
      <trkpt lat="45.25711" lon="5.02822">
        <ele>310.52398681641</ele>
        <time>2010-10-20T13:08:32Z</time>
      </trkpt>
      <trkpt lat="45.25713" lon="5.02828">
        <ele>310.64498901367</ele>
        <time>2010-10-20T13:08:33Z</time>
      </trkpt>
      <trkpt lat="45.25728" lon="5.02856">
        <ele>308.51300048828</ele>
        <time>2010-10-20T13:08:37Z</time>
      </trkpt>
      <trkpt lat="45.25759" lon="5.02912">
        <ele>307.69000244141</ele>
        <time>2010-10-20T13:08:44Z</time>
      </trkpt>
      <trkpt lat="45.25788" lon="5.02968">
        <ele>307.58999633789</ele>
        <time>2010-10-20T13:08:51Z</time>
      </trkpt>
      <trkpt lat="45.25799" lon="5.02987">
        <ele>307.74798583984</ele>
        <time>2010-10-20T13:08:54Z</time>
      </trkpt>
      <trkpt lat="45.25801" lon="5.03007">
        <ele>308.01699829102</ele>
        <time>2010-10-20T13:08:57Z</time>
      </trkpt>
      <trkpt lat="45.25791" lon="5.03015">
        <ele>307.59100341797</ele>
        <time>2010-10-20T13:08:59Z</time>
      </trkpt>
      <trkpt lat="45.25771" lon="5.03007">
        <ele>307.10000610352</ele>
        <time>2010-10-20T13:09:02Z</time>
      </trkpt>
      <trkpt lat="45.25735" lon="5.0298">
        <ele>304.48300170898</ele>
        <time>2010-10-20T13:09:07Z</time>
      </trkpt>
      <trkpt lat="45.25711" lon="5.02963">
        <ele>303.07598876953</ele>
        <time>2010-10-20T13:09:10Z</time>
      </trkpt>
      <trkpt lat="45.25678" lon="5.02937">
        <ele>301.70001220703</ele>
        <time>2010-10-20T13:09:14Z</time>
      </trkpt>
      <trkpt lat="45.25627" lon="5.02903">
        <ele>300.21200561523</ele>
        <time>2010-10-20T13:09:20Z</time>
      </trkpt>
      <trkpt lat="45.25603" lon="5.02884">
        <ele>299.66299438477</ele>
        <time>2010-10-20T13:09:23Z</time>
      </trkpt>
      <trkpt lat="45.25587" lon="5.02874">
        <ele>299.37600708008</ele>
        <time>2010-10-20T13:09:25Z</time>
      </trkpt>
      <trkpt lat="45.25536" lon="5.02837">
        <ele>298.68301391602</ele>
        <time>2010-10-20T13:09:32Z</time>
      </trkpt>
      <trkpt lat="45.25511" lon="5.02799">
        <ele>298.72900390625</ele>
        <time>2010-10-20T13:09:37Z</time>
      </trkpt>
      <trkpt lat="45.25488" lon="5.02743">
        <ele>298.71600341797</ele>
        <time>2010-10-20T13:09:44Z</time>
      </trkpt>
      <trkpt lat="45.25469" lon="5.02704">
        <ele>298.33099365234</ele>
        <time>2010-10-20T13:09:49Z</time>
      </trkpt>
      <trkpt lat="45.25451" lon="5.02672">
        <ele>298.17999267578</ele>
        <time>2010-10-20T13:09:53Z</time>
      </trkpt>
      <trkpt lat="45.25433" lon="5.02615">
        <ele>298.43099975586</ele>
        <time>2010-10-20T13:09:59Z</time>
      </trkpt>
      <trkpt lat="45.25426" lon="5.02583">
        <ele>297.95700073242</ele>
        <time>2010-10-20T13:10:02Z</time>
      </trkpt>
      <trkpt lat="45.25424" lon="5.02538">
        <ele>297.88400268555</ele>
        <time>2010-10-20T13:10:06Z</time>
      </trkpt>
      <trkpt lat="45.25429" lon="5.02495">
        <ele>298.16198730469</ele>
        <time>2010-10-20T13:10:10Z</time>
      </trkpt>
      <trkpt lat="45.25435" lon="5.0247">
        <ele>298.88299560547</ele>
        <time>2010-10-20T13:10:13Z</time>
      </trkpt>
      <trkpt lat="45.25449" lon="5.02436">
        <ele>299.73999023438</ele>
        <time>2010-10-20T13:10:18Z</time>
      </trkpt>
      <trkpt lat="45.25459" lon="5.02427">
        <ele>299.54901123047</ele>
        <time>2010-10-20T13:10:20Z</time>
      </trkpt>
      <trkpt lat="45.25473" lon="5.02411">
        <ele>299.78100585938</ele>
        <time>2010-10-20T13:10:24Z</time>
      </trkpt>
      <trkpt lat="45.25466" lon="5.02403">
        <ele>300.10400390625</ele>
        <time>2010-10-20T13:10:26Z</time>
      </trkpt>
      <trkpt lat="45.25453" lon="5.02408">
        <ele>300.26599121094</ele>
        <time>2010-10-20T13:10:29Z</time>
      </trkpt>
      <trkpt lat="45.25454" lon="5.02428">
        <ele>300.09100341797</ele>
        <time>2010-10-20T13:10:32Z</time>
      </trkpt>
      <trkpt lat="45.2546" lon="5.02434">
        <ele>300.19000244141</ele>
        <time>2010-10-20T13:10:34Z</time>
      </trkpt>
      <trkpt lat="45.25467" lon="5.02436">
        <ele>300.10101318359</ele>
        <time>2010-10-20T13:10:36Z</time>
      </trkpt>
      <trkpt lat="45.25478" lon="5.02424">
        <ele>300.11499023438</ele>
        <time>2010-10-20T13:10:40Z</time>
      </trkpt>
      <trkpt lat="45.25483" lon="5.02425">
        <ele>300.35299682617</ele>
        <time>2010-10-20T13:10:43Z</time>
      </trkpt>
      <trkpt lat="45.25485" lon="5.02427">
        <ele>300.37298583984</ele>
        <time>2010-10-20T13:10:47Z</time>
      </trkpt>
      <trkpt lat="45.25487" lon="5.02427">
        <ele>300.42700195312</ele>
        <time>2010-10-20T13:10:49Z</time>
      </trkpt>
      <trkpt lat="45.25488" lon="5.02427">
        <ele>300.34899902344</ele>
        <time>2010-10-20T13:10:53Z</time>
      </trkpt>
      <trkpt lat="45.25502" lon="5.02432">
        <ele>300.25</ele>
        <time>2010-10-20T13:11:14Z</time>
      </trkpt>
      <trkpt lat="45.25507" lon="5.02434">
        <ele>299.9049987793</ele>
        <time>2010-10-20T13:11:24Z</time>
      </trkpt>
      <trkpt lat="45.25478" lon="5.02429">
        <ele>299.35998535156</ele>
        <time>2010-10-20T13:13:27Z</time>
      </trkpt>
      <trkpt lat="45.2548" lon="5.02443">
        <ele>299.26000976562</ele>
        <time>2010-10-20T13:13:31Z</time>
      </trkpt>
      <trkpt lat="45.25474" lon="5.02448">
        <ele>298.88400268555</ele>
        <time>2010-10-20T13:13:34Z</time>
      </trkpt>
      <trkpt lat="45.25474" lon="5.02435">
        <ele>299.24099731445</ele>
        <time>2010-10-20T13:13:37Z</time>
      </trkpt>
      <trkpt lat="45.25477" lon="5.0242">
        <ele>299.64001464844</ele>
        <time>2010-10-20T13:13:40Z</time>
      </trkpt>
      <trkpt lat="45.25468" lon="5.02403">
        <ele>299.88500976562</ele>
        <time>2010-10-20T13:13:44Z</time>
      </trkpt>
      <trkpt lat="45.25453" lon="5.02402">
        <ele>299.81201171875</ele>
        <time>2010-10-20T13:13:48Z</time>
      </trkpt>
      <trkpt lat="45.25447" lon="5.02389">
        <ele>299.65899658203</ele>
        <time>2010-10-20T13:13:51Z</time>
      </trkpt>
      <trkpt lat="45.25423" lon="5.0235">
        <ele>301.82800292969</ele>
        <time>2010-10-20T13:13:58Z</time>
      </trkpt>
      <trkpt lat="45.25409" lon="5.02323">
        <ele>301.64001464844</ele>
        <time>2010-10-20T13:14:03Z</time>
      </trkpt>
      <trkpt lat="45.25383" lon="5.02278">
        <ele>300.42599487305</ele>
        <time>2010-10-20T13:14:10Z</time>
      </trkpt>
      <trkpt lat="45.25359" lon="5.02232">
        <ele>299.7919921875</ele>
        <time>2010-10-20T13:14:16Z</time>
      </trkpt>
      <trkpt lat="45.25337" lon="5.02188">
        <ele>297.70901489258</ele>
        <time>2010-10-20T13:14:21Z</time>
      </trkpt>
      <trkpt lat="45.25313" lon="5.02138">
        <ele>296.29699707031</ele>
        <time>2010-10-20T13:14:26Z</time>
      </trkpt>
      <trkpt lat="45.25289" lon="5.02085">
        <ele>298.18499755859</ele>
        <time>2010-10-20T13:14:31Z</time>
      </trkpt>
      <trkpt lat="45.25269" lon="5.02031">
        <ele>298.0530090332</ele>
        <time>2010-10-20T13:14:36Z</time>
      </trkpt>
      <trkpt lat="45.2524" lon="5.01948">
        <ele>298.47601318359</ele>
        <time>2010-10-20T13:14:44Z</time>
      </trkpt>
      <trkpt lat="45.25213" lon="5.01865">
        <ele>298.70599365234</ele>
        <time>2010-10-20T13:14:52Z</time>
      </trkpt>
      <trkpt lat="45.25202" lon="5.01799">
        <ele>298.57501220703</ele>
        <time>2010-10-20T13:14:58Z</time>
      </trkpt>
      <trkpt lat="45.2519" lon="5.01725">
        <ele>297.08999633789</ele>
        <time>2010-10-20T13:15:04Z</time>
      </trkpt>
      <trkpt lat="45.25172" lon="5.01638">
        <ele>295.89801025391</ele>
        <time>2010-10-20T13:15:11Z</time>
      </trkpt>
      <trkpt lat="45.25147" lon="5.01531">
        <ele>295.40798950195</ele>
        <time>2010-10-20T13:15:20Z</time>
      </trkpt>
      <trkpt lat="45.25122" lon="5.01417">
        <ele>294.09100341797</ele>
        <time>2010-10-20T13:15:29Z</time>
      </trkpt>
      <trkpt lat="45.25102" lon="5.01323">
        <ele>292.29299926758</ele>
        <time>2010-10-20T13:15:36Z</time>
      </trkpt>
      <trkpt lat="45.2508" lon="5.01223">
        <ele>292.1549987793</ele>
        <time>2010-10-20T13:15:44Z</time>
      </trkpt>
      <trkpt lat="45.25061" lon="5.01126">
        <ele>292.72299194336</ele>
        <time>2010-10-20T13:15:52Z</time>
      </trkpt>
      <trkpt lat="45.25045" lon="5.01055">
        <ele>291.42498779297</ele>
        <time>2010-10-20T13:15:58Z</time>
      </trkpt>
      <trkpt lat="45.25018" lon="5.00942">
        <ele>289.33599853516</ele>
        <time>2010-10-20T13:16:07Z</time>
      </trkpt>
      <trkpt lat="45.24992" lon="5.00824">
        <ele>289.27099609375</ele>
        <time>2010-10-20T13:16:16Z</time>
      </trkpt>
      <trkpt lat="45.24963" lon="5.00695">
        <ele>286.73699951172</ele>
        <time>2010-10-20T13:16:26Z</time>
      </trkpt>
      <trkpt lat="45.24937" lon="5.00584">
        <ele>285.49200439453</ele>
        <time>2010-10-20T13:16:35Z</time>
      </trkpt>
      <trkpt lat="45.24907" lon="5.00466">
        <ele>286.23901367188</ele>
        <time>2010-10-20T13:16:45Z</time>
      </trkpt>
      <trkpt lat="45.2488" lon="5.00368">
        <ele>286.0299987793</ele>
        <time>2010-10-20T13:16:54Z</time>
      </trkpt>
      <trkpt lat="45.24855" lon="5.00276">
        <ele>287.11801147461</ele>
        <time>2010-10-20T13:17:03Z</time>
      </trkpt>
      <trkpt lat="45.24836" lon="5.00203">
        <ele>286.26599121094</ele>
        <time>2010-10-20T13:17:10Z</time>
      </trkpt>
      <trkpt lat="45.24824" lon="5.00157">
        <ele>284.66598510742</ele>
        <time>2010-10-20T13:17:14Z</time>
      </trkpt>
      <trkpt lat="45.24797" lon="5.00063">
        <ele>282.85900878906</ele>
        <time>2010-10-20T13:17:22Z</time>
      </trkpt>
      <trkpt lat="45.24772" lon="4.99995">
        <ele>281.36801147461</ele>
        <time>2010-10-20T13:17:28Z</time>
      </trkpt>
      <trkpt lat="45.24767" lon="4.99985">
        <ele>281.14599609375</ele>
        <time>2010-10-20T13:17:29Z</time>
      </trkpt>
      <trkpt lat="45.24733" lon="4.99908">
        <ele>280.83200073242</ele>
        <time>2010-10-20T13:17:36Z</time>
      </trkpt>
      <trkpt lat="45.24686" lon="4.99797">
        <ele>280.68200683594</ele>
        <time>2010-10-20T13:17:46Z</time>
      </trkpt>
      <trkpt lat="45.24669" lon="4.9974">
        <ele>280.03201293945</ele>
        <time>2010-10-20T13:17:51Z</time>
      </trkpt>
      <trkpt lat="45.24665" lon="4.99718">
        <ele>280.86700439453</ele>
        <time>2010-10-20T13:17:53Z</time>
      </trkpt>
      <trkpt lat="45.24652" lon="4.99655">
        <ele>280.69400024414</ele>
        <time>2010-10-20T13:17:59Z</time>
      </trkpt>
      <trkpt lat="45.24639" lon="4.99591">
        <ele>281.04000854492</ele>
        <time>2010-10-20T13:18:05Z</time>
      </trkpt>
      <trkpt lat="45.24637" lon="4.99581">
        <ele>280.79598999023</ele>
        <time>2010-10-20T13:18:06Z</time>
      </trkpt>
      <trkpt lat="45.24623" lon="4.99538">
        <ele>279.24099731445</ele>
        <time>2010-10-20T13:18:11Z</time>
      </trkpt>
      <trkpt lat="45.24605" lon="4.99492">
        <ele>278.93099975586</ele>
        <time>2010-10-20T13:18:16Z</time>
      </trkpt>
      <trkpt lat="45.24575" lon="4.99419">
        <ele>277.75399780273</ele>
        <time>2010-10-20T13:18:23Z</time>
      </trkpt>
      <trkpt lat="45.24545" lon="4.99328">
        <ele>277.86499023438</ele>
        <time>2010-10-20T13:18:31Z</time>
      </trkpt>
      <trkpt lat="45.24505" lon="4.99195">
        <ele>276.15200805664</ele>
        <time>2010-10-20T13:18:42Z</time>
      </trkpt>
      <trkpt lat="45.24473" lon="4.99091">
        <ele>275.96200561523</ele>
        <time>2010-10-20T13:18:51Z</time>
      </trkpt>
      <trkpt lat="45.24438" lon="4.98997">
        <ele>274.95901489258</ele>
        <time>2010-10-20T13:18:59Z</time>
      </trkpt>
      <trkpt lat="45.24427" lon="4.98959">
        <ele>273.69900512695</ele>
        <time>2010-10-20T13:19:02Z</time>
      </trkpt>
      <trkpt lat="45.244" lon="4.98874">
        <ele>273.99798583984</ele>
        <time>2010-10-20T13:19:09Z</time>
      </trkpt>
      <trkpt lat="45.24363" lon="4.98762">
        <ele>273.07699584961</ele>
        <time>2010-10-20T13:19:18Z</time>
      </trkpt>
      <trkpt lat="45.24322" lon="4.98636">
        <ele>270.96200561523</ele>
        <time>2010-10-20T13:19:28Z</time>
      </trkpt>
      <trkpt lat="45.24304" lon="4.9856">
        <ele>270.22698974609</ele>
        <time>2010-10-20T13:19:34Z</time>
      </trkpt>
      <trkpt lat="45.24283" lon="4.98458">
        <ele>269.90200805664</ele>
        <time>2010-10-20T13:19:42Z</time>
      </trkpt>
      <trkpt lat="45.24262" lon="4.98352">
        <ele>268.55999755859</ele>
        <time>2010-10-20T13:19:50Z</time>
      </trkpt>
      <trkpt lat="45.24243" lon="4.98247">
        <ele>267.22500610352</ele>
        <time>2010-10-20T13:19:58Z</time>
      </trkpt>
      <trkpt lat="45.2423" lon="4.98135">
        <ele>266.8219909668</ele>
        <time>2010-10-20T13:20:07Z</time>
      </trkpt>
      <trkpt lat="45.24215" lon="4.98065">
        <ele>266.14199829102</ele>
        <time>2010-10-20T13:20:13Z</time>
      </trkpt>
      <trkpt lat="45.24184" lon="4.97973">
        <ele>265.45700073242</ele>
        <time>2010-10-20T13:20:21Z</time>
      </trkpt>
      <trkpt lat="45.24142" lon="4.97881">
        <ele>265.02899169922</ele>
        <time>2010-10-20T13:20:29Z</time>
      </trkpt>
      <trkpt lat="45.24115" lon="4.97823">
        <ele>262.5719909668</ele>
        <time>2010-10-20T13:20:34Z</time>
      </trkpt>
      <trkpt lat="45.24075" lon="4.97749">
        <ele>262.81799316406</ele>
        <time>2010-10-20T13:20:41Z</time>
      </trkpt>
      <trkpt lat="45.24027" lon="4.97672">
        <ele>262.14898681641</ele>
        <time>2010-10-20T13:20:49Z</time>
      </trkpt>
      <trkpt lat="45.23981" lon="4.97601">
        <ele>261.08898925781</ele>
        <time>2010-10-20T13:20:56Z</time>
      </trkpt>
      <trkpt lat="45.23924" lon="4.97509">
        <ele>259.89001464844</ele>
        <time>2010-10-20T13:21:05Z</time>
      </trkpt>
      <trkpt lat="45.23874" lon="4.97429">
        <ele>259.35400390625</ele>
        <time>2010-10-20T13:21:13Z</time>
      </trkpt>
      <trkpt lat="45.23824" lon="4.97348">
        <ele>257.21499633789</ele>
        <time>2010-10-20T13:21:21Z</time>
      </trkpt>
      <trkpt lat="45.2378" lon="4.97278">
        <ele>257.35501098633</ele>
        <time>2010-10-20T13:21:28Z</time>
      </trkpt>
      <trkpt lat="45.23744" lon="4.97221">
        <ele>257.82901000977</ele>
        <time>2010-10-20T13:21:34Z</time>
      </trkpt>
      <trkpt lat="45.23704" lon="4.97157">
        <ele>258.02301025391</ele>
        <time>2010-10-20T13:21:41Z</time>
      </trkpt>
      <trkpt lat="45.23647" lon="4.97066">
        <ele>256.62298583984</ele>
        <time>2010-10-20T13:21:50Z</time>
      </trkpt>
      <trkpt lat="45.23607" lon="4.9699">
        <ele>255.70899963379</ele>
        <time>2010-10-20T13:21:57Z</time>
      </trkpt>
      <trkpt lat="45.2358" lon="4.96917">
        <ele>254.93099975586</ele>
        <time>2010-10-20T13:22:03Z</time>
      </trkpt>
      <trkpt lat="45.2355" lon="4.96826">
        <ele>253.80200195312</ele>
        <time>2010-10-20T13:22:10Z</time>
      </trkpt>
      <trkpt lat="45.23518" lon="4.96724">
        <ele>254.18800354004</ele>
        <time>2010-10-20T13:22:18Z</time>
      </trkpt>
      <trkpt lat="45.23492" lon="4.96643">
        <ele>255.94999694824</ele>
        <time>2010-10-20T13:22:25Z</time>
      </trkpt>
      <trkpt lat="45.23489" lon="4.96632">
        <ele>256.17599487305</ele>
        <time>2010-10-20T13:22:26Z</time>
      </trkpt>
      <trkpt lat="45.23465" lon="4.96561">
        <ele>256.71301269531</ele>
        <time>2010-10-20T13:22:33Z</time>
      </trkpt>
      <trkpt lat="45.23445" lon="4.9649">
        <ele>257.02099609375</ele>
        <time>2010-10-20T13:22:40Z</time>
      </trkpt>
      <trkpt lat="45.23422" lon="4.96411">
        <ele>255.30999755859</ele>
        <time>2010-10-20T13:22:47Z</time>
      </trkpt>
      <trkpt lat="45.23397" lon="4.96325">
        <ele>253.39300537109</ele>
        <time>2010-10-20T13:22:54Z</time>
      </trkpt>
      <trkpt lat="45.23373" lon="4.96239">
        <ele>252.83200073242</ele>
        <time>2010-10-20T13:23:01Z</time>
      </trkpt>
      <trkpt lat="45.23337" lon="4.96116">
        <ele>252.4109954834</ele>
        <time>2010-10-20T13:23:11Z</time>
      </trkpt>
      <trkpt lat="45.23311" lon="4.9605">
        <ele>252.3450012207</ele>
        <time>2010-10-20T13:23:17Z</time>
      </trkpt>
      <trkpt lat="45.233" lon="4.96032">
        <ele>253.12600708008</ele>
        <time>2010-10-20T13:23:19Z</time>
      </trkpt>
      <trkpt lat="45.23262" lon="4.95989">
        <ele>254.03999328613</ele>
        <time>2010-10-20T13:23:25Z</time>
      </trkpt>
      <trkpt lat="45.23219" lon="4.95941">
        <ele>254.57699584961</ele>
        <time>2010-10-20T13:23:32Z</time>
      </trkpt>
      <trkpt lat="45.2318" lon="4.9589">
        <ele>252.2859954834</ele>
        <time>2010-10-20T13:23:38Z</time>
      </trkpt>
      <trkpt lat="45.23146" lon="4.95832">
        <ele>250.20700073242</ele>
        <time>2010-10-20T13:23:44Z</time>
      </trkpt>
      <trkpt lat="45.23135" lon="4.95815">
        <ele>250.69099426269</ele>
        <time>2010-10-20T13:23:46Z</time>
      </trkpt>
      <trkpt lat="45.2309" lon="4.95738">
        <ele>252.84199523926</ele>
        <time>2010-10-20T13:23:55Z</time>
      </trkpt>
      <trkpt lat="45.23067" lon="4.957">
        <ele>253.42700195312</ele>
        <time>2010-10-20T13:24:00Z</time>
      </trkpt>
      <trkpt lat="45.23056" lon="4.95679">
        <ele>254.28900146484</ele>
        <time>2010-10-20T13:24:03Z</time>
      </trkpt>
      <trkpt lat="45.23022" lon="4.95643">
        <ele>253.91700744629</ele>
        <time>2010-10-20T13:24:09Z</time>
      </trkpt>
      <trkpt lat="45.22979" lon="4.95598">
        <ele>251.70500183106</ele>
        <time>2010-10-20T13:24:15Z</time>
      </trkpt>
      <trkpt lat="45.22947" lon="4.95569">
        <ele>250.36199951172</ele>
        <time>2010-10-20T13:24:19Z</time>
      </trkpt>
      <trkpt lat="45.22909" lon="4.95531">
        <ele>250.89999389648</ele>
        <time>2010-10-20T13:24:24Z</time>
      </trkpt>
      <trkpt lat="45.2285" lon="4.95473">
        <ele>251.54899597168</ele>
        <time>2010-10-20T13:24:32Z</time>
      </trkpt>
      <trkpt lat="45.22796" lon="4.95421">
        <ele>250.08599853516</ele>
        <time>2010-10-20T13:24:39Z</time>
      </trkpt>
      <trkpt lat="45.22772" lon="4.95397">
        <ele>248.85000610352</ele>
        <time>2010-10-20T13:24:42Z</time>
      </trkpt>
      <trkpt lat="45.22705" lon="4.95339">
        <ele>247.69400024414</ele>
        <time>2010-10-20T13:24:50Z</time>
      </trkpt>
      <trkpt lat="45.22689" lon="4.95328">
        <ele>248.01300048828</ele>
        <time>2010-10-20T13:24:52Z</time>
      </trkpt>
      <trkpt lat="45.22657" lon="4.95321">
        <ele>248.43800354004</ele>
        <time>2010-10-20T13:24:56Z</time>
      </trkpt>
      <trkpt lat="45.2263" lon="4.95305">
        <ele>248.53100585938</ele>
        <time>2010-10-20T13:25:00Z</time>
      </trkpt>
      <trkpt lat="45.22609" lon="4.95276">
        <ele>249.11799621582</ele>
        <time>2010-10-20T13:25:04Z</time>
      </trkpt>
      <trkpt lat="45.22603" lon="4.95271">
        <ele>249.22399902344</ele>
        <time>2010-10-20T13:25:05Z</time>
      </trkpt>
      <trkpt lat="45.22562" lon="4.95231">
        <ele>247.90199279785</ele>
        <time>2010-10-20T13:25:11Z</time>
      </trkpt>
      <trkpt lat="45.22517" lon="4.95183">
        <ele>245.07299804688</ele>
        <time>2010-10-20T13:25:17Z</time>
      </trkpt>
      <trkpt lat="45.22454" lon="4.95117">
        <ele>243.39599609375</ele>
        <time>2010-10-20T13:25:25Z</time>
      </trkpt>
      <trkpt lat="45.22379" lon="4.95029">
        <ele>242.85299682617</ele>
        <time>2010-10-20T13:25:35Z</time>
      </trkpt>
      <trkpt lat="45.22333" lon="4.94977">
        <ele>244.7619934082</ele>
        <time>2010-10-20T13:25:42Z</time>
      </trkpt>
      <trkpt lat="45.22284" lon="4.94927">
        <ele>243.54899597168</ele>
        <time>2010-10-20T13:25:49Z</time>
      </trkpt>
      <trkpt lat="45.22241" lon="4.94875">
        <ele>241.89700317383</ele>
        <time>2010-10-20T13:25:55Z</time>
      </trkpt>
      <trkpt lat="45.22198" lon="4.9482">
        <ele>240.45500183106</ele>
        <time>2010-10-20T13:26:01Z</time>
      </trkpt>
      <trkpt lat="45.22149" lon="4.94757">
        <ele>240.70199584961</ele>
        <time>2010-10-20T13:26:08Z</time>
      </trkpt>
      <trkpt lat="45.22089" lon="4.94679">
        <ele>240.65400695801</ele>
        <time>2010-10-20T13:26:17Z</time>
      </trkpt>
      <trkpt lat="45.22043" lon="4.94618">
        <ele>241.02099609375</ele>
        <time>2010-10-20T13:26:24Z</time>
      </trkpt>
      <trkpt lat="45.21992" lon="4.94542">
        <ele>240.90899658203</ele>
        <time>2010-10-20T13:26:32Z</time>
      </trkpt>
      <trkpt lat="45.21936" lon="4.94451">
        <ele>239.10800170898</ele>
        <time>2010-10-20T13:26:41Z</time>
      </trkpt>
      <trkpt lat="45.21899" lon="4.9438">
        <ele>237.74099731445</ele>
        <time>2010-10-20T13:26:48Z</time>
      </trkpt>
      <trkpt lat="45.21864" lon="4.94314">
        <ele>236.24200439453</ele>
        <time>2010-10-20T13:26:55Z</time>
      </trkpt>
      <trkpt lat="45.21829" lon="4.9426">
        <ele>235.80200195312</ele>
        <time>2010-10-20T13:27:01Z</time>
      </trkpt>
      <trkpt lat="45.21787" lon="4.94204">
        <ele>237.06799316406</ele>
        <time>2010-10-20T13:27:08Z</time>
      </trkpt>
      <trkpt lat="45.2175" lon="4.94158">
        <ele>237.13999938965</ele>
        <time>2010-10-20T13:27:14Z</time>
      </trkpt>
      <trkpt lat="45.21709" lon="4.94101">
        <ele>237.00700378418</ele>
        <time>2010-10-20T13:27:21Z</time>
      </trkpt>
      <trkpt lat="45.21696" lon="4.94083">
        <ele>235.79699707031</ele>
        <time>2010-10-20T13:27:23Z</time>
      </trkpt>
      <trkpt lat="45.21659" lon="4.94027">
        <ele>233.32299804688</ele>
        <time>2010-10-20T13:27:29Z</time>
      </trkpt>
      <trkpt lat="45.21626" lon="4.93975">
        <ele>232.10099792481</ele>
        <time>2010-10-20T13:27:34Z</time>
      </trkpt>
      <trkpt lat="45.21572" lon="4.93906">
        <ele>230.95300292969</ele>
        <time>2010-10-20T13:27:41Z</time>
      </trkpt>
      <trkpt lat="45.21556" lon="4.93887">
        <ele>230.36700439453</ele>
        <time>2010-10-20T13:27:43Z</time>
      </trkpt>
      <trkpt lat="45.21489" lon="4.93826">
        <ele>229.56300354004</ele>
        <time>2010-10-20T13:27:51Z</time>
      </trkpt>
      <trkpt lat="45.2142" lon="4.93772">
        <ele>228.94900512695</ele>
        <time>2010-10-20T13:27:59Z</time>
      </trkpt>
      <trkpt lat="45.21404" lon="4.93757">
        <ele>228.93800354004</ele>
        <time>2010-10-20T13:28:01Z</time>
      </trkpt>
      <trkpt lat="45.21375" lon="4.93709">
        <ele>228.33599853516</ele>
        <time>2010-10-20T13:28:06Z</time>
      </trkpt>
      <trkpt lat="45.21315" lon="4.93627">
        <ele>227.54600524902</ele>
        <time>2010-10-20T13:28:15Z</time>
      </trkpt>
      <trkpt lat="45.21278" lon="4.93573">
        <ele>227.67399597168</ele>
        <time>2010-10-20T13:28:21Z</time>
      </trkpt>
      <trkpt lat="45.21236" lon="4.93514">
        <ele>229.28399658203</ele>
        <time>2010-10-20T13:28:28Z</time>
      </trkpt>
      <trkpt lat="45.21183" lon="4.9344">
        <ele>228.69799804688</ele>
        <time>2010-10-20T13:28:37Z</time>
      </trkpt>
      <trkpt lat="45.21152" lon="4.93387">
        <ele>227.86700439453</ele>
        <time>2010-10-20T13:28:43Z</time>
      </trkpt>
      <trkpt lat="45.21139" lon="4.93368">
        <ele>227.03500366211</ele>
        <time>2010-10-20T13:28:45Z</time>
      </trkpt>
      <trkpt lat="45.21082" lon="4.93289">
        <ele>225.29600524902</ele>
        <time>2010-10-20T13:28:53Z</time>
      </trkpt>
      <trkpt lat="45.2103" lon="4.93217">
        <ele>224.06399536133</ele>
        <time>2010-10-20T13:29:00Z</time>
      </trkpt>
      <trkpt lat="45.20963" lon="4.93128">
        <ele>222.82699584961</ele>
        <time>2010-10-20T13:29:09Z</time>
      </trkpt>
      <trkpt lat="45.20926" lon="4.93067">
        <ele>223.07699584961</ele>
        <time>2010-10-20T13:29:15Z</time>
      </trkpt>
      <trkpt lat="45.20905" lon="4.93026">
        <ele>224.09100341797</ele>
        <time>2010-10-20T13:29:19Z</time>
      </trkpt>
      <trkpt lat="45.20898" lon="4.92994">
        <ele>224.52400207519</ele>
        <time>2010-10-20T13:29:22Z</time>
      </trkpt>
      <trkpt lat="45.20884" lon="4.92974">
        <ele>225.6549987793</ele>
        <time>2010-10-20T13:29:25Z</time>
      </trkpt>
      <trkpt lat="45.20861" lon="4.92948">
        <ele>225.12399291992</ele>
        <time>2010-10-20T13:29:29Z</time>
      </trkpt>
      <trkpt lat="45.20826" lon="4.92883">
        <ele>224.21699523926</ele>
        <time>2010-10-20T13:29:36Z</time>
      </trkpt>
      <trkpt lat="45.20786" lon="4.92808">
        <ele>221.70399475098</ele>
        <time>2010-10-20T13:29:43Z</time>
      </trkpt>
      <trkpt lat="45.20753" lon="4.9275">
        <ele>221.58799743652</ele>
        <time>2010-10-20T13:29:48Z</time>
      </trkpt>
      <trkpt lat="45.20721" lon="4.92691">
        <ele>219.64199829102</ele>
        <time>2010-10-20T13:29:53Z</time>
      </trkpt>
      <trkpt lat="45.20667" lon="4.92589">
        <ele>219.64599609375</ele>
        <time>2010-10-20T13:30:02Z</time>
      </trkpt>
      <trkpt lat="45.20621" lon="4.92505">
        <ele>219.8390045166</ele>
        <time>2010-10-20T13:30:10Z</time>
      </trkpt>
      <trkpt lat="45.20569" lon="4.92405">
        <ele>220.10000610352</ele>
        <time>2010-10-20T13:30:20Z</time>
      </trkpt>
      <trkpt lat="45.20522" lon="4.92319">
        <ele>219.77400207519</ele>
        <time>2010-10-20T13:30:29Z</time>
      </trkpt>
      <trkpt lat="45.2048" lon="4.9224">
        <ele>219.58500671387</ele>
        <time>2010-10-20T13:30:37Z</time>
      </trkpt>
      <trkpt lat="45.20422" lon="4.92132">
        <ele>217.43899536133</ele>
        <time>2010-10-20T13:30:47Z</time>
      </trkpt>
      <trkpt lat="45.20374" lon="4.92042">
        <ele>216.63000488281</ele>
        <time>2010-10-20T13:30:55Z</time>
      </trkpt>
      <trkpt lat="45.20333" lon="4.91965">
        <ele>215.72500610352</ele>
        <time>2010-10-20T13:31:02Z</time>
      </trkpt>
      <trkpt lat="45.20285" lon="4.91866">
        <ele>215.0950012207</ele>
        <time>2010-10-20T13:31:11Z</time>
      </trkpt>
      <trkpt lat="45.20239" lon="4.91771">
        <ele>214.60499572754</ele>
        <time>2010-10-20T13:31:20Z</time>
      </trkpt>
      <trkpt lat="45.20202" lon="4.91696">
        <ele>214.21899414062</ele>
        <time>2010-10-20T13:31:27Z</time>
      </trkpt>
      <trkpt lat="45.20158" lon="4.91607">
        <ele>212.14900207519</ele>
        <time>2010-10-20T13:31:35Z</time>
      </trkpt>
      <trkpt lat="45.2012" lon="4.91528">
        <ele>211.77900695801</ele>
        <time>2010-10-20T13:31:42Z</time>
      </trkpt>
      <trkpt lat="45.20073" lon="4.91435">
        <ele>209.92100524902</ele>
        <time>2010-10-20T13:31:50Z</time>
      </trkpt>
      <trkpt lat="45.20044" lon="4.91375">
        <ele>208.41499328613</ele>
        <time>2010-10-20T13:31:55Z</time>
      </trkpt>
      <trkpt lat="45.19988" lon="4.91261">
        <ele>208.10299682617</ele>
        <time>2010-10-20T13:32:05Z</time>
      </trkpt>
      <trkpt lat="45.19952" lon="4.91191">
        <ele>205.99000549316</ele>
        <time>2010-10-20T13:32:11Z</time>
      </trkpt>
      <trkpt lat="45.19915" lon="4.91116">
        <ele>203.76600646973</ele>
        <time>2010-10-20T13:32:17Z</time>
      </trkpt>
      <trkpt lat="45.19875" lon="4.91033">
        <ele>203.09199523926</ele>
        <time>2010-10-20T13:32:24Z</time>
      </trkpt>
      <trkpt lat="45.19837" lon="4.9095">
        <ele>202.54200744629</ele>
        <time>2010-10-20T13:32:31Z</time>
      </trkpt>
      <trkpt lat="45.1981" lon="4.90887">
        <ele>203.25900268555</ele>
        <time>2010-10-20T13:32:37Z</time>
      </trkpt>
      <trkpt lat="45.19785" lon="4.90823">
        <ele>202.09599304199</ele>
        <time>2010-10-20T13:32:43Z</time>
      </trkpt>
      <trkpt lat="45.19772" lon="4.90794">
        <ele>201.45500183106</ele>
        <time>2010-10-20T13:32:46Z</time>
      </trkpt>
      <trkpt lat="45.19766" lon="4.90785">
        <ele>201.33999633789</ele>
        <time>2010-10-20T13:32:47Z</time>
      </trkpt>
      <trkpt lat="45.19755" lon="4.90769">
        <ele>200.80200195312</ele>
        <time>2010-10-20T13:32:49Z</time>
      </trkpt>
      <trkpt lat="45.19719" lon="4.90728">
        <ele>199.94900512695</ele>
        <time>2010-10-20T13:32:55Z</time>
      </trkpt>
      <trkpt lat="45.19683" lon="4.90688">
        <ele>199.86999511719</ele>
        <time>2010-10-20T13:33:01Z</time>
      </trkpt>
      <trkpt lat="45.19677" lon="4.90682">
        <ele>200.05000305176</ele>
        <time>2010-10-20T13:33:02Z</time>
      </trkpt>
      <trkpt lat="45.19666" lon="4.90662">
        <ele>200.99499511719</ele>
        <time>2010-10-20T13:33:05Z</time>
      </trkpt>
      <trkpt lat="45.19648" lon="4.90644">
        <ele>200.91499328613</ele>
        <time>2010-10-20T13:33:09Z</time>
      </trkpt>
      <trkpt lat="45.19635" lon="4.90625">
        <ele>200.23599243164</ele>
        <time>2010-10-20T13:33:12Z</time>
      </trkpt>
      <trkpt lat="45.19629" lon="4.90609">
        <ele>200.42199707031</ele>
        <time>2010-10-20T13:33:14Z</time>
      </trkpt>
      <trkpt lat="45.19609" lon="4.90548">
        <ele>198.06799316406</ele>
        <time>2010-10-20T13:33:21Z</time>
      </trkpt>
      <trkpt lat="45.19592" lon="4.90487">
        <ele>199.54200744629</ele>
        <time>2010-10-20T13:33:27Z</time>
      </trkpt>
      <trkpt lat="45.19574" lon="4.90418">
        <ele>199.65199279785</ele>
        <time>2010-10-20T13:33:34Z</time>
      </trkpt>
      <trkpt lat="45.19559" lon="4.90356">
        <ele>200.69200134277</ele>
        <time>2010-10-20T13:33:41Z</time>
      </trkpt>
      <trkpt lat="45.1954" lon="4.90284">
        <ele>203.10299682617</ele>
        <time>2010-10-20T13:33:50Z</time>
      </trkpt>
      <trkpt lat="45.19526" lon="4.90233">
        <ele>204.50799560547</ele>
        <time>2010-10-20T13:33:57Z</time>
      </trkpt>
      <trkpt lat="45.19507" lon="4.90187">
        <ele>206.31399536133</ele>
        <time>2010-10-20T13:34:04Z</time>
      </trkpt>
      <trkpt lat="45.19485" lon="4.90145">
        <ele>207.49899291992</ele>
        <time>2010-10-20T13:34:10Z</time>
      </trkpt>
      <trkpt lat="45.19463" lon="4.90102">
        <ele>207.47300720215</ele>
        <time>2010-10-20T13:34:16Z</time>
      </trkpt>
      <trkpt lat="45.19434" lon="4.90046">
        <ele>206.1369934082</ele>
        <time>2010-10-20T13:34:23Z</time>
      </trkpt>
      <trkpt lat="45.19397" lon="4.89972">
        <ele>205.29100036621</ele>
        <time>2010-10-20T13:34:31Z</time>
      </trkpt>
      <trkpt lat="45.19357" lon="4.89893">
        <ele>204.49200439453</ele>
        <time>2010-10-20T13:34:39Z</time>
      </trkpt>
      <trkpt lat="45.19322" lon="4.89823">
        <ele>203.83500671387</ele>
        <time>2010-10-20T13:34:46Z</time>
      </trkpt>
      <trkpt lat="45.19287" lon="4.89751">
        <ele>202.69500732422</ele>
        <time>2010-10-20T13:34:53Z</time>
      </trkpt>
      <trkpt lat="45.1924" lon="4.89672">
        <ele>201.18899536133</ele>
        <time>2010-10-20T13:35:01Z</time>
      </trkpt>
      <trkpt lat="45.1919" lon="4.89607">
        <ele>199.50300598144</ele>
        <time>2010-10-20T13:35:08Z</time>
      </trkpt>
      <trkpt lat="45.19135" lon="4.89543">
        <ele>197.21600341797</ele>
        <time>2010-10-20T13:35:15Z</time>
      </trkpt>
      <trkpt lat="45.19121" lon="4.89523">
        <ele>196.92900085449</ele>
        <time>2010-10-20T13:35:17Z</time>
      </trkpt>
      <trkpt lat="45.19082" lon="4.8945">
        <ele>198.50799560547</ele>
        <time>2010-10-20T13:35:24Z</time>
      </trkpt>
      <trkpt lat="45.19046" lon="4.89384">
        <ele>197.72300720215</ele>
        <time>2010-10-20T13:35:31Z</time>
      </trkpt>
      <trkpt lat="45.19006" lon="4.89318">
        <ele>195.70799255371</ele>
        <time>2010-10-20T13:35:38Z</time>
      </trkpt>
      <trkpt lat="45.18959" lon="4.89275">
        <ele>194.19000244141</ele>
        <time>2010-10-20T13:35:44Z</time>
      </trkpt>
      <trkpt lat="45.18918" lon="4.89242">
        <ele>192.77499389648</ele>
        <time>2010-10-20T13:35:49Z</time>
      </trkpt>
      <trkpt lat="45.18872" lon="4.89197">
        <ele>192.70399475098</ele>
        <time>2010-10-20T13:35:55Z</time>
      </trkpt>
      <trkpt lat="45.18849" lon="4.89172">
        <ele>191.47200012207</ele>
        <time>2010-10-20T13:35:58Z</time>
      </trkpt>
      <trkpt lat="45.18801" lon="4.89125">
        <ele>192.04800415039</ele>
        <time>2010-10-20T13:36:04Z</time>
      </trkpt>
      <trkpt lat="45.18761" lon="4.891">
        <ele>193.65400695801</ele>
        <time>2010-10-20T13:36:09Z</time>
      </trkpt>
      <trkpt lat="45.18716" lon="4.89063">
        <ele>195.38999938965</ele>
        <time>2010-10-20T13:36:16Z</time>
      </trkpt>
      <trkpt lat="45.18673" lon="4.89021">
        <ele>194.61500549316</ele>
        <time>2010-10-20T13:36:23Z</time>
      </trkpt>
      <trkpt lat="45.18623" lon="4.88973">
        <ele>194.47799682617</ele>
        <time>2010-10-20T13:36:31Z</time>
      </trkpt>
      <trkpt lat="45.18589" lon="4.88932">
        <ele>194.05900573731</ele>
        <time>2010-10-20T13:36:37Z</time>
      </trkpt>
      <trkpt lat="45.18558" lon="4.88898">
        <ele>192.82000732422</ele>
        <time>2010-10-20T13:36:42Z</time>
      </trkpt>
      <trkpt lat="45.18521" lon="4.88865">
        <ele>191.21600341797</ele>
        <time>2010-10-20T13:36:47Z</time>
      </trkpt>
      <trkpt lat="45.18485" lon="4.88823">
        <ele>189.71299743652</ele>
        <time>2010-10-20T13:36:52Z</time>
      </trkpt>
      <trkpt lat="45.18472" lon="4.88804">
        <ele>188.89900207519</ele>
        <time>2010-10-20T13:36:54Z</time>
      </trkpt>
      <trkpt lat="45.18409" lon="4.88722">
        <ele>187.26699829102</ele>
        <time>2010-10-20T13:37:03Z</time>
      </trkpt>
      <trkpt lat="45.18362" lon="4.8865">
        <ele>185.38299560547</ele>
        <time>2010-10-20T13:37:10Z</time>
      </trkpt>
      <trkpt lat="45.18351" lon="4.88626">
        <ele>184.58200073242</ele>
        <time>2010-10-20T13:37:12Z</time>
      </trkpt>
      <trkpt lat="45.18322" lon="4.88557">
        <ele>185.19500732422</ele>
        <time>2010-10-20T13:37:18Z</time>
      </trkpt>
      <trkpt lat="45.18314" lon="4.885">
        <ele>185.52900695801</ele>
        <time>2010-10-20T13:37:23Z</time>
      </trkpt>
      <trkpt lat="45.18313" lon="4.88418">
        <ele>186.55299377441</ele>
        <time>2010-10-20T13:37:31Z</time>
      </trkpt>
      <trkpt lat="45.18312" lon="4.88357">
        <ele>187.22599792481</ele>
        <time>2010-10-20T13:37:38Z</time>
      </trkpt>
      <trkpt lat="45.18312" lon="4.8828">
        <ele>188.87800598144</ele>
        <time>2010-10-20T13:37:47Z</time>
      </trkpt>
      <trkpt lat="45.1831" lon="4.88225">
        <ele>188.78300476074</ele>
        <time>2010-10-20T13:37:55Z</time>
      </trkpt>
      <trkpt lat="45.18307" lon="4.88198">
        <ele>188.98399353027</ele>
        <time>2010-10-20T13:37:58Z</time>
      </trkpt>
      <trkpt lat="45.1831" lon="4.88125">
        <ele>188.66700744629</ele>
        <time>2010-10-20T13:38:06Z</time>
      </trkpt>
      <trkpt lat="45.18318" lon="4.88054">
        <ele>186.83500671387</ele>
        <time>2010-10-20T13:38:13Z</time>
      </trkpt>
      <trkpt lat="45.18335" lon="4.87985">
        <ele>185.97799682617</ele>
        <time>2010-10-20T13:38:20Z</time>
      </trkpt>
      <trkpt lat="45.18361" lon="4.87897">
        <ele>186.54499816894</ele>
        <time>2010-10-20T13:38:29Z</time>
      </trkpt>
      <trkpt lat="45.18374" lon="4.87836">
        <ele>184.93699645996</ele>
        <time>2010-10-20T13:38:35Z</time>
      </trkpt>
      <trkpt lat="45.1838" lon="4.87773">
        <ele>186.41499328613</ele>
        <time>2010-10-20T13:38:41Z</time>
      </trkpt>
      <trkpt lat="45.18377" lon="4.87695">
        <ele>184.85899353027</ele>
        <time>2010-10-20T13:38:48Z</time>
      </trkpt>
      <trkpt lat="45.18373" lon="4.87627">
        <ele>183.81900024414</ele>
        <time>2010-10-20T13:38:54Z</time>
      </trkpt>
      <trkpt lat="45.18369" lon="4.87551">
        <ele>183.93800354004</ele>
        <time>2010-10-20T13:39:01Z</time>
      </trkpt>
      <trkpt lat="45.18367" lon="4.87489">
        <ele>183.3450012207</ele>
        <time>2010-10-20T13:39:07Z</time>
      </trkpt>
      <trkpt lat="45.18364" lon="4.87429">
        <ele>183.94000244141</ele>
        <time>2010-10-20T13:39:13Z</time>
      </trkpt>
      <trkpt lat="45.18362" lon="4.87345">
        <ele>183.21000671387</ele>
        <time>2010-10-20T13:39:21Z</time>
      </trkpt>
      <trkpt lat="45.18358" lon="4.87249">
        <ele>183.5</ele>
        <time>2010-10-20T13:39:30Z</time>
      </trkpt>
      <trkpt lat="45.18363" lon="4.87207">
        <ele>183.21600341797</ele>
        <time>2010-10-20T13:39:34Z</time>
      </trkpt>
      <trkpt lat="45.18372" lon="4.87176">
        <ele>181.42900085449</ele>
        <time>2010-10-20T13:39:37Z</time>
      </trkpt>
      <trkpt lat="45.18396" lon="4.87102">
        <ele>179.99899291992</ele>
        <time>2010-10-20T13:39:44Z</time>
      </trkpt>
      <trkpt lat="45.1842" lon="4.87027">
        <ele>178.07299804688</ele>
        <time>2010-10-20T13:39:51Z</time>
      </trkpt>
      <trkpt lat="45.18447" lon="4.86945">
        <ele>178.58299255371</ele>
        <time>2010-10-20T13:39:59Z</time>
      </trkpt>
      <trkpt lat="45.18457" lon="4.86905">
        <ele>178.53799438477</ele>
        <time>2010-10-20T13:40:03Z</time>
      </trkpt>
      <trkpt lat="45.18464" lon="4.86832">
        <ele>178.54200744629</ele>
        <time>2010-10-20T13:40:10Z</time>
      </trkpt>
      <trkpt lat="45.18465" lon="4.8682">
        <ele>178.11799621582</ele>
        <time>2010-10-20T13:40:11Z</time>
      </trkpt>
      <trkpt lat="45.18473" lon="4.86742">
        <ele>176.20599365234</ele>
        <time>2010-10-20T13:40:18Z</time>
      </trkpt>
      <trkpt lat="45.18478" lon="4.86679">
        <ele>177.50100708008</ele>
        <time>2010-10-20T13:40:24Z</time>
      </trkpt>
      <trkpt lat="45.18483" lon="4.86618">
        <ele>176.83200073242</ele>
        <time>2010-10-20T13:40:30Z</time>
      </trkpt>
      <trkpt lat="45.18484" lon="4.86605">
        <ele>178.23699951172</ele>
        <time>2010-10-20T13:40:33Z</time>
      </trkpt>
      <trkpt lat="45.18486" lon="4.86598">
        <ele>178.9109954834</ele>
        <time>2010-10-20T13:40:38Z</time>
      </trkpt>
      <trkpt lat="45.18486" lon="4.86598">
        <ele>178.94099426269</ele>
        <time>2010-10-20T13:40:40Z</time>
      </trkpt>
      <trkpt lat="45.18484" lon="4.86577">
        <ele>178.09800720215</ele>
        <time>2010-10-20T13:40:46Z</time>
      </trkpt>
      <trkpt lat="45.18484" lon="4.86569">
        <ele>178.02900695801</ele>
        <time>2010-10-20T13:40:47Z</time>
      </trkpt>
      <trkpt lat="45.18488" lon="4.86547">
        <ele>178.02400207519</ele>
        <time>2010-10-20T13:40:50Z</time>
      </trkpt>
      <trkpt lat="45.18488" lon="4.86516">
        <ele>179.69000244141</ele>
        <time>2010-10-20T13:40:55Z</time>
      </trkpt>
      <trkpt lat="45.18486" lon="4.86505">
        <ele>179.2799987793</ele>
        <time>2010-10-20T13:40:57Z</time>
      </trkpt>
      <trkpt lat="45.18481" lon="4.86457">
        <ele>177.68499755859</ele>
        <time>2010-10-20T13:41:03Z</time>
      </trkpt>
      <trkpt lat="45.18481" lon="4.86448">
        <ele>177.18899536133</ele>
        <time>2010-10-20T13:41:04Z</time>
      </trkpt>
      <trkpt lat="45.18479" lon="4.86385">
        <ele>176.11599731445</ele>
        <time>2010-10-20T13:41:10Z</time>
      </trkpt>
      <trkpt lat="45.18479" lon="4.86317">
        <ele>176.57200622559</ele>
        <time>2010-10-20T13:41:16Z</time>
      </trkpt>
      <trkpt lat="45.18479" lon="4.86275">
        <ele>176.75199890137</ele>
        <time>2010-10-20T13:41:20Z</time>
      </trkpt>
      <trkpt lat="45.18475" lon="4.86243">
        <ele>176.33599853516</ele>
        <time>2010-10-20T13:41:23Z</time>
      </trkpt>
      <trkpt lat="45.18468" lon="4.86215">
        <ele>176.07299804688</ele>
        <time>2010-10-20T13:41:26Z</time>
      </trkpt>
      <trkpt lat="45.18463" lon="4.86182">
        <ele>176.01800537109</ele>
        <time>2010-10-20T13:41:29Z</time>
      </trkpt>
      <trkpt lat="45.18452" lon="4.86122">
        <ele>175.12899780273</ele>
        <time>2010-10-20T13:41:36Z</time>
      </trkpt>
      <trkpt lat="45.18435" lon="4.86068">
        <ele>174.35000610352</ele>
        <time>2010-10-20T13:41:42Z</time>
      </trkpt>
      <trkpt lat="45.18417" lon="4.86019">
        <ele>172.33500671387</ele>
        <time>2010-10-20T13:41:47Z</time>
      </trkpt>
      <trkpt lat="45.18411" lon="4.85998">
        <ele>172.04400634766</ele>
        <time>2010-10-20T13:41:49Z</time>
      </trkpt>
      <trkpt lat="45.18404" lon="4.85976">
        <ele>172.24800109863</ele>
        <time>2010-10-20T13:41:51Z</time>
      </trkpt>
      <trkpt lat="45.18398" lon="4.85929">
        <ele>170.64199829102</ele>
        <time>2010-10-20T13:41:55Z</time>
      </trkpt>
      <trkpt lat="45.18391" lon="4.85858">
        <ele>170.02799987793</ele>
        <time>2010-10-20T13:42:01Z</time>
      </trkpt>
      <trkpt lat="45.1838" lon="4.8579">
        <ele>170.37399291992</ele>
        <time>2010-10-20T13:42:07Z</time>
      </trkpt>
      <trkpt lat="45.18372" lon="4.85739">
        <ele>171.03700256348</ele>
        <time>2010-10-20T13:42:12Z</time>
      </trkpt>
      <trkpt lat="45.18361" lon="4.85676">
        <ele>171.05799865723</ele>
        <time>2010-10-20T13:42:18Z</time>
      </trkpt>
      <trkpt lat="45.18348" lon="4.85615">
        <ele>171.95799255371</ele>
        <time>2010-10-20T13:42:24Z</time>
      </trkpt>
      <trkpt lat="45.18328" lon="4.85569">
        <ele>171</ele>
        <time>2010-10-20T13:42:29Z</time>
      </trkpt>
      <trkpt lat="45.18321" lon="4.85562">
        <ele>170.91499328613</ele>
        <time>2010-10-20T13:42:30Z</time>
      </trkpt>
      <trkpt lat="45.1829" lon="4.85534">
        <ele>169.5299987793</ele>
        <time>2010-10-20T13:42:34Z</time>
      </trkpt>
      <trkpt lat="45.18268" lon="4.8549">
        <ele>167.76899719238</ele>
        <time>2010-10-20T13:42:38Z</time>
      </trkpt>
      <trkpt lat="45.18249" lon="4.85416">
        <ele>166.13800048828</ele>
        <time>2010-10-20T13:42:44Z</time>
      </trkpt>
      <trkpt lat="45.18237" lon="4.85354">
        <ele>165.66299438477</ele>
        <time>2010-10-20T13:42:49Z</time>
      </trkpt>
      <trkpt lat="45.18232" lon="4.85279">
        <ele>164.47099304199</ele>
        <time>2010-10-20T13:42:55Z</time>
      </trkpt>
      <trkpt lat="45.18227" lon="4.85233">
        <ele>163.79600524902</ele>
        <time>2010-10-20T13:42:59Z</time>
      </trkpt>
      <trkpt lat="45.18213" lon="4.8519">
        <ele>164.85800170898</ele>
        <time>2010-10-20T13:43:03Z</time>
      </trkpt>
      <trkpt lat="45.18193" lon="4.85166">
        <ele>164.64900207519</ele>
        <time>2010-10-20T13:43:06Z</time>
      </trkpt>
      <trkpt lat="45.1814" lon="4.85119">
        <ele>163.13999938965</ele>
        <time>2010-10-20T13:43:13Z</time>
      </trkpt>
      <trkpt lat="45.18102" lon="4.85092">
        <ele>161.63800048828</ele>
        <time>2010-10-20T13:43:18Z</time>
      </trkpt>
      <trkpt lat="45.1806" lon="4.85047">
        <ele>160.75900268555</ele>
        <time>2010-10-20T13:43:24Z</time>
      </trkpt>
      <trkpt lat="45.18011" lon="4.84971">
        <ele>161.06500244141</ele>
        <time>2010-10-20T13:43:33Z</time>
      </trkpt>
      <trkpt lat="45.17991" lon="4.84936">
        <ele>160.87600708008</ele>
        <time>2010-10-20T13:43:37Z</time>
      </trkpt>
      <trkpt lat="45.17981" lon="4.84894">
        <ele>160.93600463867</ele>
        <time>2010-10-20T13:43:41Z</time>
      </trkpt>
      <trkpt lat="45.17982" lon="4.84882">
        <ele>160.77499389648</ele>
        <time>2010-10-20T13:43:42Z</time>
      </trkpt>
      <trkpt lat="45.17986" lon="4.84796">
        <ele>159.7859954834</ele>
        <time>2010-10-20T13:43:49Z</time>
      </trkpt>
      <trkpt lat="45.17978" lon="4.84731">
        <ele>158.70199584961</ele>
        <time>2010-10-20T13:43:54Z</time>
      </trkpt>
      <trkpt lat="45.17949" lon="4.84655">
        <ele>156.47200012207</ele>
        <time>2010-10-20T13:44:00Z</time>
      </trkpt>
      <trkpt lat="45.17936" lon="4.84613">
        <ele>154.86000061035</ele>
        <time>2010-10-20T13:44:04Z</time>
      </trkpt>
      <trkpt lat="45.17893" lon="4.84498">
        <ele>155.28300476074</ele>
        <time>2010-10-20T13:44:15Z</time>
      </trkpt>
      <trkpt lat="45.17873" lon="4.84434">
        <ele>156.54899597168</ele>
        <time>2010-10-20T13:44:22Z</time>
      </trkpt>
      <trkpt lat="45.17858" lon="4.84342">
        <ele>158.14799499512</ele>
        <time>2010-10-20T13:44:31Z</time>
      </trkpt>
      <trkpt lat="45.17856" lon="4.8431">
        <ele>158.35600280762</ele>
        <time>2010-10-20T13:44:34Z</time>
      </trkpt>
      <trkpt lat="45.17864" lon="4.84272">
        <ele>158.65299987793</ele>
        <time>2010-10-20T13:44:38Z</time>
      </trkpt>
      <trkpt lat="45.17869" lon="4.84264">
        <ele>158.51400756836</ele>
        <time>2010-10-20T13:44:39Z</time>
      </trkpt>
      <trkpt lat="45.17904" lon="4.84197">
        <ele>156.46200561523</ele>
        <time>2010-10-20T13:44:46Z</time>
      </trkpt>
      <trkpt lat="45.1791" lon="4.84062">
        <ele>150.09800720215</ele>
        <time>2010-10-20T13:44:56Z</time>
      </trkpt>
      <trkpt lat="45.17902" lon="4.84022">
        <ele>149.04200744629</ele>
        <time>2010-10-20T13:44:59Z</time>
      </trkpt>
      <trkpt lat="45.17901" lon="4.83957">
        <ele>145.89700317383</ele>
        <time>2010-10-20T13:45:03Z</time>
      </trkpt>
      <trkpt lat="45.17908" lon="4.83925">
        <ele>144.97500610352</ele>
        <time>2010-10-20T13:45:05Z</time>
      </trkpt>
      <trkpt lat="45.17938" lon="4.83801">
        <ele>142.03999328613</ele>
        <time>2010-10-20T13:45:13Z</time>
      </trkpt>
      <trkpt lat="45.17968" lon="4.83714">
        <ele>142.09599304199</ele>
        <time>2010-10-20T13:45:19Z</time>
      </trkpt>
      <trkpt lat="45.18002" lon="4.83628">
        <ele>142.57000732422</ele>
        <time>2010-10-20T13:45:25Z</time>
      </trkpt>
      <trkpt lat="45.18017" lon="4.83603">
        <ele>142.2380065918</ele>
        <time>2010-10-20T13:45:27Z</time>
      </trkpt>
      <trkpt lat="45.18063" lon="4.83554">
        <ele>141.86199951172</ele>
        <time>2010-10-20T13:45:32Z</time>
      </trkpt>
      <trkpt lat="45.1809" lon="4.83525">
        <ele>142.20399475098</ele>
        <time>2010-10-20T13:45:35Z</time>
      </trkpt>
      <trkpt lat="45.18106" lon="4.83487">
        <ele>142.50999450684</ele>
        <time>2010-10-20T13:45:38Z</time>
      </trkpt>
      <trkpt lat="45.18105" lon="4.83457">
        <ele>142.94700622559</ele>
        <time>2010-10-20T13:45:40Z</time>
      </trkpt>
      <trkpt lat="45.18094" lon="4.83433">
        <ele>143.15400695801</ele>
        <time>2010-10-20T13:45:42Z</time>
      </trkpt>
      <trkpt lat="45.1808" lon="4.83414">
        <ele>143.41999816894</ele>
        <time>2010-10-20T13:45:44Z</time>
      </trkpt>
      <trkpt lat="45.18036" lon="4.83363">
        <ele>145.93299865723</ele>
        <time>2010-10-20T13:45:51Z</time>
      </trkpt>
      <trkpt lat="45.18012" lon="4.83327">
        <ele>146.75999450684</ele>
        <time>2010-10-20T13:45:56Z</time>
      </trkpt>
      <trkpt lat="45.18007" lon="4.8332">
        <ele>146.79899597168</ele>
        <time>2010-10-20T13:45:57Z</time>
      </trkpt>
      <trkpt lat="45.17977" lon="4.83298">
        <ele>145.99899291992</ele>
        <time>2010-10-20T13:46:02Z</time>
      </trkpt>
      <trkpt lat="45.17955" lon="4.833">
        <ele>145.75</ele>
        <time>2010-10-20T13:46:05Z</time>
      </trkpt>
      <trkpt lat="45.1794" lon="4.83307">
        <ele>145.03799438477</ele>
        <time>2010-10-20T13:46:07Z</time>
      </trkpt>
      <trkpt lat="45.1788" lon="4.83336">
        <ele>142.00500488281</ele>
        <time>2010-10-20T13:46:14Z</time>
      </trkpt>
      <trkpt lat="45.17843" lon="4.83339">
        <ele>140.93200683594</ele>
        <time>2010-10-20T13:46:18Z</time>
      </trkpt>
      <trkpt lat="45.17807" lon="4.83333">
        <ele>139.83799743652</ele>
        <time>2010-10-20T13:46:22Z</time>
      </trkpt>
      <trkpt lat="45.17778" lon="4.83307">
        <ele>139.87600708008</ele>
        <time>2010-10-20T13:46:26Z</time>
      </trkpt>
      <trkpt lat="45.17762" lon="4.83275">
        <ele>139.12800598144</ele>
        <time>2010-10-20T13:46:29Z</time>
      </trkpt>
      <trkpt lat="45.17733" lon="4.83178">
        <ele>138.30799865723</ele>
        <time>2010-10-20T13:46:37Z</time>
      </trkpt>
      <trkpt lat="45.17717" lon="4.83114">
        <ele>138.36500549316</ele>
        <time>2010-10-20T13:46:42Z</time>
      </trkpt>
      <trkpt lat="45.17702" lon="4.83013">
        <ele>139.06199645996</ele>
        <time>2010-10-20T13:46:50Z</time>
      </trkpt>
      <trkpt lat="45.17682" lon="4.82971">
        <ele>139.26699829102</ele>
        <time>2010-10-20T13:46:54Z</time>
      </trkpt>
      <trkpt lat="45.17659" lon="4.82959">
        <ele>139.05700683594</ele>
        <time>2010-10-20T13:46:57Z</time>
      </trkpt>
      <trkpt lat="45.17631" lon="4.82961">
        <ele>138.53799438477</ele>
        <time>2010-10-20T13:47:00Z</time>
      </trkpt>
      <trkpt lat="45.17622" lon="4.82965">
        <ele>138.42599487305</ele>
        <time>2010-10-20T13:47:01Z</time>
      </trkpt>
      <trkpt lat="45.17547" lon="4.82997">
        <ele>138.89300537109</ele>
        <time>2010-10-20T13:47:10Z</time>
      </trkpt>
      <trkpt lat="45.17512" lon="4.83008">
        <ele>140.46099853516</ele>
        <time>2010-10-20T13:47:15Z</time>
      </trkpt>
      <trkpt lat="45.17479" lon="4.83018">
        <ele>140.69500732422</ele>
        <time>2010-10-20T13:47:20Z</time>
      </trkpt>
      <trkpt lat="45.17459" lon="4.83012">
        <ele>140.33500671387</ele>
        <time>2010-10-20T13:47:23Z</time>
      </trkpt>
      <trkpt lat="45.17409" lon="4.82975">
        <ele>140.18499755859</ele>
        <time>2010-10-20T13:47:31Z</time>
      </trkpt>
      <trkpt lat="45.17397" lon="4.82962">
        <ele>140.20300292969</ele>
        <time>2010-10-20T13:47:33Z</time>
      </trkpt>
      <trkpt lat="45.17385" lon="4.82945">
        <ele>140.60400390625</ele>
        <time>2010-10-20T13:47:35Z</time>
      </trkpt>
      <trkpt lat="45.17366" lon="4.82894">
        <ele>139.08399963379</ele>
        <time>2010-10-20T13:47:40Z</time>
      </trkpt>
      <trkpt lat="45.17368" lon="4.82854">
        <ele>139.05099487305</ele>
        <time>2010-10-20T13:47:43Z</time>
      </trkpt>
      <trkpt lat="45.1737" lon="4.82841">
        <ele>138.71899414062</ele>
        <time>2010-10-20T13:47:44Z</time>
      </trkpt>
      <trkpt lat="45.17376" lon="4.82814">
        <ele>137.79299926758</ele>
        <time>2010-10-20T13:47:46Z</time>
      </trkpt>
      <trkpt lat="45.17401" lon="4.82727">
        <ele>134.93699645996</ele>
        <time>2010-10-20T13:47:52Z</time>
      </trkpt>
      <trkpt lat="45.17412" lon="4.82699">
        <ele>133.80599975586</ele>
        <time>2010-10-20T13:47:54Z</time>
      </trkpt>
      <trkpt lat="45.17426" lon="4.8264">
        <ele>133.18800354004</ele>
        <time>2010-10-20T13:47:58Z</time>
      </trkpt>
      <trkpt lat="45.17419" lon="4.82595">
        <ele>132.84199523926</ele>
        <time>2010-10-20T13:48:01Z</time>
      </trkpt>
      <trkpt lat="45.17402" lon="4.82559">
        <ele>132.00999450684</ele>
        <time>2010-10-20T13:48:04Z</time>
      </trkpt>
      <trkpt lat="45.17395" lon="4.82548">
        <ele>131.98199462891</ele>
        <time>2010-10-20T13:48:05Z</time>
      </trkpt>
      <trkpt lat="45.17344" lon="4.82464">
        <ele>131.68400573731</ele>
        <time>2010-10-20T13:48:13Z</time>
      </trkpt>
      <trkpt lat="45.17316" lon="4.82402">
        <ele>132.03700256348</ele>
        <time>2010-10-20T13:48:19Z</time>
      </trkpt>
      <trkpt lat="45.17308" lon="4.82358">
        <ele>132.18499755859</ele>
        <time>2010-10-20T13:48:23Z</time>
      </trkpt>
      <trkpt lat="45.17307" lon="4.82347">
        <ele>132.24899291992</ele>
        <time>2010-10-20T13:48:24Z</time>
      </trkpt>
      <trkpt lat="45.17311" lon="4.82307">
        <ele>132.65699768066</ele>
        <time>2010-10-20T13:48:28Z</time>
      </trkpt>
      <trkpt lat="45.17315" lon="4.82299">
        <ele>132.20899963379</ele>
        <time>2010-10-20T13:48:29Z</time>
      </trkpt>
      <trkpt lat="45.17323" lon="4.82285">
        <ele>132.38600158691</ele>
        <time>2010-10-20T13:48:31Z</time>
      </trkpt>
      <trkpt lat="45.1736" lon="4.82251">
        <ele>134.63000488281</ele>
        <time>2010-10-20T13:48:38Z</time>
      </trkpt>
      <trkpt lat="45.174" lon="4.8222">
        <ele>132.87300109863</ele>
        <time>2010-10-20T13:48:44Z</time>
      </trkpt>
      <trkpt lat="45.1743" lon="4.82197">
        <ele>131.37399291992</ele>
        <time>2010-10-20T13:48:48Z</time>
      </trkpt>
      <trkpt lat="45.17461" lon="4.82178">
        <ele>129.52699279785</ele>
        <time>2010-10-20T13:48:52Z</time>
      </trkpt>
      <trkpt lat="45.17484" lon="4.82168">
        <ele>128.94400024414</ele>
        <time>2010-10-20T13:48:55Z</time>
      </trkpt>
      <trkpt lat="45.17517" lon="4.82139">
        <ele>128.88800048828</ele>
        <time>2010-10-20T13:49:00Z</time>
      </trkpt>
      <trkpt lat="45.1753" lon="4.82126">
        <ele>129.14300537109</ele>
        <time>2010-10-20T13:49:02Z</time>
      </trkpt>
      <trkpt lat="45.17572" lon="4.82074">
        <ele>129.13800048828</ele>
        <time>2010-10-20T13:49:09Z</time>
      </trkpt>
      <trkpt lat="45.17598" lon="4.82024">
        <ele>128.16600036621</ele>
        <time>2010-10-20T13:49:14Z</time>
      </trkpt>
      <trkpt lat="45.17628" lon="4.81966">
        <ele>126.62599945068</ele>
        <time>2010-10-20T13:49:20Z</time>
      </trkpt>
      <trkpt lat="45.17656" lon="4.81928">
        <ele>127.20600128174</ele>
        <time>2010-10-20T13:49:25Z</time>
      </trkpt>
      <trkpt lat="45.17683" lon="4.81909">
        <ele>126.83999633789</ele>
        <time>2010-10-20T13:49:29Z</time>
      </trkpt>
      <trkpt lat="45.17685" lon="4.81891">
        <ele>127.21700286865</ele>
        <time>2010-10-20T13:49:31Z</time>
      </trkpt>
      <trkpt lat="45.17681" lon="4.81861">
        <ele>127.75900268555</ele>
        <time>2010-10-20T13:49:34Z</time>
      </trkpt>
      <trkpt lat="45.17693" lon="4.81821">
        <ele>126.73100280762</ele>
        <time>2010-10-20T13:49:38Z</time>
      </trkpt>
      <trkpt lat="45.1771" lon="4.81763">
        <ele>125.75800323486</ele>
        <time>2010-10-20T13:49:44Z</time>
      </trkpt>
      <trkpt lat="45.17717" lon="4.81725">
        <ele>125.93599700928</ele>
        <time>2010-10-20T13:49:48Z</time>
      </trkpt>
      <trkpt lat="45.17716" lon="4.81652">
        <ele>126.19400024414</ele>
        <time>2010-10-20T13:49:55Z</time>
      </trkpt>
      <trkpt lat="45.17712" lon="4.81578">
        <ele>125.87300109863</ele>
        <time>2010-10-20T13:50:02Z</time>
      </trkpt>
      <trkpt lat="45.17711" lon="4.81567">
        <ele>126.06400299072</ele>
        <time>2010-10-20T13:50:03Z</time>
      </trkpt>
      <trkpt lat="45.1772" lon="4.81528">
        <ele>126.83200073242</ele>
        <time>2010-10-20T13:50:07Z</time>
      </trkpt>
      <trkpt lat="45.17743" lon="4.81452">
        <ele>127.32800292969</ele>
        <time>2010-10-20T13:50:15Z</time>
      </trkpt>
      <trkpt lat="45.17746" lon="4.81443">
        <ele>127.34899902344</ele>
        <time>2010-10-20T13:50:16Z</time>
      </trkpt>
      <trkpt lat="45.17766" lon="4.81417">
        <ele>127.69799804688</ele>
        <time>2010-10-20T13:50:20Z</time>
      </trkpt>
      <trkpt lat="45.17776" lon="4.81392">
        <ele>127.94200134277</ele>
        <time>2010-10-20T13:50:23Z</time>
      </trkpt>
      <trkpt lat="45.1777" lon="4.81372">
        <ele>127.60399627685</ele>
        <time>2010-10-20T13:50:25Z</time>
      </trkpt>
      <trkpt lat="45.17766" lon="4.81351">
        <ele>126.46800231934</ele>
        <time>2010-10-20T13:50:27Z</time>
      </trkpt>
      <trkpt lat="45.17768" lon="4.8134">
        <ele>126.24299621582</ele>
        <time>2010-10-20T13:50:28Z</time>
      </trkpt>
      <trkpt lat="45.1778" lon="4.8133">
        <ele>126.13999938965</ele>
        <time>2010-10-20T13:50:30Z</time>
      </trkpt>
      <trkpt lat="45.17802" lon="4.81328">
        <ele>125.452003479</ele>
        <time>2010-10-20T13:50:33Z</time>
      </trkpt>
      <trkpt lat="45.17808" lon="4.81326">
        <ele>125.40799713135</ele>
        <time>2010-10-20T13:50:34Z</time>
      </trkpt>
      <trkpt lat="45.17837" lon="4.81323">
        <ele>126.11599731445</ele>
        <time>2010-10-20T13:50:39Z</time>
      </trkpt>
      <trkpt lat="45.17842" lon="4.81325">
        <ele>126.00199890137</ele>
        <time>2010-10-20T13:50:40Z</time>
      </trkpt>
      <trkpt lat="45.17909" lon="4.81355">
        <ele>126.38800048828</ele>
        <time>2010-10-20T13:50:51Z</time>
      </trkpt>
      <trkpt lat="45.17955" lon="4.81371">
        <ele>126.08899688721</ele>
        <time>2010-10-20T13:50:59Z</time>
      </trkpt>
      <trkpt lat="45.18003" lon="4.81388">
        <ele>126.39499664307</ele>
        <time>2010-10-20T13:51:07Z</time>
      </trkpt>
      <trkpt lat="45.18061" lon="4.81402">
        <ele>126.60099792481</ele>
        <time>2010-10-20T13:51:16Z</time>
      </trkpt>
      <trkpt lat="45.1812" lon="4.8141">
        <ele>126.53900146484</ele>
        <time>2010-10-20T13:51:25Z</time>
      </trkpt>
      <trkpt lat="45.18172" lon="4.81402">
        <ele>126.68099975586</ele>
        <time>2010-10-20T13:51:33Z</time>
      </trkpt>
      <trkpt lat="45.1823" lon="4.81394">
        <ele>126.5179977417</ele>
        <time>2010-10-20T13:51:42Z</time>
      </trkpt>
      <trkpt lat="45.1829" lon="4.81391">
        <ele>128.00100708008</ele>
        <time>2010-10-20T13:51:51Z</time>
      </trkpt>
      <trkpt lat="45.18335" lon="4.81386">
        <ele>128.50900268555</ele>
        <time>2010-10-20T13:51:58Z</time>
      </trkpt>
      <trkpt lat="45.18374" lon="4.81384">
        <ele>131.32400512695</ele>
        <time>2010-10-20T13:52:05Z</time>
      </trkpt>
      <trkpt lat="45.18406" lon="4.81387">
        <ele>132.63499450684</ele>
        <time>2010-10-20T13:52:11Z</time>
      </trkpt>
      <trkpt lat="45.18412" lon="4.81387">
        <ele>133.32499694824</ele>
        <time>2010-10-20T13:52:12Z</time>
      </trkpt>
      <trkpt lat="45.18425" lon="4.81393">
        <ele>133.74800109863</ele>
        <time>2010-10-20T13:52:16Z</time>
      </trkpt>
      <trkpt lat="45.18442" lon="4.81391">
        <ele>134.5950012207</ele>
        <time>2010-10-20T13:52:20Z</time>
      </trkpt>
      <trkpt lat="45.18443" lon="4.8137">
        <ele>135.00799560547</ele>
        <time>2010-10-20T13:52:23Z</time>
      </trkpt>
      <trkpt lat="45.18441" lon="4.81362">
        <ele>134.78500366211</ele>
        <time>2010-10-20T13:52:24Z</time>
      </trkpt>
      <trkpt lat="45.1843" lon="4.81307">
        <ele>136.6309967041</ele>
        <time>2010-10-20T13:52:31Z</time>
      </trkpt>
      <trkpt lat="45.18417" lon="4.81239">
        <ele>138.50799560547</ele>
        <time>2010-10-20T13:52:39Z</time>
      </trkpt>
      <trkpt lat="45.18403" lon="4.81171">
        <ele>137.96099853516</ele>
        <time>2010-10-20T13:52:46Z</time>
      </trkpt>
      <trkpt lat="45.18384" lon="4.81072">
        <ele>137.26800537109</ele>
        <time>2010-10-20T13:52:55Z</time>
      </trkpt>
      <trkpt lat="45.1837" lon="4.8099">
        <ele>133.07899475098</ele>
        <time>2010-10-20T13:53:02Z</time>
      </trkpt>
      <trkpt lat="45.18365" lon="4.8093">
        <ele>131.53399658203</ele>
        <time>2010-10-20T13:53:07Z</time>
      </trkpt>
      <trkpt lat="45.1837" lon="4.80869">
        <ele>128.96000671387</ele>
        <time>2010-10-20T13:53:12Z</time>
      </trkpt>
      <trkpt lat="45.18372" lon="4.80857">
        <ele>128.79800415039</ele>
        <time>2010-10-20T13:53:13Z</time>
      </trkpt>
      <trkpt lat="45.18378" lon="4.80822">
        <ele>128.61999511719</ele>
        <time>2010-10-20T13:53:16Z</time>
      </trkpt>
      <trkpt lat="45.18395" lon="4.80785">
        <ele>127.91799926758</ele>
        <time>2010-10-20T13:53:20Z</time>
      </trkpt>
      <trkpt lat="45.18406" lon="4.80769">
        <ele>127.41100311279</ele>
        <time>2010-10-20T13:53:22Z</time>
      </trkpt>
      <trkpt lat="45.184" lon="4.80752">
        <ele>127.61799621582</ele>
        <time>2010-10-20T13:53:24Z</time>
      </trkpt>
      <trkpt lat="45.18386" lon="4.80743">
        <ele>128.28999328613</ele>
        <time>2010-10-20T13:53:26Z</time>
      </trkpt>
      <trkpt lat="45.18341" lon="4.80707">
        <ele>126.41999816894</ele>
        <time>2010-10-20T13:53:32Z</time>
      </trkpt>
      <trkpt lat="45.18304" lon="4.807">
        <ele>125.42199707031</ele>
        <time>2010-10-20T13:53:36Z</time>
      </trkpt>
      <trkpt lat="45.18234" lon="4.80715">
        <ele>123.76000213623</ele>
        <time>2010-10-20T13:53:43Z</time>
      </trkpt>
      <trkpt lat="45.18179" lon="4.80731">
        <ele>124.73300170898</ele>
        <time>2010-10-20T13:53:49Z</time>
      </trkpt>
      <trkpt lat="45.1814" lon="4.80759">
        <ele>125.03700256348</ele>
        <time>2010-10-20T13:53:54Z</time>
      </trkpt>
      <trkpt lat="45.1812" lon="4.80798">
        <ele>124.48500061035</ele>
        <time>2010-10-20T13:53:58Z</time>
      </trkpt>
      <trkpt lat="45.18119" lon="4.80822">
        <ele>123.84100341797</ele>
        <time>2010-10-20T13:54:00Z</time>
      </trkpt>
      <trkpt lat="45.18123" lon="4.80922">
        <ele>123.72599792481</ele>
        <time>2010-10-20T13:54:08Z</time>
      </trkpt>
      <trkpt lat="45.18124" lon="4.80946">
        <ele>123.83200073242</ele>
        <time>2010-10-20T13:54:10Z</time>
      </trkpt>
      <trkpt lat="45.18116" lon="4.80978">
        <ele>124.18499755859</ele>
        <time>2010-10-20T13:54:13Z</time>
      </trkpt>
      <trkpt lat="45.18101" lon="4.80984">
        <ele>125.36199951172</ele>
        <time>2010-10-20T13:54:15Z</time>
      </trkpt>
      <trkpt lat="45.18033" lon="4.80991">
        <ele>125.68399810791</ele>
        <time>2010-10-20T13:54:23Z</time>
      </trkpt>
      <trkpt lat="45.17977" lon="4.80982">
        <ele>125.08399963379</ele>
        <time>2010-10-20T13:54:29Z</time>
      </trkpt>
      <trkpt lat="45.17919" lon="4.80964">
        <ele>125.04000091553</ele>
        <time>2010-10-20T13:54:35Z</time>
      </trkpt>
      <trkpt lat="45.17832" lon="4.80916">
        <ele>124.6370010376</ele>
        <time>2010-10-20T13:54:44Z</time>
      </trkpt>
      <trkpt lat="45.17756" lon="4.80872">
        <ele>124.77700042725</ele>
        <time>2010-10-20T13:54:52Z</time>
      </trkpt>
      <trkpt lat="45.17654" lon="4.80817">
        <ele>124.28800201416</ele>
        <time>2010-10-20T13:55:03Z</time>
      </trkpt>
      <trkpt lat="45.1758" lon="4.80778">
        <ele>124.15299987793</ele>
        <time>2010-10-20T13:55:11Z</time>
      </trkpt>
      <trkpt lat="45.1752" lon="4.80739">
        <ele>124.74900054932</ele>
        <time>2010-10-20T13:55:18Z</time>
      </trkpt>
      <trkpt lat="45.17493" lon="4.80716">
        <ele>126.56300354004</ele>
        <time>2010-10-20T13:55:22Z</time>
      </trkpt>
      <trkpt lat="45.17482" lon="4.80706">
        <ele>127.26999664307</ele>
        <time>2010-10-20T13:55:24Z</time>
      </trkpt>
      <trkpt lat="45.17477" lon="4.80701">
        <ele>127.40599822998</ele>
        <time>2010-10-20T13:55:25Z</time>
      </trkpt>
      <trkpt lat="45.17447" lon="4.80694">
        <ele>127.48899841309</ele>
        <time>2010-10-20T13:55:30Z</time>
      </trkpt>
      <trkpt lat="45.1743" lon="4.80711">
        <ele>127.63899993897</ele>
        <time>2010-10-20T13:55:33Z</time>
      </trkpt>
      <trkpt lat="45.17426" lon="4.80719">
        <ele>127.69799804688</ele>
        <time>2010-10-20T13:55:34Z</time>
      </trkpt>
      <trkpt lat="45.17405" lon="4.8074">
        <ele>127.87200164795</ele>
        <time>2010-10-20T13:55:38Z</time>
      </trkpt>
      <trkpt lat="45.17393" lon="4.80736">
        <ele>128.07800292969</ele>
        <time>2010-10-20T13:55:40Z</time>
      </trkpt>
      <trkpt lat="45.17374" lon="4.80711">
        <ele>127.9940032959</ele>
        <time>2010-10-20T13:55:44Z</time>
      </trkpt>
      <trkpt lat="45.17375" lon="4.80682">
        <ele>128.07699584961</ele>
        <time>2010-10-20T13:55:47Z</time>
      </trkpt>
      <trkpt lat="45.17374" lon="4.80673">
        <ele>128.13499450684</ele>
        <time>2010-10-20T13:55:48Z</time>
      </trkpt>
      <trkpt lat="45.1736" lon="4.80611">
        <ele>129.06900024414</ele>
        <time>2010-10-20T13:55:55Z</time>
      </trkpt>
      <trkpt lat="45.17349" lon="4.8057">
        <ele>129.67500305176</ele>
        <time>2010-10-20T13:56:00Z</time>
      </trkpt>
      <trkpt lat="45.17332" lon="4.80545">
        <ele>131.36500549316</ele>
        <time>2010-10-20T13:56:04Z</time>
      </trkpt>
      <trkpt lat="45.17313" lon="4.80541">
        <ele>131.60800170898</ele>
        <time>2010-10-20T13:56:07Z</time>
      </trkpt>
      <trkpt lat="45.17254" lon="4.80536">
        <ele>133.41200256348</ele>
        <time>2010-10-20T13:56:16Z</time>
      </trkpt>
      <trkpt lat="45.17207" lon="4.80531">
        <ele>134.64900207519</ele>
        <time>2010-10-20T13:56:23Z</time>
      </trkpt>
      <trkpt lat="45.17164" lon="4.80527">
        <ele>136.58299255371</ele>
        <time>2010-10-20T13:56:30Z</time>
      </trkpt>
      <trkpt lat="45.17126" lon="4.80523">
        <ele>137.33000183106</ele>
        <time>2010-10-20T13:56:37Z</time>
      </trkpt>
      <trkpt lat="45.17112" lon="4.8051">
        <ele>137.58500671387</ele>
        <time>2010-10-20T13:56:41Z</time>
      </trkpt>
      <trkpt lat="45.1711" lon="4.80504">
        <ele>137.79899597168</ele>
        <time>2010-10-20T13:56:45Z</time>
      </trkpt>
      <trkpt lat="45.17108" lon="4.80501">
        <ele>137.91900634766</ele>
        <time>2010-10-20T13:56:48Z</time>
      </trkpt>
      <trkpt lat="45.17096" lon="4.80499">
        <ele>137.98399353027</ele>
        <time>2010-10-20T13:56:53Z</time>
      </trkpt>
      <trkpt lat="45.17073" lon="4.80504">
        <ele>138.67100524902</ele>
        <time>2010-10-20T13:56:58Z</time>
      </trkpt>
      <trkpt lat="45.17035" lon="4.80515">
        <ele>138.95100402832</ele>
        <time>2010-10-20T13:57:05Z</time>
      </trkpt>
      <trkpt lat="45.16981" lon="4.80528">
        <ele>139.99099731445</ele>
        <time>2010-10-20T13:57:14Z</time>
      </trkpt>
      <trkpt lat="45.16931" lon="4.80549">
        <ele>141.01100158691</ele>
        <time>2010-10-20T13:57:22Z</time>
      </trkpt>
      <trkpt lat="45.16886" lon="4.8058">
        <ele>141.59399414062</ele>
        <time>2010-10-20T13:57:29Z</time>
      </trkpt>
      <trkpt lat="45.1683" lon="4.80621">
        <ele>141.04899597168</ele>
        <time>2010-10-20T13:57:37Z</time>
      </trkpt>
      <trkpt lat="45.1677" lon="4.80664">
        <ele>140.17399597168</ele>
        <time>2010-10-20T13:57:45Z</time>
      </trkpt>
      <trkpt lat="45.16692" lon="4.80719">
        <ele>140.19599914551</ele>
        <time>2010-10-20T13:57:55Z</time>
      </trkpt>
      <trkpt lat="45.16631" lon="4.80763">
        <ele>139.80700683594</ele>
        <time>2010-10-20T13:58:03Z</time>
      </trkpt>
      <trkpt lat="45.16546" lon="4.80824">
        <ele>139.38999938965</ele>
        <time>2010-10-20T13:58:14Z</time>
      </trkpt>
      <trkpt lat="45.16477" lon="4.80874">
        <ele>138.64100646973</ele>
        <time>2010-10-20T13:58:23Z</time>
      </trkpt>
      <trkpt lat="45.164" lon="4.80929">
        <ele>137.52900695801</ele>
        <time>2010-10-20T13:58:33Z</time>
      </trkpt>
      <trkpt lat="45.16364" lon="4.80949">
        <ele>137.14500427246</ele>
        <time>2010-10-20T13:58:38Z</time>
      </trkpt>
      <trkpt lat="45.16344" lon="4.80961">
        <ele>137.0950012207</ele>
        <time>2010-10-20T13:58:41Z</time>
      </trkpt>
      <trkpt lat="45.16303" lon="4.80985">
        <ele>136.07899475098</ele>
        <time>2010-10-20T13:58:47Z</time>
      </trkpt>
      <trkpt lat="45.16276" lon="4.81001">
        <ele>136.05099487305</ele>
        <time>2010-10-20T13:58:51Z</time>
      </trkpt>
      <trkpt lat="45.16251" lon="4.81022">
        <ele>135.73100280762</ele>
        <time>2010-10-20T13:58:55Z</time>
      </trkpt>
      <trkpt lat="45.16215" lon="4.81075">
        <ele>134.41999816894</ele>
        <time>2010-10-20T13:59:02Z</time>
      </trkpt>
      <trkpt lat="45.16189" lon="4.81095">
        <ele>133.40600585938</ele>
        <time>2010-10-20T13:59:06Z</time>
      </trkpt>
      <trkpt lat="45.16166" lon="4.81092">
        <ele>133.70199584961</ele>
        <time>2010-10-20T13:59:09Z</time>
      </trkpt>
      <trkpt lat="45.16138" lon="4.81078">
        <ele>133.88299560547</ele>
        <time>2010-10-20T13:59:13Z</time>
      </trkpt>
      <trkpt lat="45.16108" lon="4.8108">
        <ele>134.32800292969</ele>
        <time>2010-10-20T13:59:17Z</time>
      </trkpt>
      <trkpt lat="45.16083" lon="4.81102">
        <ele>134.44999694824</ele>
        <time>2010-10-20T13:59:21Z</time>
      </trkpt>
      <trkpt lat="45.16069" lon="4.81138">
        <ele>135.02600097656</ele>
        <time>2010-10-20T13:59:25Z</time>
      </trkpt>
      <trkpt lat="45.1606" lon="4.81176">
        <ele>135.49200439453</ele>
        <time>2010-10-20T13:59:29Z</time>
      </trkpt>
      <trkpt lat="45.16041" lon="4.81214">
        <ele>136.14900207519</ele>
        <time>2010-10-20T13:59:34Z</time>
      </trkpt>
      <trkpt lat="45.16035" lon="4.81219">
        <ele>136.33399963379</ele>
        <time>2010-10-20T13:59:35Z</time>
      </trkpt>
      <trkpt lat="45.15984" lon="4.8126">
        <ele>136.50700378418</ele>
        <time>2010-10-20T13:59:44Z</time>
      </trkpt>
      <trkpt lat="45.15943" lon="4.81287">
        <ele>136.37699890137</ele>
        <time>2010-10-20T13:59:51Z</time>
      </trkpt>
      <trkpt lat="45.15894" lon="4.81314">
        <ele>134.89199829102</ele>
        <time>2010-10-20T13:59:59Z</time>
      </trkpt>
      <trkpt lat="45.15875" lon="4.81323">
        <ele>134.72700500488</ele>
        <time>2010-10-20T14:00:02Z</time>
      </trkpt>
      <trkpt lat="45.15807" lon="4.81359">
        <ele>133.83099365234</ele>
        <time>2010-10-20T14:00:13Z</time>
      </trkpt>
      <trkpt lat="45.15759" lon="4.81385">
        <ele>134.25999450684</ele>
        <time>2010-10-20T14:00:21Z</time>
      </trkpt>
      <trkpt lat="45.15705" lon="4.81418">
        <ele>133.57000732422</ele>
        <time>2010-10-20T14:00:30Z</time>
      </trkpt>
      <trkpt lat="45.15646" lon="4.81455">
        <ele>132.86799621582</ele>
        <time>2010-10-20T14:00:39Z</time>
      </trkpt>
      <trkpt lat="45.15598" lon="4.81477">
        <ele>133.77299499512</ele>
        <time>2010-10-20T14:00:46Z</time>
      </trkpt>
      <trkpt lat="45.15551" lon="4.81493">
        <ele>134.56500244141</ele>
        <time>2010-10-20T14:00:53Z</time>
      </trkpt>
      <trkpt lat="45.15494" lon="4.81503">
        <ele>135.3809967041</ele>
        <time>2010-10-20T14:01:01Z</time>
      </trkpt>
      <trkpt lat="45.15452" lon="4.81503">
        <ele>135.66400146484</ele>
        <time>2010-10-20T14:01:07Z</time>
      </trkpt>
      <trkpt lat="45.15405" lon="4.81496">
        <ele>135.74499511719</ele>
        <time>2010-10-20T14:01:14Z</time>
      </trkpt>
      <trkpt lat="45.15355" lon="4.81482">
        <ele>136.44599914551</ele>
        <time>2010-10-20T14:01:22Z</time>
      </trkpt>
      <trkpt lat="45.15303" lon="4.81464">
        <ele>136.16499328613</ele>
        <time>2010-10-20T14:01:30Z</time>
      </trkpt>
      <trkpt lat="45.15257" lon="4.81447">
        <ele>135.58299255371</ele>
        <time>2010-10-20T14:01:37Z</time>
      </trkpt>
      <trkpt lat="45.15211" lon="4.81425">
        <ele>135.05400085449</ele>
        <time>2010-10-20T14:01:44Z</time>
      </trkpt>
      <trkpt lat="45.15169" lon="4.81407">
        <ele>134.16600036621</ele>
        <time>2010-10-20T14:01:50Z</time>
      </trkpt>
      <trkpt lat="45.15118" lon="4.8139">
        <ele>133.07299804688</ele>
        <time>2010-10-20T14:01:56Z</time>
      </trkpt>
      <trkpt lat="45.15041" lon="4.81369">
        <ele>131.03300476074</ele>
        <time>2010-10-20T14:02:04Z</time>
      </trkpt>
      <trkpt lat="45.14967" lon="4.81345">
        <ele>130.40899658203</ele>
        <time>2010-10-20T14:02:11Z</time>
      </trkpt>
      <trkpt lat="45.14915" lon="4.81317">
        <ele>129.65600585938</ele>
        <time>2010-10-20T14:02:16Z</time>
      </trkpt>
      <trkpt lat="45.14845" lon="4.81271">
        <ele>128.66700744629</ele>
        <time>2010-10-20T14:02:23Z</time>
      </trkpt>
      <trkpt lat="45.14766" lon="4.81216">
        <ele>128.84899902344</ele>
        <time>2010-10-20T14:02:31Z</time>
      </trkpt>
      <trkpt lat="45.14677" lon="4.81156">
        <ele>128.53799438477</ele>
        <time>2010-10-20T14:02:40Z</time>
      </trkpt>
      <trkpt lat="45.14605" lon="4.81107">
        <ele>128.89700317383</ele>
        <time>2010-10-20T14:02:48Z</time>
      </trkpt>
      <trkpt lat="45.1456" lon="4.81067">
        <ele>129.70500183106</ele>
        <time>2010-10-20T14:02:54Z</time>
      </trkpt>
      <trkpt lat="45.14505" lon="4.81012">
        <ele>130.84100341797</ele>
        <time>2010-10-20T14:03:02Z</time>
      </trkpt>
      <trkpt lat="45.14447" lon="4.80954">
        <ele>129.35099792481</ele>
        <time>2010-10-20T14:03:10Z</time>
      </trkpt>
      <trkpt lat="45.144" lon="4.80907">
        <ele>129.17399597168</ele>
        <time>2010-10-20T14:03:16Z</time>
      </trkpt>
      <trkpt lat="45.1437" lon="4.80871">
        <ele>128.29299926758</ele>
        <time>2010-10-20T14:03:20Z</time>
      </trkpt>
      <trkpt lat="45.14321" lon="4.80831">
        <ele>128.05000305176</ele>
        <time>2010-10-20T14:03:26Z</time>
      </trkpt>
      <trkpt lat="45.14294" lon="4.80814">
        <ele>127.56099700928</ele>
        <time>2010-10-20T14:03:29Z</time>
      </trkpt>
      <trkpt lat="45.14235" lon="4.80801">
        <ele>127.41100311279</ele>
        <time>2010-10-20T14:03:35Z</time>
      </trkpt>
      <trkpt lat="45.14133" lon="4.80786">
        <ele>126.90299987793</ele>
        <time>2010-10-20T14:03:45Z</time>
      </trkpt>
      <trkpt lat="45.14082" lon="4.80767">
        <ele>126.91000366211</ele>
        <time>2010-10-20T14:03:50Z</time>
      </trkpt>
      <trkpt lat="45.14032" lon="4.80741">
        <ele>126.07299804688</ele>
        <time>2010-10-20T14:03:55Z</time>
      </trkpt>
      <trkpt lat="45.1396" lon="4.8071">
        <ele>125.73000335693</ele>
        <time>2010-10-20T14:04:02Z</time>
      </trkpt>
      <trkpt lat="45.1392" lon="4.80684">
        <ele>126.1370010376</ele>
        <time>2010-10-20T14:04:06Z</time>
      </trkpt>
      <trkpt lat="45.13866" lon="4.80657">
        <ele>124.36199951172</ele>
        <time>2010-10-20T14:04:11Z</time>
      </trkpt>
      <trkpt lat="45.138" lon="4.80622">
        <ele>123.18499755859</ele>
        <time>2010-10-20T14:04:17Z</time>
      </trkpt>
      <trkpt lat="45.13763" lon="4.80581">
        <ele>122.35399627685</ele>
        <time>2010-10-20T14:04:21Z</time>
      </trkpt>
      <trkpt lat="45.1372" lon="4.80506">
        <ele>122.27500152588</ele>
        <time>2010-10-20T14:04:27Z</time>
      </trkpt>
      <trkpt lat="45.13681" lon="4.80441">
        <ele>123.68299865723</ele>
        <time>2010-10-20T14:04:33Z</time>
      </trkpt>
      <trkpt lat="45.13639" lon="4.8038">
        <ele>124.79900360107</ele>
        <time>2010-10-20T14:04:40Z</time>
      </trkpt>
      <trkpt lat="45.13604" lon="4.80341">
        <ele>126.77799987793</ele>
        <time>2010-10-20T14:04:46Z</time>
      </trkpt>
      <trkpt lat="45.1356" lon="4.80304">
        <ele>127.9879989624</ele>
        <time>2010-10-20T14:04:53Z</time>
      </trkpt>
      <trkpt lat="45.13509" lon="4.80271">
        <ele>126.47699737549</ele>
        <time>2010-10-20T14:05:00Z</time>
      </trkpt>
      <trkpt lat="45.13435" lon="4.80233">
        <ele>126.18299865723</ele>
        <time>2010-10-20T14:05:09Z</time>
      </trkpt>
      <trkpt lat="45.13377" lon="4.80222">
        <ele>126.41500091553</ele>
        <time>2010-10-20T14:05:16Z</time>
      </trkpt>
      <trkpt lat="45.1328" lon="4.80218">
        <ele>126.83399963379</ele>
        <time>2010-10-20T14:05:27Z</time>
      </trkpt>
      <trkpt lat="45.13183" lon="4.80214">
        <ele>125.70899963379</ele>
        <time>2010-10-20T14:05:37Z</time>
      </trkpt>
      <trkpt lat="45.13128" lon="4.80205">
        <ele>125.83100128174</ele>
        <time>2010-10-20T14:05:43Z</time>
      </trkpt>
      <trkpt lat="45.1306" lon="4.80189">
        <ele>126.99700164795</ele>
        <time>2010-10-20T14:05:51Z</time>
      </trkpt>
      <trkpt lat="45.12969" lon="4.80162">
        <ele>128.25300598144</ele>
        <time>2010-10-20T14:06:02Z</time>
      </trkpt>
      <trkpt lat="45.12883" lon="4.80137">
        <ele>129.07200622559</ele>
        <time>2010-10-20T14:06:12Z</time>
      </trkpt>
      <trkpt lat="45.1282" lon="4.80126">
        <ele>128.26899719238</ele>
        <time>2010-10-20T14:06:19Z</time>
      </trkpt>
      <trkpt lat="45.12752" lon="4.80127">
        <ele>127.35299682617</ele>
        <time>2010-10-20T14:06:26Z</time>
      </trkpt>
      <trkpt lat="45.12696" lon="4.80117">
        <ele>128.27200317383</ele>
        <time>2010-10-20T14:06:32Z</time>
      </trkpt>
      <trkpt lat="45.12626" lon="4.80103">
        <ele>128.47700500488</ele>
        <time>2010-10-20T14:06:40Z</time>
      </trkpt>
      <trkpt lat="45.12567" lon="4.80092">
        <ele>126.42400360107</ele>
        <time>2010-10-20T14:06:46Z</time>
      </trkpt>
      <trkpt lat="45.12501" lon="4.8008">
        <ele>123.50900268555</ele>
        <time>2010-10-20T14:06:52Z</time>
      </trkpt>
      <trkpt lat="45.12436" lon="4.80066">
        <ele>123.7440032959</ele>
        <time>2010-10-20T14:06:58Z</time>
      </trkpt>
      <trkpt lat="45.12357" lon="4.80045">
        <ele>124.25800323486</ele>
        <time>2010-10-20T14:07:06Z</time>
      </trkpt>
      <trkpt lat="45.12309" lon="4.80047">
        <ele>124.69799804688</ele>
        <time>2010-10-20T14:07:11Z</time>
      </trkpt>
      <trkpt lat="45.12242" lon="4.8006">
        <ele>124.59799957275</ele>
        <time>2010-10-20T14:07:18Z</time>
      </trkpt>
      <trkpt lat="45.12161" lon="4.80079">
        <ele>124.10600280762</ele>
        <time>2010-10-20T14:07:26Z</time>
      </trkpt>
      <trkpt lat="45.12084" lon="4.801">
        <ele>124.00900268555</ele>
        <time>2010-10-20T14:07:34Z</time>
      </trkpt>
      <trkpt lat="45.12018" lon="4.80134">
        <ele>123.0419998169</ele>
        <time>2010-10-20T14:07:41Z</time>
      </trkpt>
      <trkpt lat="45.1193" lon="4.80183">
        <ele>122.26499938965</ele>
        <time>2010-10-20T14:07:50Z</time>
      </trkpt>
      <trkpt lat="45.11829" lon="4.80238">
        <ele>121.89600372315</ele>
        <time>2010-10-20T14:08:00Z</time>
      </trkpt>
      <trkpt lat="45.11789" lon="4.8026">
        <ele>120.51300048828</ele>
        <time>2010-10-20T14:08:04Z</time>
      </trkpt>
      <trkpt lat="45.11683" lon="4.80317">
        <ele>121.55300140381</ele>
        <time>2010-10-20T14:08:15Z</time>
      </trkpt>
      <trkpt lat="45.11592" lon="4.80367">
        <ele>123.93800354004</ele>
        <time>2010-10-20T14:08:25Z</time>
      </trkpt>
      <trkpt lat="45.11509" lon="4.80412">
        <ele>124.13200378418</ele>
        <time>2010-10-20T14:08:35Z</time>
      </trkpt>
      <trkpt lat="45.1144" lon="4.8045">
        <ele>123.64700317383</ele>
        <time>2010-10-20T14:08:44Z</time>
      </trkpt>
      <trkpt lat="45.11375" lon="4.80485">
        <ele>122.94799804688</ele>
        <time>2010-10-20T14:08:52Z</time>
      </trkpt>
      <trkpt lat="45.1129" lon="4.80532">
        <ele>122.56199645996</ele>
        <time>2010-10-20T14:09:02Z</time>
      </trkpt>
      <trkpt lat="45.11274" lon="4.80541">
        <ele>122.36100006103</ele>
        <time>2010-10-20T14:09:04Z</time>
      </trkpt>
      <trkpt lat="45.11254" lon="4.80563">
        <ele>122.18900299072</ele>
        <time>2010-10-20T14:09:07Z</time>
      </trkpt>
      <trkpt lat="45.11249" lon="4.80572">
        <ele>122.27799987793</ele>
        <time>2010-10-20T14:09:08Z</time>
      </trkpt>
      <trkpt lat="45.11206" lon="4.80626">
        <ele>123.35500335693</ele>
        <time>2010-10-20T14:09:15Z</time>
      </trkpt>
      <trkpt lat="45.11163" lon="4.80678">
        <ele>123.64600372315</ele>
        <time>2010-10-20T14:09:22Z</time>
      </trkpt>
      <trkpt lat="45.11107" lon="4.80747">
        <ele>124.2320022583</ele>
        <time>2010-10-20T14:09:31Z</time>
      </trkpt>
      <trkpt lat="45.11062" lon="4.80801">
        <ele>126.14700317383</ele>
        <time>2010-10-20T14:09:39Z</time>
      </trkpt>
      <trkpt lat="45.11025" lon="4.80848">
        <ele>124.50800323486</ele>
        <time>2010-10-20T14:09:45Z</time>
      </trkpt>
      <trkpt lat="45.10981" lon="4.80902">
        <ele>120.65599822998</ele>
        <time>2010-10-20T14:09:51Z</time>
      </trkpt>
      <trkpt lat="45.10928" lon="4.80966">
        <ele>119.16000366211</ele>
        <time>2010-10-20T14:09:58Z</time>
      </trkpt>
      <trkpt lat="45.10878" lon="4.81026">
        <ele>118.03500366211</ele>
        <time>2010-10-20T14:10:05Z</time>
      </trkpt>
      <trkpt lat="45.10816" lon="4.81103">
        <ele>117.80899810791</ele>
        <time>2010-10-20T14:10:14Z</time>
      </trkpt>
      <trkpt lat="45.10756" lon="4.81181">
        <ele>117.95700073242</ele>
        <time>2010-10-20T14:10:23Z</time>
      </trkpt>
      <trkpt lat="45.10722" lon="4.81237">
        <ele>118.86100006103</ele>
        <time>2010-10-20T14:10:29Z</time>
      </trkpt>
      <trkpt lat="45.10673" lon="4.81325">
        <ele>119.24299621582</ele>
        <time>2010-10-20T14:10:38Z</time>
      </trkpt>
      <trkpt lat="45.10633" lon="4.81387">
        <ele>120.58200073242</ele>
        <time>2010-10-20T14:10:45Z</time>
      </trkpt>
      <trkpt lat="45.10583" lon="4.81453">
        <ele>121.40399932861</ele>
        <time>2010-10-20T14:10:53Z</time>
      </trkpt>
      <trkpt lat="45.10538" lon="4.81502">
        <ele>121.26399993897</ele>
        <time>2010-10-20T14:10:59Z</time>
      </trkpt>
      <trkpt lat="45.10492" lon="4.81528">
        <ele>120.23100280762</ele>
        <time>2010-10-20T14:11:04Z</time>
      </trkpt>
      <trkpt lat="45.10395" lon="4.81575">
        <ele>120.13899993897</ele>
        <time>2010-10-20T14:11:14Z</time>
      </trkpt>
      <trkpt lat="45.10344" lon="4.81611">
        <ele>119.82599639893</ele>
        <time>2010-10-20T14:11:20Z</time>
      </trkpt>
      <trkpt lat="45.10269" lon="4.81672">
        <ele>121.33999633789</ele>
        <time>2010-10-20T14:11:30Z</time>
      </trkpt>
      <trkpt lat="45.10217" lon="4.81716">
        <ele>122.90399932861</ele>
        <time>2010-10-20T14:11:38Z</time>
      </trkpt>
      <trkpt lat="45.10151" lon="4.81763">
        <ele>123.38600158691</ele>
        <time>2010-10-20T14:11:48Z</time>
      </trkpt>
      <trkpt lat="45.10106" lon="4.81784">
        <ele>124.11499786377</ele>
        <time>2010-10-20T14:11:54Z</time>
      </trkpt>
      <trkpt lat="45.10059" lon="4.81795">
        <ele>123.07299804688</ele>
        <time>2010-10-20T14:11:59Z</time>
      </trkpt>
      <trkpt lat="45.09993" lon="4.81807">
        <ele>121.16799926758</ele>
        <time>2010-10-20T14:12:05Z</time>
      </trkpt>
      <trkpt lat="45.09936" lon="4.81819">
        <ele>120.27200317383</ele>
        <time>2010-10-20T14:12:10Z</time>
      </trkpt>
      <trkpt lat="45.09924" lon="4.81821">
        <ele>120.22599792481</ele>
        <time>2010-10-20T14:12:11Z</time>
      </trkpt>
      <trkpt lat="45.09892" lon="4.81819">
        <ele>120.22200012207</ele>
        <time>2010-10-20T14:12:14Z</time>
      </trkpt>
      <trkpt lat="45.09864" lon="4.81829">
        <ele>120.64700317383</ele>
        <time>2010-10-20T14:12:17Z</time>
      </trkpt>
      <trkpt lat="45.09815" lon="4.81841">
        <ele>119.01100158691</ele>
        <time>2010-10-20T14:12:22Z</time>
      </trkpt>
      <trkpt lat="45.0975" lon="4.81848">
        <ele>119.19400024414</ele>
        <time>2010-10-20T14:12:29Z</time>
      </trkpt>
      <trkpt lat="45.09668" lon="4.81859">
        <ele>119.22200012207</ele>
        <time>2010-10-20T14:12:38Z</time>
      </trkpt>
      <trkpt lat="45.09614" lon="4.81866">
        <ele>119.78099822998</ele>
        <time>2010-10-20T14:12:44Z</time>
      </trkpt>
      <trkpt lat="45.09556" lon="4.81871">
        <ele>120.67400360107</ele>
        <time>2010-10-20T14:12:51Z</time>
      </trkpt>
      <trkpt lat="45.09494" lon="4.81878">
        <ele>122.46800231934</ele>
        <time>2010-10-20T14:12:59Z</time>
      </trkpt>
      <trkpt lat="45.09438" lon="4.81887">
        <ele>123.83000183106</ele>
        <time>2010-10-20T14:13:07Z</time>
      </trkpt>
      <trkpt lat="45.09383" lon="4.81891">
        <ele>123.70600128174</ele>
        <time>2010-10-20T14:13:14Z</time>
      </trkpt>
      <trkpt lat="45.09311" lon="4.81898">
        <ele>122.31600189209</ele>
        <time>2010-10-20T14:13:22Z</time>
      </trkpt>
      <trkpt lat="45.09291" lon="4.81898">
        <ele>121.83899688721</ele>
        <time>2010-10-20T14:13:24Z</time>
      </trkpt>
      <trkpt lat="45.09231" lon="4.8188">
        <ele>120.98699951172</ele>
        <time>2010-10-20T14:13:30Z</time>
      </trkpt>
      <trkpt lat="45.09117" lon="4.81835">
        <ele>120.01999664307</ele>
        <time>2010-10-20T14:13:41Z</time>
      </trkpt>
      <trkpt lat="45.09024" lon="4.81801">
        <ele>120.60900115967</ele>
        <time>2010-10-20T14:13:50Z</time>
      </trkpt>
      <trkpt lat="45.08962" lon="4.81794">
        <ele>119.75299835205</ele>
        <time>2010-10-20T14:13:56Z</time>
      </trkpt>
      <trkpt lat="45.08881" lon="4.81785">
        <ele>119.74700164795</ele>
        <time>2010-10-20T14:14:04Z</time>
      </trkpt>
      <trkpt lat="45.08804" lon="4.81776">
        <ele>120.77600097656</ele>
        <time>2010-10-20T14:14:12Z</time>
      </trkpt>
      <trkpt lat="45.08744" lon="4.81771">
        <ele>121.84200286865</ele>
        <time>2010-10-20T14:14:19Z</time>
      </trkpt>
      <trkpt lat="45.08698" lon="4.81765">
        <ele>123.06600189209</ele>
        <time>2010-10-20T14:14:25Z</time>
      </trkpt>
      <trkpt lat="45.08651" lon="4.8175">
        <ele>124.43900299072</ele>
        <time>2010-10-20T14:14:32Z</time>
      </trkpt>
      <trkpt lat="45.08612" lon="4.81727">
        <ele>125.57399749756</ele>
        <time>2010-10-20T14:14:38Z</time>
      </trkpt>
      <trkpt lat="45.08569" lon="4.81697">
        <ele>123.89199829102</ele>
        <time>2010-10-20T14:14:44Z</time>
      </trkpt>
      <trkpt lat="45.08524" lon="4.81663">
        <ele>122.43900299072</ele>
        <time>2010-10-20T14:14:50Z</time>
      </trkpt>
      <trkpt lat="45.08511" lon="4.81647">
        <ele>122.44599914551</ele>
        <time>2010-10-20T14:14:52Z</time>
      </trkpt>
      <trkpt lat="45.0848" lon="4.81628">
        <ele>122.32599639893</ele>
        <time>2010-10-20T14:14:56Z</time>
      </trkpt>
      <trkpt lat="45.08438" lon="4.81608">
        <ele>122.17600250244</ele>
        <time>2010-10-20T14:15:01Z</time>
      </trkpt>
      <trkpt lat="45.084" lon="4.81584">
        <ele>122.95600128174</ele>
        <time>2010-10-20T14:15:06Z</time>
      </trkpt>
      <trkpt lat="45.08339" lon="4.81543">
        <ele>124.625</ele>
        <time>2010-10-20T14:15:15Z</time>
      </trkpt>
      <trkpt lat="45.08306" lon="4.81524">
        <ele>126.87799835205</ele>
        <time>2010-10-20T14:15:20Z</time>
      </trkpt>
      <trkpt lat="45.08299" lon="4.8152">
        <ele>126.74700164795</ele>
        <time>2010-10-20T14:15:21Z</time>
      </trkpt>
      <trkpt lat="45.08243" lon="4.81488">
        <ele>126.03099822998</ele>
        <time>2010-10-20T14:15:29Z</time>
      </trkpt>
      <trkpt lat="45.08204" lon="4.8147">
        <ele>125.6190032959</ele>
        <time>2010-10-20T14:15:34Z</time>
      </trkpt>
      <trkpt lat="45.08146" lon="4.8145">
        <ele>126.08799743652</ele>
        <time>2010-10-20T14:15:41Z</time>
      </trkpt>
      <trkpt lat="45.08082" lon="4.81428">
        <ele>124.1429977417</ele>
        <time>2010-10-20T14:15:48Z</time>
      </trkpt>
      <trkpt lat="45.08073" lon="4.81424">
        <ele>123.49600219727</ele>
        <time>2010-10-20T14:15:49Z</time>
      </trkpt>
      <trkpt lat="45.08005" lon="4.8137">
        <ele>120.86499786377</ele>
        <time>2010-10-20T14:15:57Z</time>
      </trkpt>
      <trkpt lat="45.07996" lon="4.81364">
        <ele>120.64700317383</ele>
        <time>2010-10-20T14:15:58Z</time>
      </trkpt>
      <trkpt lat="45.07954" lon="4.81357">
        <ele>119.06300354004</ele>
        <time>2010-10-20T14:16:02Z</time>
      </trkpt>
      <trkpt lat="45.07925" lon="4.81378">
        <ele>117.78900146484</ele>
        <time>2010-10-20T14:16:05Z</time>
      </trkpt>
      <trkpt lat="45.07867" lon="4.81424">
        <ele>116.89099884033</ele>
        <time>2010-10-20T14:16:11Z</time>
      </trkpt>
      <trkpt lat="45.0779" lon="4.81474">
        <ele>116.89199829102</ele>
        <time>2010-10-20T14:16:19Z</time>
      </trkpt>
      <trkpt lat="45.07699" lon="4.81531">
        <ele>115.26000213623</ele>
        <time>2010-10-20T14:16:29Z</time>
      </trkpt>
      <trkpt lat="45.07666" lon="4.81553">
        <ele>116.51899719238</ele>
        <time>2010-10-20T14:16:33Z</time>
      </trkpt>
      <trkpt lat="45.07634" lon="4.81562">
        <ele>117.60500335693</ele>
        <time>2010-10-20T14:16:37Z</time>
      </trkpt>
      <trkpt lat="45.07627" lon="4.81568">
        <ele>117.05799865723</ele>
        <time>2010-10-20T14:16:38Z</time>
      </trkpt>
      <trkpt lat="45.07588" lon="4.81601">
        <ele>116.00399780273</ele>
        <time>2010-10-20T14:16:44Z</time>
      </trkpt>
      <trkpt lat="45.07536" lon="4.81635">
        <ele>118.91100311279</ele>
        <time>2010-10-20T14:16:51Z</time>
      </trkpt>
      <trkpt lat="45.07493" lon="4.81666">
        <ele>120.16000366211</ele>
        <time>2010-10-20T14:16:57Z</time>
      </trkpt>
      <trkpt lat="45.07423" lon="4.81717">
        <ele>120.14600372315</ele>
        <time>2010-10-20T14:17:06Z</time>
      </trkpt>
      <trkpt lat="45.07383" lon="4.81751">
        <ele>119.97899627685</ele>
        <time>2010-10-20T14:17:11Z</time>
      </trkpt>
      <trkpt lat="45.07354" lon="4.81799">
        <ele>119.4940032959</ele>
        <time>2010-10-20T14:17:16Z</time>
      </trkpt>
      <trkpt lat="45.07338" lon="4.81853">
        <ele>119.53299713135</ele>
        <time>2010-10-20T14:17:21Z</time>
      </trkpt>
      <trkpt lat="45.07315" lon="4.8195">
        <ele>119.17800140381</ele>
        <time>2010-10-20T14:17:30Z</time>
      </trkpt>
      <trkpt lat="45.07288" lon="4.8204">
        <ele>118.00399780273</ele>
        <time>2010-10-20T14:17:39Z</time>
      </trkpt>
      <trkpt lat="45.07259" lon="4.82128">
        <ele>117.75900268555</ele>
        <time>2010-10-20T14:17:48Z</time>
      </trkpt>
      <trkpt lat="45.07247" lon="4.82166">
        <ele>118.65699768066</ele>
        <time>2010-10-20T14:17:53Z</time>
      </trkpt>
      <trkpt lat="45.07243" lon="4.82174">
        <ele>119</ele>
        <time>2010-10-20T14:17:56Z</time>
      </trkpt>
      <trkpt lat="45.07236" lon="4.8218">
        <ele>118.98600006103</ele>
        <time>2010-10-20T14:17:58Z</time>
      </trkpt>
      <trkpt lat="45.07223" lon="4.82203">
        <ele>118.45400238037</ele>
        <time>2010-10-20T14:18:02Z</time>
      </trkpt>
      <trkpt lat="45.07224" lon="4.82231">
        <ele>118.01100158691</ele>
        <time>2010-10-20T14:18:05Z</time>
      </trkpt>
      <trkpt lat="45.07222" lon="4.82241">
        <ele>118.15599822998</ele>
        <time>2010-10-20T14:18:06Z</time>
      </trkpt>
      <trkpt lat="45.07199" lon="4.82309">
        <ele>116.92800140381</ele>
        <time>2010-10-20T14:18:13Z</time>
      </trkpt>
      <trkpt lat="45.07177" lon="4.82378">
        <ele>115.42500305176</ele>
        <time>2010-10-20T14:18:19Z</time>
      </trkpt>
      <trkpt lat="45.07142" lon="4.82481">
        <ele>114.11599731445</ele>
        <time>2010-10-20T14:18:28Z</time>
      </trkpt>
      <trkpt lat="45.07139" lon="4.8249">
        <ele>114.15000152588</ele>
        <time>2010-10-20T14:18:29Z</time>
      </trkpt>
      <trkpt lat="45.07127" lon="4.82525">
        <ele>114.15699768066</ele>
        <time>2010-10-20T14:18:33Z</time>
      </trkpt>
      <trkpt lat="45.0711" lon="4.8258">
        <ele>113.70500183106</ele>
        <time>2010-10-20T14:18:38Z</time>
      </trkpt>
      <trkpt lat="45.07087" lon="4.82646">
        <ele>114.672996521</ele>
        <time>2010-10-20T14:18:44Z</time>
      </trkpt>
      <trkpt lat="45.07075" lon="4.82687">
        <ele>114.47899627685</ele>
        <time>2010-10-20T14:18:48Z</time>
      </trkpt>
      <trkpt lat="45.07052" lon="4.82744">
        <ele>114.6309967041</ele>
        <time>2010-10-20T14:18:54Z</time>
      </trkpt>
      <trkpt lat="45.07047" lon="4.82753">
        <ele>114.62400054932</ele>
        <time>2010-10-20T14:18:55Z</time>
      </trkpt>
      <trkpt lat="45.07036" lon="4.82769">
        <ele>114.50800323486</ele>
        <time>2010-10-20T14:18:57Z</time>
      </trkpt>
      <trkpt lat="45.07025" lon="4.82786">
        <ele>115.077003479</ele>
        <time>2010-10-20T14:19:00Z</time>
      </trkpt>
      <trkpt lat="45.07023" lon="4.82788">
        <ele>115.34700012207</ele>
        <time>2010-10-20T14:19:01Z</time>
      </trkpt>
      <trkpt lat="45.0701" lon="4.82806">
        <ele>115.22599792481</ele>
        <time>2010-10-20T14:19:05Z</time>
      </trkpt>
      <trkpt lat="45.06989" lon="4.82841">
        <ele>114.87400054932</ele>
        <time>2010-10-20T14:19:10Z</time>
      </trkpt>
      <trkpt lat="45.06947" lon="4.82898">
        <ele>114.58399963379</ele>
        <time>2010-10-20T14:19:17Z</time>
      </trkpt>
      <trkpt lat="45.06897" lon="4.82968">
        <ele>114.92199707031</ele>
        <time>2010-10-20T14:19:25Z</time>
      </trkpt>
      <trkpt lat="45.06887" lon="4.82989">
        <ele>114.9049987793</ele>
        <time>2010-10-20T14:19:27Z</time>
      </trkpt>
      <trkpt lat="45.06875" lon="4.83032">
        <ele>115.58200073242</ele>
        <time>2010-10-20T14:19:31Z</time>
      </trkpt>
      <trkpt lat="45.06869" lon="4.83072">
        <ele>115.51300048828</ele>
        <time>2010-10-20T14:19:36Z</time>
      </trkpt>
      <trkpt lat="45.06868" lon="4.83082">
        <ele>115.46499633789</ele>
        <time>2010-10-20T14:19:37Z</time>
      </trkpt>
      <trkpt lat="45.06866" lon="4.83105">
        <ele>115.20899963379</ele>
        <time>2010-10-20T14:19:39Z</time>
      </trkpt>
      <trkpt lat="45.06869" lon="4.83195">
        <ele>115.05599975586</ele>
        <time>2010-10-20T14:19:47Z</time>
      </trkpt>
      <trkpt lat="45.06868" lon="4.83217">
        <ele>115.37699890137</ele>
        <time>2010-10-20T14:19:49Z</time>
      </trkpt>
      <trkpt lat="45.06864" lon="4.83251">
        <ele>117.02899932861</ele>
        <time>2010-10-20T14:19:52Z</time>
      </trkpt>
      <trkpt lat="45.0685" lon="4.83307">
        <ele>117.29699707031</ele>
        <time>2010-10-20T14:19:57Z</time>
      </trkpt>
      <trkpt lat="45.06847" lon="4.83318">
        <ele>117.12400054932</ele>
        <time>2010-10-20T14:19:58Z</time>
      </trkpt>
      <trkpt lat="45.06823" lon="4.83364">
        <ele>116.6190032959</ele>
        <time>2010-10-20T14:20:03Z</time>
      </trkpt>
      <trkpt lat="45.06806" lon="4.83395">
        <ele>116.66799926758</ele>
        <time>2010-10-20T14:20:07Z</time>
      </trkpt>
      <trkpt lat="45.06803" lon="4.834">
        <ele>117.06199645996</ele>
        <time>2010-10-20T14:20:08Z</time>
      </trkpt>
      <trkpt lat="45.06784" lon="4.83434">
        <ele>117.99299621582</ele>
        <time>2010-10-20T14:20:14Z</time>
      </trkpt>
      <trkpt lat="45.06767" lon="4.83442">
        <ele>119.30999755859</ele>
        <time>2010-10-20T14:20:17Z</time>
      </trkpt>
      <trkpt lat="45.0675" lon="4.8344">
        <ele>118.82299804688</ele>
        <time>2010-10-20T14:20:20Z</time>
      </trkpt>
      <trkpt lat="45.06738" lon="4.83441">
        <ele>118.172996521</ele>
        <time>2010-10-20T14:20:22Z</time>
      </trkpt>
      <trkpt lat="45.0672" lon="4.83448">
        <ele>118.03600311279</ele>
        <time>2010-10-20T14:20:27Z</time>
      </trkpt>
      <trkpt lat="45.06712" lon="4.8345">
        <ele>118.46499633789</ele>
        <time>2010-10-20T14:20:32Z</time>
      </trkpt>
      <trkpt lat="45.06709" lon="4.8345">
        <ele>118.42900085449</ele>
        <time>2010-10-20T14:20:33Z</time>
      </trkpt>
      <trkpt lat="45.06691" lon="4.83455">
        <ele>117.59100341797</ele>
        <time>2010-10-20T14:20:37Z</time>
      </trkpt>
      <trkpt lat="45.06643" lon="4.83465">
        <ele>117.21800231934</ele>
        <time>2010-10-20T14:20:45Z</time>
      </trkpt>
      <trkpt lat="45.06591" lon="4.83475">
        <ele>117.32099914551</ele>
        <time>2010-10-20T14:20:53Z</time>
      </trkpt>
      <trkpt lat="45.06566" lon="4.83472">
        <ele>117.88300323486</ele>
        <time>2010-10-20T14:20:57Z</time>
      </trkpt>
      <trkpt lat="45.06547" lon="4.83475">
        <ele>117.93699645996</ele>
        <time>2010-10-20T14:21:00Z</time>
      </trkpt>
      <trkpt lat="45.06525" lon="4.83491">
        <ele>117.90200042725</ele>
        <time>2010-10-20T14:21:04Z</time>
      </trkpt>
      <trkpt lat="45.06487" lon="4.83531">
        <ele>117.12799835205</ele>
        <time>2010-10-20T14:21:11Z</time>
      </trkpt>
      <trkpt lat="45.06475" lon="4.83541">
        <ele>116.77600097656</ele>
        <time>2010-10-20T14:21:13Z</time>
      </trkpt>
      <trkpt lat="45.06461" lon="4.83557">
        <ele>116.8629989624</ele>
        <time>2010-10-20T14:21:16Z</time>
      </trkpt>
      <trkpt lat="45.06448" lon="4.83573">
        <ele>116.98500061035</ele>
        <time>2010-10-20T14:21:20Z</time>
      </trkpt>
      <trkpt lat="45.06443" lon="4.83594">
        <ele>116.95600128174</ele>
        <time>2010-10-20T14:21:24Z</time>
      </trkpt>
      <trkpt lat="45.06439" lon="4.83605">
        <ele>117.10399627685</ele>
        <time>2010-10-20T14:21:27Z</time>
      </trkpt>
      <trkpt lat="45.06441" lon="4.8361">
        <ele>117.18299865723</ele>
        <time>2010-10-20T14:21:30Z</time>
      </trkpt>
      <trkpt lat="45.06443" lon="4.8361">
        <ele>117.30899810791</ele>
        <time>2010-10-20T14:21:32Z</time>
      </trkpt>
      <trkpt lat="45.06448" lon="4.83608">
        <ele>116.91500091553</ele>
        <time>2010-10-20T14:22:00Z</time>
      </trkpt>
      <trkpt lat="45.06451" lon="4.83616">
        <ele>117.07099914551</ele>
        <time>2010-10-20T14:22:03Z</time>
      </trkpt>
      <trkpt lat="45.06455" lon="4.83645">
        <ele>116.80699920654</ele>
        <time>2010-10-20T14:22:12Z</time>
      </trkpt>
      <trkpt lat="45.06451" lon="4.83644">
        <ele>116.69100189209</ele>
        <time>2010-10-20T14:22:16Z</time>
      </trkpt>
      <trkpt lat="45.06451" lon="4.83633">
        <ele>116.71600341797</ele>
        <time>2010-10-20T14:22:21Z</time>
      </trkpt>
      <trkpt lat="45.06452" lon="4.83626">
        <ele>117.21399688721</ele>
        <time>2010-10-20T14:22:26Z</time>
      </trkpt>
      <trkpt lat="45.06455" lon="4.83634">
        <ele>117.35399627685</ele>
        <time>2010-10-20T14:22:30Z</time>
      </trkpt>
      <trkpt lat="45.06455" lon="4.8365">
        <ele>116.78600311279</ele>
        <time>2010-10-20T14:22:33Z</time>
      </trkpt>
      <trkpt lat="45.06456" lon="4.83664">
        <ele>116.72899627685</ele>
        <time>2010-10-20T14:22:35Z</time>
      </trkpt>
      <trkpt lat="45.06453" lon="4.83708">
        <ele>116.46700286865</ele>
        <time>2010-10-20T14:22:41Z</time>
      </trkpt>
      <trkpt lat="45.06444" lon="4.83778">
        <ele>114.85800170898</ele>
        <time>2010-10-20T14:22:49Z</time>
      </trkpt>
      <trkpt lat="45.06438" lon="4.83835">
        <ele>114.47100067139</ele>
        <time>2010-10-20T14:22:55Z</time>
      </trkpt>
      <trkpt lat="45.06434" lon="4.8387">
        <ele>114.18699645996</ele>
        <time>2010-10-20T14:22:59Z</time>
      </trkpt>
      <trkpt lat="45.0643" lon="4.83951">
        <ele>115.59799957275</ele>
        <time>2010-10-20T14:23:08Z</time>
      </trkpt>
      <trkpt lat="45.0643" lon="4.84014">
        <ele>114.74099731445</ele>
        <time>2010-10-20T14:23:15Z</time>
      </trkpt>
      <trkpt lat="45.0643" lon="4.8405">
        <ele>114.44999694824</ele>
        <time>2010-10-20T14:23:20Z</time>
      </trkpt>
      <trkpt lat="45.0643" lon="4.84066">
        <ele>114.91100311279</ele>
        <time>2010-10-20T14:23:25Z</time>
      </trkpt>
      <trkpt lat="45.0643" lon="4.84067">
        <ele>114.82800292969</ele>
        <time>2010-10-20T14:23:27Z</time>
      </trkpt>
      <trkpt lat="45.0643" lon="4.84072">
        <ele>115.28399658203</ele>
        <time>2010-10-20T14:24:05Z</time>
      </trkpt>
      <trkpt lat="45.0643" lon="4.84076">
        <ele>115.13899993897</ele>
        <time>2010-10-20T14:24:06Z</time>
      </trkpt>
      <trkpt lat="45.06445" lon="4.84088">
        <ele>114.99600219727</ele>
        <time>2010-10-20T14:24:10Z</time>
      </trkpt>
      <trkpt lat="45.06457" lon="4.84079">
        <ele>114.91300201416</ele>
        <time>2010-10-20T14:24:12Z</time>
      </trkpt>
      <trkpt lat="45.06478" lon="4.84059">
        <ele>115.53800201416</ele>
        <time>2010-10-20T14:24:16Z</time>
      </trkpt>
      <trkpt lat="45.06489" lon="4.84051">
        <ele>115.79900360107</ele>
        <time>2010-10-20T14:24:18Z</time>
      </trkpt>
      <trkpt lat="45.06505" lon="4.84038">
        <ele>116.65399932861</ele>
        <time>2010-10-20T14:24:21Z</time>
      </trkpt>
      <trkpt lat="45.0652" lon="4.84025">
        <ele>117.18199920654</ele>
        <time>2010-10-20T14:24:25Z</time>
      </trkpt>
      <trkpt lat="45.06524" lon="4.84024">
        <ele>117.98300170898</ele>
        <time>2010-10-20T14:24:29Z</time>
      </trkpt>
      <trkpt lat="45.0653" lon="4.84023">
        <ele>117.6549987793</ele>
        <time>2010-10-20T14:24:33Z</time>
      </trkpt>
      <trkpt lat="45.06534" lon="4.8402">
        <ele>118.03199768066</ele>
        <time>2010-10-20T14:24:35Z</time>
      </trkpt>
      <trkpt lat="45.06546" lon="4.84014">
        <ele>118.18699645996</ele>
        <time>2010-10-20T14:24:39Z</time>
      </trkpt>
      <trkpt lat="45.0656" lon="4.84013">
        <ele>118.03700256348</ele>
        <time>2010-10-20T14:24:42Z</time>
      </trkpt>
      <trkpt lat="45.06587" lon="4.84026">
        <ele>117.28299713135</ele>
        <time>2010-10-20T14:24:47Z</time>
      </trkpt>
      <trkpt lat="45.06612" lon="4.84041">
        <ele>117.84999847412</ele>
        <time>2010-10-20T14:24:51Z</time>
      </trkpt>
      <trkpt lat="45.06648" lon="4.84064">
        <ele>118.95400238037</ele>
        <time>2010-10-20T14:24:57Z</time>
      </trkpt>
      <trkpt lat="45.06692" lon="4.84091">
        <ele>118.06999969482</ele>
        <time>2010-10-20T14:25:05Z</time>
      </trkpt>
      <trkpt lat="45.06738" lon="4.8412">
        <ele>119.21299743652</ele>
        <time>2010-10-20T14:25:13Z</time>
      </trkpt>
      <trkpt lat="45.06785" lon="4.84148">
        <ele>118.20899963379</ele>
        <time>2010-10-20T14:25:20Z</time>
      </trkpt>
      <trkpt lat="45.06835" lon="4.84177">
        <ele>115.56600189209</ele>
        <time>2010-10-20T14:25:27Z</time>
      </trkpt>
      <trkpt lat="45.0687" lon="4.84201">
        <ele>114.60399627685</ele>
        <time>2010-10-20T14:25:32Z</time>
      </trkpt>
      <trkpt lat="45.06876" lon="4.84205">
        <ele>114.13400268555</ele>
        <time>2010-10-20T14:25:33Z</time>
      </trkpt>
      <trkpt lat="45.06886" lon="4.84214">
        <ele>113.86100006103</ele>
        <time>2010-10-20T14:25:35Z</time>
      </trkpt>
      <trkpt lat="45.06896" lon="4.84242">
        <ele>114.17800140381</ele>
        <time>2010-10-20T14:25:39Z</time>
      </trkpt>
      <trkpt lat="45.06894" lon="4.84259">
        <ele>113.99099731445</ele>
        <time>2010-10-20T14:25:41Z</time>
      </trkpt>
      <trkpt lat="45.06888" lon="4.84284">
        <ele>114.14399719238</ele>
        <time>2010-10-20T14:25:44Z</time>
      </trkpt>
      <trkpt lat="45.06878" lon="4.8433">
        <ele>114.53900146484</ele>
        <time>2010-10-20T14:25:50Z</time>
      </trkpt>
      <trkpt lat="45.06872" lon="4.84347">
        <ele>114.52400207519</ele>
        <time>2010-10-20T14:25:54Z</time>
      </trkpt>
      <trkpt lat="45.06884" lon="4.84355">
        <ele>113.54499816894</ele>
        <time>2010-10-20T14:25:58Z</time>
      </trkpt>
      <trkpt lat="45.06914" lon="4.84353">
        <ele>112.82800292969</ele>
        <time>2010-10-20T14:26:03Z</time>
      </trkpt>
      <trkpt lat="45.0696" lon="4.84349">
        <ele>113.23300170898</ele>
        <time>2010-10-20T14:26:10Z</time>
      </trkpt>
      <trkpt lat="45.06998" lon="4.84346">
        <ele>113.44599914551</ele>
        <time>2010-10-20T14:26:16Z</time>
      </trkpt>
      <trkpt lat="45.07016" lon="4.84345">
        <ele>113.7620010376</ele>
        <time>2010-10-20T14:26:19Z</time>
      </trkpt>
      <trkpt lat="45.07035" lon="4.84358">
        <ele>114.12200164795</ele>
        <time>2010-10-20T14:26:23Z</time>
      </trkpt>
      <trkpt lat="45.07035" lon="4.84382">
        <ele>114.17400360107</ele>
        <time>2010-10-20T14:26:26Z</time>
      </trkpt>
      <trkpt lat="45.07035" lon="4.84391">
        <ele>114.28800201416</ele>
        <time>2010-10-20T14:26:27Z</time>
      </trkpt>
      <trkpt lat="45.07026" lon="4.84477">
        <ele>114.31500244141</ele>
        <time>2010-10-20T14:26:36Z</time>
      </trkpt>
      <trkpt lat="45.07019" lon="4.84546">
        <ele>114.24199676514</ele>
        <time>2010-10-20T14:26:43Z</time>
      </trkpt>
      <trkpt lat="45.07016" lon="4.84594">
        <ele>113.00399780273</ele>
        <time>2010-10-20T14:26:48Z</time>
      </trkpt>
      <trkpt lat="45.07018" lon="4.84614">
        <ele>115.09400177002</ele>
        <time>2010-10-20T14:26:50Z</time>
      </trkpt>
      <trkpt lat="45.07033" lon="4.84683">
        <ele>115.34600067139</ele>
        <time>2010-10-20T14:26:57Z</time>
      </trkpt>
      <trkpt lat="45.07043" lon="4.8475">
        <ele>115.63600158691</ele>
        <time>2010-10-20T14:27:04Z</time>
      </trkpt>
      <trkpt lat="45.07052" lon="4.84843">
        <ele>113.66000366211</ele>
        <time>2010-10-20T14:27:13Z</time>
      </trkpt>
      <trkpt lat="45.07066" lon="4.84902">
        <ele>110.02500152588</ele>
        <time>2010-10-20T14:27:18Z</time>
      </trkpt>
      <trkpt lat="45.0708" lon="4.84955">
        <ele>111.21900177002</ele>
        <time>2010-10-20T14:27:23Z</time>
      </trkpt>
      <trkpt lat="45.07081" lon="4.85001">
        <ele>112.8570022583</ele>
        <time>2010-10-20T14:27:28Z</time>
      </trkpt>
      <trkpt lat="45.07076" lon="4.85033">
        <ele>114.67600250244</ele>
        <time>2010-10-20T14:27:32Z</time>
      </trkpt>
      <trkpt lat="45.07073" lon="4.85057">
        <ele>115.36599731445</ele>
        <time>2010-10-20T14:27:35Z</time>
      </trkpt>
      <trkpt lat="45.07075" lon="4.85118">
        <ele>114.94000244141</ele>
        <time>2010-10-20T14:27:42Z</time>
      </trkpt>
      <trkpt lat="45.07082" lon="4.85182">
        <ele>115.33499908447</ele>
        <time>2010-10-20T14:27:49Z</time>
      </trkpt>
      <trkpt lat="45.07085" lon="4.85256">
        <ele>115.38800048828</ele>
        <time>2010-10-20T14:27:57Z</time>
      </trkpt>
      <trkpt lat="45.07087" lon="4.85336">
        <ele>115.7919998169</ele>
        <time>2010-10-20T14:28:06Z</time>
      </trkpt>
      <trkpt lat="45.07088" lon="4.85407">
        <ele>117.0830001831</ele>
        <time>2010-10-20T14:28:14Z</time>
      </trkpt>
      <trkpt lat="45.07093" lon="4.85488">
        <ele>117.28099822998</ele>
        <time>2010-10-20T14:28:23Z</time>
      </trkpt>
      <trkpt lat="45.07093" lon="4.85533">
        <ele>118.62400054932</ele>
        <time>2010-10-20T14:28:28Z</time>
      </trkpt>
      <trkpt lat="45.07087" lon="4.85617">
        <ele>119.16999816894</ele>
        <time>2010-10-20T14:28:37Z</time>
      </trkpt>
      <trkpt lat="45.07082" lon="4.85722">
        <ele>119.55999755859</ele>
        <time>2010-10-20T14:28:49Z</time>
      </trkpt>
      <trkpt lat="45.07078" lon="4.85787">
        <ele>121.33999633789</ele>
        <time>2010-10-20T14:28:57Z</time>
      </trkpt>
      <trkpt lat="45.07074" lon="4.85815">
        <ele>122.56999969482</ele>
        <time>2010-10-20T14:29:02Z</time>
      </trkpt>
      <trkpt lat="45.07072" lon="4.85824">
        <ele>123.28600311279</ele>
        <time>2010-10-20T14:29:04Z</time>
      </trkpt>
      <trkpt lat="45.07072" lon="4.85855">
        <ele>123.49199676514</ele>
        <time>2010-10-20T14:29:09Z</time>
      </trkpt>
      <trkpt lat="45.07064" lon="4.85913">
        <ele>122.60900115967</ele>
        <time>2010-10-20T14:29:16Z</time>
      </trkpt>
      <trkpt lat="45.0706" lon="4.85978">
        <ele>122.17900085449</ele>
        <time>2010-10-20T14:29:23Z</time>
      </trkpt>
      <trkpt lat="45.07064" lon="4.86056">
        <ele>121.56300354004</ele>
        <time>2010-10-20T14:29:31Z</time>
      </trkpt>
      <trkpt lat="45.07069" lon="4.86133">
        <ele>120.30500030518</ele>
        <time>2010-10-20T14:29:39Z</time>
      </trkpt>
      <trkpt lat="45.07071" lon="4.86201">
        <ele>122.87100219727</ele>
        <time>2010-10-20T14:29:46Z</time>
      </trkpt>
      <trkpt lat="45.07069" lon="4.8623">
        <ele>121.91100311279</ele>
        <time>2010-10-20T14:29:49Z</time>
      </trkpt>
      <trkpt lat="45.07056" lon="4.86293">
        <ele>122.97899627685</ele>
        <time>2010-10-20T14:29:56Z</time>
      </trkpt>
      <trkpt lat="45.07047" lon="4.86318">
        <ele>123.25299835205</ele>
        <time>2010-10-20T14:29:59Z</time>
      </trkpt>
      <trkpt lat="45.07024" lon="4.86367">
        <ele>123.8809967041</ele>
        <time>2010-10-20T14:30:05Z</time>
      </trkpt>
      <trkpt lat="45.07006" lon="4.86394">
        <ele>123.41100311279</ele>
        <time>2010-10-20T14:30:09Z</time>
      </trkpt>
      <trkpt lat="45.06991" lon="4.86424">
        <ele>124.17900085449</ele>
        <time>2010-10-20T14:30:13Z</time>
      </trkpt>
      <trkpt lat="45.06992" lon="4.86452">
        <ele>123.55699920654</ele>
        <time>2010-10-20T14:30:16Z</time>
      </trkpt>
      <trkpt lat="45.07" lon="4.86474">
        <ele>122.49199676514</ele>
        <time>2010-10-20T14:30:19Z</time>
      </trkpt>
      <trkpt lat="45.0701" lon="4.86484">
        <ele>121.81300354004</ele>
        <time>2010-10-20T14:30:21Z</time>
      </trkpt>
      <trkpt lat="45.07027" lon="4.86491">
        <ele>123.57299804688</ele>
        <time>2010-10-20T14:30:24Z</time>
      </trkpt>
      <trkpt lat="45.0705" lon="4.86488">
        <ele>123.43599700928</ele>
        <time>2010-10-20T14:30:28Z</time>
      </trkpt>
      <trkpt lat="45.07065" lon="4.86499">
        <ele>121.62400054932</ele>
        <time>2010-10-20T14:30:31Z</time>
      </trkpt>
      <trkpt lat="45.07073" lon="4.86509">
        <ele>121.69499969482</ele>
        <time>2010-10-20T14:30:33Z</time>
      </trkpt>
      <trkpt lat="45.07082" lon="4.86525">
        <ele>122.76399993897</ele>
        <time>2010-10-20T14:30:36Z</time>
      </trkpt>
      <trkpt lat="45.07088" lon="4.86543">
        <ele>125.33899688721</ele>
        <time>2010-10-20T14:30:39Z</time>
      </trkpt>
      <trkpt lat="45.0709" lon="4.86556">
        <ele>126.08799743652</ele>
        <time>2010-10-20T14:30:41Z</time>
      </trkpt>
      <trkpt lat="45.0709" lon="4.86563">
        <ele>126.02799987793</ele>
        <time>2010-10-20T14:30:42Z</time>
      </trkpt>
      <trkpt lat="45.07088" lon="4.86589">
        <ele>126.72200012207</ele>
        <time>2010-10-20T14:30:46Z</time>
      </trkpt>
      <trkpt lat="45.07083" lon="4.86608">
        <ele>127.00099945068</ele>
        <time>2010-10-20T14:30:49Z</time>
      </trkpt>
      <trkpt lat="45.07061" lon="4.86652">
        <ele>129.58599853516</ele>
        <time>2010-10-20T14:30:57Z</time>
      </trkpt>
      <trkpt lat="45.07037" lon="4.86702">
        <ele>131.18600463867</ele>
        <time>2010-10-20T14:31:06Z</time>
      </trkpt>
      <trkpt lat="45.07025" lon="4.86756">
        <ele>134.13400268555</ele>
        <time>2010-10-20T14:31:14Z</time>
      </trkpt>
      <trkpt lat="45.07021" lon="4.86802">
        <ele>134.84599304199</ele>
        <time>2010-10-20T14:31:21Z</time>
      </trkpt>
      <trkpt lat="45.07019" lon="4.86835">
        <ele>135.56199645996</ele>
        <time>2010-10-20T14:31:27Z</time>
      </trkpt>
      <trkpt lat="45.07013" lon="4.8688">
        <ele>136.60299682617</ele>
        <time>2010-10-20T14:31:34Z</time>
      </trkpt>
      <trkpt lat="45.07003" lon="4.8693">
        <ele>137.01499938965</ele>
        <time>2010-10-20T14:31:41Z</time>
      </trkpt>
      <trkpt lat="45.06986" lon="4.87001">
        <ele>136.70799255371</ele>
        <time>2010-10-20T14:31:50Z</time>
      </trkpt>
      <trkpt lat="45.06964" lon="4.87056">
        <ele>136.4640045166</ele>
        <time>2010-10-20T14:31:57Z</time>
      </trkpt>
      <trkpt lat="45.06928" lon="4.87125">
        <ele>136.95700073242</ele>
        <time>2010-10-20T14:32:06Z</time>
      </trkpt>
      <trkpt lat="45.06893" lon="4.87194">
        <ele>136.27099609375</ele>
        <time>2010-10-20T14:32:15Z</time>
      </trkpt>
      <trkpt lat="45.06871" lon="4.87255">
        <ele>136.82899475098</ele>
        <time>2010-10-20T14:32:22Z</time>
      </trkpt>
      <trkpt lat="45.06857" lon="4.87321">
        <ele>137.19200134277</ele>
        <time>2010-10-20T14:32:29Z</time>
      </trkpt>
      <trkpt lat="45.06845" lon="4.87398">
        <ele>136.28199768066</ele>
        <time>2010-10-20T14:32:37Z</time>
      </trkpt>
      <trkpt lat="45.06845" lon="4.87457">
        <ele>137.11000061035</ele>
        <time>2010-10-20T14:32:43Z</time>
      </trkpt>
      <trkpt lat="45.06838" lon="4.87493">
        <ele>136.91799926758</ele>
        <time>2010-10-20T14:32:47Z</time>
      </trkpt>
      <trkpt lat="45.06839" lon="4.87522">
        <ele>136.69000244141</ele>
        <time>2010-10-20T14:32:50Z</time>
      </trkpt>
      <trkpt lat="45.06838" lon="4.87532">
        <ele>136.61000061035</ele>
        <time>2010-10-20T14:32:51Z</time>
      </trkpt>
      <trkpt lat="45.06822" lon="4.87598">
        <ele>137.82400512695</ele>
        <time>2010-10-20T14:32:58Z</time>
      </trkpt>
      <trkpt lat="45.06813" lon="4.87645">
        <ele>137.60800170898</ele>
        <time>2010-10-20T14:33:03Z</time>
      </trkpt>
      <trkpt lat="45.06809" lon="4.87698">
        <ele>139.41299438477</ele>
        <time>2010-10-20T14:33:09Z</time>
      </trkpt>
      <trkpt lat="45.06801" lon="4.87759">
        <ele>140.61199951172</ele>
        <time>2010-10-20T14:33:17Z</time>
      </trkpt>
      <trkpt lat="45.06792" lon="4.87808">
        <ele>141.67799377441</ele>
        <time>2010-10-20T14:33:24Z</time>
      </trkpt>
      <trkpt lat="45.06776" lon="4.87869">
        <ele>144.50399780273</ele>
        <time>2010-10-20T14:33:32Z</time>
      </trkpt>
      <trkpt lat="45.0676" lon="4.87929">
        <ele>146.14100646973</ele>
        <time>2010-10-20T14:33:40Z</time>
      </trkpt>
      <trkpt lat="45.0674" lon="4.88005">
        <ele>145.85099792481</ele>
        <time>2010-10-20T14:33:49Z</time>
      </trkpt>
      <trkpt lat="45.06724" lon="4.88065">
        <ele>145.65600585938</ele>
        <time>2010-10-20T14:33:56Z</time>
      </trkpt>
      <trkpt lat="45.06701" lon="4.88152">
        <ele>147.61500549316</ele>
        <time>2010-10-20T14:34:06Z</time>
      </trkpt>
      <trkpt lat="45.0668" lon="4.88231">
        <ele>148.15199279785</ele>
        <time>2010-10-20T14:34:15Z</time>
      </trkpt>
      <trkpt lat="45.06665" lon="4.88291">
        <ele>149.47099304199</ele>
        <time>2010-10-20T14:34:22Z</time>
      </trkpt>
      <trkpt lat="45.06654" lon="4.88375">
        <ele>149.08000183106</ele>
        <time>2010-10-20T14:34:31Z</time>
      </trkpt>
      <trkpt lat="45.06644" lon="4.88464">
        <ele>149.12800598144</ele>
        <time>2010-10-20T14:34:40Z</time>
      </trkpt>
      <trkpt lat="45.06635" lon="4.88545">
        <ele>149.26899719238</ele>
        <time>2010-10-20T14:34:48Z</time>
      </trkpt>
      <trkpt lat="45.06634" lon="4.88555">
        <ele>149.56500244141</ele>
        <time>2010-10-20T14:34:49Z</time>
      </trkpt>
      <trkpt lat="45.06625" lon="4.88628">
        <ele>149.36199951172</ele>
        <time>2010-10-20T14:34:56Z</time>
      </trkpt>
      <trkpt lat="45.06613" lon="4.88733">
        <ele>149.18200683594</ele>
        <time>2010-10-20T14:35:06Z</time>
      </trkpt>
      <trkpt lat="45.066" lon="4.88838">
        <ele>148.74299621582</ele>
        <time>2010-10-20T14:35:16Z</time>
      </trkpt>
      <trkpt lat="45.06591" lon="4.88916">
        <ele>148.2619934082</ele>
        <time>2010-10-20T14:35:23Z</time>
      </trkpt>
      <trkpt lat="45.06583" lon="4.8899">
        <ele>148.75700378418</ele>
        <time>2010-10-20T14:35:30Z</time>
      </trkpt>
      <trkpt lat="45.06577" lon="4.89046">
        <ele>149.97399902344</ele>
        <time>2010-10-20T14:35:36Z</time>
      </trkpt>
      <trkpt lat="45.06576" lon="4.89054">
        <ele>149.47900390625</ele>
        <time>2010-10-20T14:35:37Z</time>
      </trkpt>
      <trkpt lat="45.0658" lon="4.89069">
        <ele>148.72300720215</ele>
        <time>2010-10-20T14:35:39Z</time>
      </trkpt>
      <trkpt lat="45.0659" lon="4.89073">
        <ele>148.47999572754</ele>
        <time>2010-10-20T14:35:41Z</time>
      </trkpt>
      <trkpt lat="45.06612" lon="4.89066">
        <ele>147.98399353027</ele>
        <time>2010-10-20T14:35:45Z</time>
      </trkpt>
      <trkpt lat="45.06657" lon="4.89067">
        <ele>148.46899414062</ele>
        <time>2010-10-20T14:35:53Z</time>
      </trkpt>
      <trkpt lat="45.06698" lon="4.89065">
        <ele>149.41299438477</ele>
        <time>2010-10-20T14:36:00Z</time>
      </trkpt>
      <trkpt lat="45.06745" lon="4.89065">
        <ele>148.80000305176</ele>
        <time>2010-10-20T14:36:08Z</time>
      </trkpt>
      <trkpt lat="45.06798" lon="4.89069">
        <ele>149.22999572754</ele>
        <time>2010-10-20T14:36:17Z</time>
      </trkpt>
      <trkpt lat="45.06845" lon="4.89072">
        <ele>149.53900146484</ele>
        <time>2010-10-20T14:36:25Z</time>
      </trkpt>
      <trkpt lat="45.06898" lon="4.89075">
        <ele>149.2200012207</ele>
        <time>2010-10-20T14:36:34Z</time>
      </trkpt>
      <trkpt lat="45.06952" lon="4.89075">
        <ele>150.31900024414</ele>
        <time>2010-10-20T14:36:43Z</time>
      </trkpt>
      <trkpt lat="45.07006" lon="4.89077">
        <ele>150.73500061035</ele>
        <time>2010-10-20T14:36:52Z</time>
      </trkpt>
      <trkpt lat="45.07041" lon="4.89079">
        <ele>150.97700500488</ele>
        <time>2010-10-20T14:36:58Z</time>
      </trkpt>
      <trkpt lat="45.07071" lon="4.89079">
        <ele>150.38000488281</ele>
        <time>2010-10-20T14:37:03Z</time>
      </trkpt>
      <trkpt lat="45.07098" lon="4.89065">
        <ele>152.70500183106</ele>
        <time>2010-10-20T14:37:08Z</time>
      </trkpt>
      <trkpt lat="45.07118" lon="4.89045">
        <ele>152.20399475098</ele>
        <time>2010-10-20T14:37:12Z</time>
      </trkpt>
      <trkpt lat="45.07165" lon="4.8902">
        <ele>153.14799499512</ele>
        <time>2010-10-20T14:37:20Z</time>
      </trkpt>
      <trkpt lat="45.07208" lon="4.88993">
        <ele>153.02900695801</ele>
        <time>2010-10-20T14:37:28Z</time>
      </trkpt>
      <trkpt lat="45.0723" lon="4.88985">
        <ele>153.44099426269</ele>
        <time>2010-10-20T14:37:32Z</time>
      </trkpt>
      <trkpt lat="45.0728" lon="4.88974">
        <ele>152.92199707031</ele>
        <time>2010-10-20T14:37:41Z</time>
      </trkpt>
      <trkpt lat="45.07331" lon="4.88967">
        <ele>152.80299377441</ele>
        <time>2010-10-20T14:37:50Z</time>
      </trkpt>
      <trkpt lat="45.07363" lon="4.88953">
        <ele>153.87699890137</ele>
        <time>2010-10-20T14:37:56Z</time>
      </trkpt>
      <trkpt lat="45.07378" lon="4.88944">
        <ele>153.78100585938</ele>
        <time>2010-10-20T14:37:59Z</time>
      </trkpt>
      <trkpt lat="45.07403" lon="4.88935">
        <ele>154.92399597168</ele>
        <time>2010-10-20T14:38:04Z</time>
      </trkpt>
      <trkpt lat="45.07421" lon="4.88924">
        <ele>156.30900573731</ele>
        <time>2010-10-20T14:38:08Z</time>
      </trkpt>
      <trkpt lat="45.07439" lon="4.88929">
        <ele>155.62399291992</ele>
        <time>2010-10-20T14:38:12Z</time>
      </trkpt>
      <trkpt lat="45.07444" lon="4.88932">
        <ele>155.64599609375</ele>
        <time>2010-10-20T14:38:13Z</time>
      </trkpt>
      <trkpt lat="45.07496" lon="4.88955">
        <ele>156.57899475098</ele>
        <time>2010-10-20T14:38:23Z</time>
      </trkpt>
      <trkpt lat="45.07506" lon="4.88961">
        <ele>156.3450012207</ele>
        <time>2010-10-20T14:38:25Z</time>
      </trkpt>
      <trkpt lat="45.07527" lon="4.88967">
        <ele>157.22300720215</ele>
        <time>2010-10-20T14:38:29Z</time>
      </trkpt>
      <trkpt lat="45.07555" lon="4.88986">
        <ele>157.33099365234</ele>
        <time>2010-10-20T14:38:35Z</time>
      </trkpt>
      <trkpt lat="45.0756" lon="4.8899">
        <ele>157.63999938965</ele>
        <time>2010-10-20T14:38:36Z</time>
      </trkpt>
      <trkpt lat="45.07574" lon="4.89011">
        <ele>159.87899780273</ele>
        <time>2010-10-20T14:38:40Z</time>
      </trkpt>
      <trkpt lat="45.07597" lon="4.89053">
        <ele>161.06900024414</ele>
        <time>2010-10-20T14:38:48Z</time>
      </trkpt>
      <trkpt lat="45.07606" lon="4.89066">
        <ele>162.17900085449</ele>
        <time>2010-10-20T14:38:51Z</time>
      </trkpt>
      <trkpt lat="45.07631" lon="4.89092">
        <ele>163.34800720215</ele>
        <time>2010-10-20T14:38:58Z</time>
      </trkpt>
      <trkpt lat="45.07634" lon="4.89096">
        <ele>163.28999328613</ele>
        <time>2010-10-20T14:38:59Z</time>
      </trkpt>
      <trkpt lat="45.07659" lon="4.89118">
        <ele>165.08099365234</ele>
        <time>2010-10-20T14:39:06Z</time>
      </trkpt>
      <trkpt lat="45.07683" lon="4.89138">
        <ele>166.60200500488</ele>
        <time>2010-10-20T14:39:13Z</time>
      </trkpt>
      <trkpt lat="45.077" lon="4.89156">
        <ele>167.73599243164</ele>
        <time>2010-10-20T14:39:19Z</time>
      </trkpt>
      <trkpt lat="45.07712" lon="4.89162">
        <ele>168.26499938965</ele>
        <time>2010-10-20T14:39:23Z</time>
      </trkpt>
      <trkpt lat="45.07719" lon="4.89161">
        <ele>168.5950012207</ele>
        <time>2010-10-20T14:39:25Z</time>
      </trkpt>
      <trkpt lat="45.07732" lon="4.89163">
        <ele>168.55099487305</ele>
        <time>2010-10-20T14:39:28Z</time>
      </trkpt>
      <trkpt lat="45.07759" lon="4.89177">
        <ele>168.85899353027</ele>
        <time>2010-10-20T14:39:34Z</time>
      </trkpt>
      <trkpt lat="45.07786" lon="4.892">
        <ele>169.56199645996</ele>
        <time>2010-10-20T14:39:41Z</time>
      </trkpt>
      <trkpt lat="45.078" lon="4.89217">
        <ele>169.01100158691</ele>
        <time>2010-10-20T14:39:45Z</time>
      </trkpt>
      <trkpt lat="45.07818" lon="4.89248">
        <ele>168.41000366211</ele>
        <time>2010-10-20T14:39:51Z</time>
      </trkpt>
      <trkpt lat="45.07832" lon="4.89279">
        <ele>169.09399414062</ele>
        <time>2010-10-20T14:39:56Z</time>
      </trkpt>
      <trkpt lat="45.07852" lon="4.8933">
        <ele>168.29499816894</ele>
        <time>2010-10-20T14:40:04Z</time>
      </trkpt>
      <trkpt lat="45.07869" lon="4.89346">
        <ele>168.67399597168</ele>
        <time>2010-10-20T14:40:08Z</time>
      </trkpt>
      <trkpt lat="45.07882" lon="4.89347">
        <ele>167.77299499512</ele>
        <time>2010-10-20T14:40:10Z</time>
      </trkpt>
      <trkpt lat="45.07917" lon="4.89353">
        <ele>165.22700500488</ele>
        <time>2010-10-20T14:40:15Z</time>
      </trkpt>
      <trkpt lat="45.07963" lon="4.89358">
        <ele>165.95500183106</ele>
        <time>2010-10-20T14:40:22Z</time>
      </trkpt>
      <trkpt lat="45.08004" lon="4.89361">
        <ele>167.08099365234</ele>
        <time>2010-10-20T14:40:29Z</time>
      </trkpt>
      <trkpt lat="45.0801" lon="4.89362">
        <ele>167.42599487305</ele>
        <time>2010-10-20T14:40:30Z</time>
      </trkpt>
      <trkpt lat="45.08025" lon="4.89362">
        <ele>168.07499694824</ele>
        <time>2010-10-20T14:40:33Z</time>
      </trkpt>
      <trkpt lat="45.08053" lon="4.89354">
        <ele>169.22799682617</ele>
        <time>2010-10-20T14:40:39Z</time>
      </trkpt>
      <trkpt lat="45.08071" lon="4.89355">
        <ele>168.92799377441</ele>
        <time>2010-10-20T14:40:43Z</time>
      </trkpt>
      <trkpt lat="45.08092" lon="4.89369">
        <ele>171.71800231934</ele>
        <time>2010-10-20T14:40:49Z</time>
      </trkpt>
      <trkpt lat="45.0812" lon="4.89391">
        <ele>174.69200134277</ele>
        <time>2010-10-20T14:40:58Z</time>
      </trkpt>
      <trkpt lat="45.08147" lon="4.89401">
        <ele>176.51800537109</ele>
        <time>2010-10-20T14:41:06Z</time>
      </trkpt>
      <trkpt lat="45.08158" lon="4.8939">
        <ele>177.9880065918</ele>
        <time>2010-10-20T14:41:10Z</time>
      </trkpt>
      <trkpt lat="45.0816" lon="4.89369">
        <ele>178.66600036621</ele>
        <time>2010-10-20T14:41:14Z</time>
      </trkpt>
      <trkpt lat="45.08154" lon="4.89338">
        <ele>180.3630065918</ele>
        <time>2010-10-20T14:41:20Z</time>
      </trkpt>
      <trkpt lat="45.08156" lon="4.89318">
        <ele>181.93899536133</ele>
        <time>2010-10-20T14:41:24Z</time>
      </trkpt>
      <trkpt lat="45.08167" lon="4.89294">
        <ele>183.8690032959</ele>
        <time>2010-10-20T14:41:30Z</time>
      </trkpt>
      <trkpt lat="45.08177" lon="4.89273">
        <ele>183.97599792481</ele>
        <time>2010-10-20T14:41:35Z</time>
      </trkpt>
      <trkpt lat="45.0819" lon="4.8926">
        <ele>185.98699951172</ele>
        <time>2010-10-20T14:41:40Z</time>
      </trkpt>
      <trkpt lat="45.08194" lon="4.89257">
        <ele>186.98899841309</ele>
        <time>2010-10-20T14:41:42Z</time>
      </trkpt>
      <trkpt lat="45.08205" lon="4.89254">
        <ele>187.36399841309</ele>
        <time>2010-10-20T14:41:47Z</time>
      </trkpt>
      <trkpt lat="45.08221" lon="4.8925">
        <ele>189.11599731445</ele>
        <time>2010-10-20T14:41:53Z</time>
      </trkpt>
      <trkpt lat="45.08226" lon="4.89249">
        <ele>189.82499694824</ele>
        <time>2010-10-20T14:41:55Z</time>
      </trkpt>
      <trkpt lat="45.08252" lon="4.89245">
        <ele>191.97500610352</ele>
        <time>2010-10-20T14:42:04Z</time>
      </trkpt>
      <trkpt lat="45.08275" lon="4.89248">
        <ele>193.93600463867</ele>
        <time>2010-10-20T14:42:12Z</time>
      </trkpt>
      <trkpt lat="45.08293" lon="4.89253">
        <ele>195.04499816894</ele>
        <time>2010-10-20T14:42:19Z</time>
      </trkpt>
      <trkpt lat="45.08301" lon="4.89253">
        <ele>196.26699829102</ele>
        <time>2010-10-20T14:42:22Z</time>
      </trkpt>
      <trkpt lat="45.08319" lon="4.89248">
        <ele>197.57299804688</ele>
        <time>2010-10-20T14:42:29Z</time>
      </trkpt>
      <trkpt lat="45.08341" lon="4.89251">
        <ele>199.46800231934</ele>
        <time>2010-10-20T14:42:37Z</time>
      </trkpt>
      <trkpt lat="45.08358" lon="4.89251">
        <ele>200.86700439453</ele>
        <time>2010-10-20T14:42:43Z</time>
      </trkpt>
      <trkpt lat="45.08374" lon="4.89241">
        <ele>202.24000549316</ele>
        <time>2010-10-20T14:42:49Z</time>
      </trkpt>
      <trkpt lat="45.08394" lon="4.89218">
        <ele>203.94900512695</ele>
        <time>2010-10-20T14:42:57Z</time>
      </trkpt>
      <trkpt lat="45.08411" lon="4.89204">
        <ele>204.56300354004</ele>
        <time>2010-10-20T14:43:03Z</time>
      </trkpt>
      <trkpt lat="45.0844" lon="4.89182">
        <ele>206.1130065918</ele>
        <time>2010-10-20T14:43:12Z</time>
      </trkpt>
      <trkpt lat="45.08459" lon="4.89161">
        <ele>206.42599487305</ele>
        <time>2010-10-20T14:43:19Z</time>
      </trkpt>
      <trkpt lat="45.08468" lon="4.89151">
        <ele>207.12800598144</ele>
        <time>2010-10-20T14:43:22Z</time>
      </trkpt>
      <trkpt lat="45.08494" lon="4.89137">
        <ele>205.86399841309</ele>
        <time>2010-10-20T14:43:28Z</time>
      </trkpt>
      <trkpt lat="45.0852" lon="4.89138">
        <ele>205.78999328613</ele>
        <time>2010-10-20T14:43:33Z</time>
      </trkpt>
      <trkpt lat="45.0853" lon="4.89144">
        <ele>205.67799377441</ele>
        <time>2010-10-20T14:43:35Z</time>
      </trkpt>
      <trkpt lat="45.0854" lon="4.8915">
        <ele>205.44000244141</ele>
        <time>2010-10-20T14:43:37Z</time>
      </trkpt>
      <trkpt lat="45.08562" lon="4.89152">
        <ele>205.04400634766</ele>
        <time>2010-10-20T14:43:41Z</time>
      </trkpt>
      <trkpt lat="45.08578" lon="4.89142">
        <ele>205.51100158691</ele>
        <time>2010-10-20T14:43:44Z</time>
      </trkpt>
      <trkpt lat="45.08588" lon="4.89136">
        <ele>205.38000488281</ele>
        <time>2010-10-20T14:43:46Z</time>
      </trkpt>
      <trkpt lat="45.08627" lon="4.89127">
        <ele>205.75999450684</ele>
        <time>2010-10-20T14:43:53Z</time>
      </trkpt>
      <trkpt lat="45.0867" lon="4.89126">
        <ele>206.97799682617</ele>
        <time>2010-10-20T14:44:01Z</time>
      </trkpt>
      <trkpt lat="45.08703" lon="4.89125">
        <ele>208.36799621582</ele>
        <time>2010-10-20T14:44:08Z</time>
      </trkpt>
      <trkpt lat="45.08743" lon="4.89127">
        <ele>209.80599975586</ele>
        <time>2010-10-20T14:44:17Z</time>
      </trkpt>
      <trkpt lat="45.08771" lon="4.89132">
        <ele>211.67700195312</ele>
        <time>2010-10-20T14:44:24Z</time>
      </trkpt>
      <trkpt lat="45.08805" lon="4.89136">
        <ele>212.7559967041</ele>
        <time>2010-10-20T14:44:32Z</time>
      </trkpt>
      <trkpt lat="45.08825" lon="4.89137">
        <ele>213.84700012207</ele>
        <time>2010-10-20T14:44:37Z</time>
      </trkpt>
      <trkpt lat="45.0886" lon="4.89144">
        <ele>215.58299255371</ele>
        <time>2010-10-20T14:44:46Z</time>
      </trkpt>
      <trkpt lat="45.08891" lon="4.8915">
        <ele>216.17799377441</ele>
        <time>2010-10-20T14:44:54Z</time>
      </trkpt>
      <trkpt lat="45.08919" lon="4.89151">
        <ele>216.93699645996</ele>
        <time>2010-10-20T14:45:01Z</time>
      </trkpt>
      <trkpt lat="45.08935" lon="4.89149">
        <ele>217.50199890137</ele>
        <time>2010-10-20T14:45:05Z</time>
      </trkpt>
      <trkpt lat="45.08958" lon="4.89135">
        <ele>218.83999633789</ele>
        <time>2010-10-20T14:45:11Z</time>
      </trkpt>
      <trkpt lat="45.08968" lon="4.89111">
        <ele>219.74000549316</ele>
        <time>2010-10-20T14:45:16Z</time>
      </trkpt>
      <trkpt lat="45.08972" lon="4.89095">
        <ele>220.05799865723</ele>
        <time>2010-10-20T14:45:19Z</time>
      </trkpt>
      <trkpt lat="45.08987" lon="4.89063">
        <ele>220.8869934082</ele>
        <time>2010-10-20T14:45:26Z</time>
      </trkpt>
      <trkpt lat="45.09009" lon="4.89032">
        <ele>222.26400756836</ele>
        <time>2010-10-20T14:45:34Z</time>
      </trkpt>
      <trkpt lat="45.09026" lon="4.89024">
        <ele>223.45700073242</ele>
        <time>2010-10-20T14:45:38Z</time>
      </trkpt>
      <trkpt lat="45.09066" lon="4.89012">
        <ele>224.97999572754</ele>
        <time>2010-10-20T14:45:47Z</time>
      </trkpt>
      <trkpt lat="45.0908" lon="4.89009">
        <ele>225.41000366211</ele>
        <time>2010-10-20T14:45:50Z</time>
      </trkpt>
      <trkpt lat="45.09122" lon="4.89012">
        <ele>226.17100524902</ele>
        <time>2010-10-20T14:45:59Z</time>
      </trkpt>
      <trkpt lat="45.09132" lon="4.89014">
        <ele>225.95500183106</ele>
        <time>2010-10-20T14:46:01Z</time>
      </trkpt>
      <trkpt lat="45.09148" lon="4.89016">
        <ele>225.81199645996</ele>
        <time>2010-10-20T14:46:04Z</time>
      </trkpt>
      <trkpt lat="45.09177" lon="4.89013">
        <ele>225.08500671387</ele>
        <time>2010-10-20T14:46:09Z</time>
      </trkpt>
      <trkpt lat="45.092" lon="4.89">
        <ele>224.49499511719</ele>
        <time>2010-10-20T14:46:13Z</time>
      </trkpt>
      <trkpt lat="45.09243" lon="4.88962">
        <ele>221.98599243164</ele>
        <time>2010-10-20T14:46:20Z</time>
      </trkpt>
      <trkpt lat="45.09264" lon="4.88947">
        <ele>220.36199951172</ele>
        <time>2010-10-20T14:46:23Z</time>
      </trkpt>
      <trkpt lat="45.09289" lon="4.88939">
        <ele>218.30200195312</ele>
        <time>2010-10-20T14:46:26Z</time>
      </trkpt>
      <trkpt lat="45.09316" lon="4.88944">
        <ele>216.54699707031</ele>
        <time>2010-10-20T14:46:29Z</time>
      </trkpt>
      <trkpt lat="45.09357" lon="4.88948">
        <ele>217.21600341797</ele>
        <time>2010-10-20T14:46:34Z</time>
      </trkpt>
      <trkpt lat="45.09364" lon="4.88945">
        <ele>217.83500671387</ele>
        <time>2010-10-20T14:46:35Z</time>
      </trkpt>
      <trkpt lat="45.09392" lon="4.88926">
        <ele>221.64100646973</ele>
        <time>2010-10-20T14:46:41Z</time>
      </trkpt>
      <trkpt lat="45.09403" lon="4.8892">
        <ele>222.95100402832</ele>
        <time>2010-10-20T14:46:44Z</time>
      </trkpt>
      <trkpt lat="45.0941" lon="4.88917">
        <ele>223.83200073242</ele>
        <time>2010-10-20T14:46:46Z</time>
      </trkpt>
      <trkpt lat="45.09431" lon="4.88904">
        <ele>223.65100097656</ele>
        <time>2010-10-20T14:46:51Z</time>
      </trkpt>
      <trkpt lat="45.09466" lon="4.88903">
        <ele>219.31100463867</ele>
        <time>2010-10-20T14:46:56Z</time>
      </trkpt>
      <trkpt lat="45.09477" lon="4.88923">
        <ele>217.46800231934</ele>
        <time>2010-10-20T14:46:58Z</time>
      </trkpt>
      <trkpt lat="45.09505" lon="4.88952">
        <ele>213.55000305176</ele>
        <time>2010-10-20T14:47:02Z</time>
      </trkpt>
      <trkpt lat="45.09524" lon="4.88935">
        <ele>212.17199707031</ele>
        <time>2010-10-20T14:47:04Z</time>
      </trkpt>
      <trkpt lat="45.09531" lon="4.88927">
        <ele>212.02499389648</ele>
        <time>2010-10-20T14:47:05Z</time>
      </trkpt>
      <trkpt lat="45.09566" lon="4.88898">
        <ele>212.26800537109</ele>
        <time>2010-10-20T14:47:10Z</time>
      </trkpt>
      <trkpt lat="45.09584" lon="4.88893">
        <ele>211.95300292969</ele>
        <time>2010-10-20T14:47:12Z</time>
      </trkpt>
      <trkpt lat="45.09619" lon="4.88891">
        <ele>211.31300354004</ele>
        <time>2010-10-20T14:47:16Z</time>
      </trkpt>
      <trkpt lat="45.09647" lon="4.88895">
        <ele>210.04699707031</ele>
        <time>2010-10-20T14:47:19Z</time>
      </trkpt>
      <trkpt lat="45.09668" lon="4.88895">
        <ele>208.39500427246</ele>
        <time>2010-10-20T14:47:21Z</time>
      </trkpt>
      <trkpt lat="45.0971" lon="4.88904">
        <ele>206.8690032959</ele>
        <time>2010-10-20T14:47:25Z</time>
      </trkpt>
      <trkpt lat="45.09724" lon="4.88887">
        <ele>207.23899841309</ele>
        <time>2010-10-20T14:47:27Z</time>
      </trkpt>
      <trkpt lat="45.09727" lon="4.88877">
        <ele>207.66700744629</ele>
        <time>2010-10-20T14:47:28Z</time>
      </trkpt>
      <trkpt lat="45.09728" lon="4.88813">
        <ele>212.81799316406</ele>
        <time>2010-10-20T14:47:35Z</time>
      </trkpt>
      <trkpt lat="45.09727" lon="4.88806">
        <ele>213.16799926758</ele>
        <time>2010-10-20T14:47:36Z</time>
      </trkpt>
      <trkpt lat="45.09721" lon="4.88784">
        <ele>214.89700317383</ele>
        <time>2010-10-20T14:47:40Z</time>
      </trkpt>
      <trkpt lat="45.09716" lon="4.88774">
        <ele>215.18899536133</ele>
        <time>2010-10-20T14:47:42Z</time>
      </trkpt>
      <trkpt lat="45.09707" lon="4.88749">
        <ele>214.05499267578</ele>
        <time>2010-10-20T14:47:46Z</time>
      </trkpt>
      <trkpt lat="45.09707" lon="4.88719">
        <ele>212.99800109863</ele>
        <time>2010-10-20T14:47:50Z</time>
      </trkpt>
      <trkpt lat="45.0971" lon="4.88682">
        <ele>212.12600708008</ele>
        <time>2010-10-20T14:47:54Z</time>
      </trkpt>
      <trkpt lat="45.09724" lon="4.88642">
        <ele>209.25199890137</ele>
        <time>2010-10-20T14:47:58Z</time>
      </trkpt>
      <trkpt lat="45.0974" lon="4.88628">
        <ele>206.97999572754</ele>
        <time>2010-10-20T14:48:00Z</time>
      </trkpt>
      <trkpt lat="45.09784" lon="4.88595">
        <ele>200.89799499512</ele>
        <time>2010-10-20T14:48:05Z</time>
      </trkpt>
      <trkpt lat="45.09811" lon="4.88572">
        <ele>198.76300048828</ele>
        <time>2010-10-20T14:48:08Z</time>
      </trkpt>
      <trkpt lat="45.09848" lon="4.88542">
        <ele>195.17599487305</ele>
        <time>2010-10-20T14:48:12Z</time>
      </trkpt>
      <trkpt lat="45.09879" lon="4.88496">
        <ele>192.08599853516</ele>
        <time>2010-10-20T14:48:16Z</time>
      </trkpt>
      <trkpt lat="45.09907" lon="4.88445">
        <ele>187.10400390625</ele>
        <time>2010-10-20T14:48:20Z</time>
      </trkpt>
      <trkpt lat="45.09932" lon="4.88414">
        <ele>184.61500549316</ele>
        <time>2010-10-20T14:48:23Z</time>
      </trkpt>
      <trkpt lat="45.0994" lon="4.88376">
        <ele>182.33999633789</ele>
        <time>2010-10-20T14:48:26Z</time>
      </trkpt>
      <trkpt lat="45.09924" lon="4.88358">
        <ele>182.9049987793</ele>
        <time>2010-10-20T14:48:28Z</time>
      </trkpt>
      <trkpt lat="45.09914" lon="4.88352">
        <ele>182.80400085449</ele>
        <time>2010-10-20T14:48:29Z</time>
      </trkpt>
      <trkpt lat="45.09895" lon="4.88341">
        <ele>181.65400695801</ele>
        <time>2010-10-20T14:48:31Z</time>
      </trkpt>
      <trkpt lat="45.09879" lon="4.88308">
        <ele>178.53300476074</ele>
        <time>2010-10-20T14:48:34Z</time>
      </trkpt>
      <trkpt lat="45.09879" lon="4.88293">
        <ele>176.95100402832</ele>
        <time>2010-10-20T14:48:35Z</time>
      </trkpt>
      <trkpt lat="45.09879" lon="4.88268">
        <ele>174.42700195312</ele>
        <time>2010-10-20T14:48:37Z</time>
      </trkpt>
      <trkpt lat="45.09885" lon="4.88249">
        <ele>173.32699584961</ele>
        <time>2010-10-20T14:48:39Z</time>
      </trkpt>
      <trkpt lat="45.09903" lon="4.88244">
        <ele>172.59300231934</ele>
        <time>2010-10-20T14:48:41Z</time>
      </trkpt>
      <trkpt lat="45.09911" lon="4.88244">
        <ele>171.49600219727</ele>
        <time>2010-10-20T14:48:42Z</time>
      </trkpt>
      <trkpt lat="45.09943" lon="4.8824">
        <ele>167.14300537109</ele>
        <time>2010-10-20T14:48:46Z</time>
      </trkpt>
      <trkpt lat="45.09951" lon="4.88222">
        <ele>167.11799621582</ele>
        <time>2010-10-20T14:48:48Z</time>
      </trkpt>
      <trkpt lat="45.09967" lon="4.88196">
        <ele>165.71299743652</ele>
        <time>2010-10-20T14:48:53Z</time>
      </trkpt>
      <trkpt lat="45.09972" lon="4.88198">
        <ele>165.45700073242</ele>
        <time>2010-10-20T14:48:54Z</time>
      </trkpt>
      <trkpt lat="45.09996" lon="4.88214">
        <ele>164.50700378418</ele>
        <time>2010-10-20T14:49:00Z</time>
      </trkpt>
      <trkpt lat="45.10014" lon="4.88224">
        <ele>165.28500366211</ele>
        <time>2010-10-20T14:49:04Z</time>
      </trkpt>
      <trkpt lat="45.10053" lon="4.88245">
        <ele>166.19799804688</ele>
        <time>2010-10-20T14:49:12Z</time>
      </trkpt>
      <trkpt lat="45.101" lon="4.8827">
        <ele>166.57499694824</ele>
        <time>2010-10-20T14:49:21Z</time>
      </trkpt>
      <trkpt lat="45.10148" lon="4.88294">
        <ele>166.64500427246</ele>
        <time>2010-10-20T14:49:30Z</time>
      </trkpt>
      <trkpt lat="45.10186" lon="4.88313">
        <ele>168.31900024414</ele>
        <time>2010-10-20T14:49:37Z</time>
      </trkpt>
      <trkpt lat="45.10239" lon="4.88344">
        <ele>167.89399719238</ele>
        <time>2010-10-20T14:49:47Z</time>
      </trkpt>
      <trkpt lat="45.10248" lon="4.88351">
        <ele>167.98100280762</ele>
        <time>2010-10-20T14:49:49Z</time>
      </trkpt>
      <trkpt lat="45.10264" lon="4.88352">
        <ele>169.01600646973</ele>
        <time>2010-10-20T14:49:53Z</time>
      </trkpt>
      <trkpt lat="45.1027" lon="4.88343">
        <ele>169.68899536133</ele>
        <time>2010-10-20T14:49:55Z</time>
      </trkpt>
      <trkpt lat="45.10292" lon="4.8831">
        <ele>170.02299499512</ele>
        <time>2010-10-20T14:50:02Z</time>
      </trkpt>
      <trkpt lat="45.10324" lon="4.88273">
        <ele>172.84800720215</ele>
        <time>2010-10-20T14:50:11Z</time>
      </trkpt>
      <trkpt lat="45.10344" lon="4.8825">
        <ele>174.77699279785</ele>
        <time>2010-10-20T14:50:18Z</time>
      </trkpt>
      <trkpt lat="45.10362" lon="4.88227">
        <ele>175.92900085449</ele>
        <time>2010-10-20T14:50:25Z</time>
      </trkpt>
      <trkpt lat="45.10376" lon="4.88203">
        <ele>177.70199584961</ele>
        <time>2010-10-20T14:50:31Z</time>
      </trkpt>
      <trkpt lat="45.10386" lon="4.88182">
        <ele>179.34100341797</ele>
        <time>2010-10-20T14:50:36Z</time>
      </trkpt>
      <trkpt lat="45.10398" lon="4.88151">
        <ele>179.77799987793</ele>
        <time>2010-10-20T14:50:42Z</time>
      </trkpt>
      <trkpt lat="45.10408" lon="4.88128">
        <ele>180.39599609375</ele>
        <time>2010-10-20T14:50:46Z</time>
      </trkpt>
      <trkpt lat="45.10415" lon="4.88112">
        <ele>180.68699645996</ele>
        <time>2010-10-20T14:50:49Z</time>
      </trkpt>
      <trkpt lat="45.10426" lon="4.88084">
        <ele>181.00799560547</ele>
        <time>2010-10-20T14:50:54Z</time>
      </trkpt>
      <trkpt lat="45.10442" lon="4.88074">
        <ele>180.05299377441</ele>
        <time>2010-10-20T14:50:58Z</time>
      </trkpt>
      <trkpt lat="45.10451" lon="4.88079">
        <ele>179.52000427246</ele>
        <time>2010-10-20T14:51:00Z</time>
      </trkpt>
      <trkpt lat="45.10488" lon="4.88098">
        <ele>177.94299316406</ele>
        <time>2010-10-20T14:51:07Z</time>
      </trkpt>
      <trkpt lat="45.10507" lon="4.88105">
        <ele>176.48899841309</ele>
        <time>2010-10-20T14:51:10Z</time>
      </trkpt>
      <trkpt lat="45.10548" lon="4.8812">
        <ele>176.34800720215</ele>
        <time>2010-10-20T14:51:17Z</time>
      </trkpt>
      <trkpt lat="45.10576" lon="4.88138">
        <ele>177.29600524902</ele>
        <time>2010-10-20T14:51:23Z</time>
      </trkpt>
      <trkpt lat="45.10592" lon="4.88156">
        <ele>177.77299499512</ele>
        <time>2010-10-20T14:51:27Z</time>
      </trkpt>
      <trkpt lat="45.10625" lon="4.88192">
        <ele>178.22500610352</ele>
        <time>2010-10-20T14:51:35Z</time>
      </trkpt>
      <trkpt lat="45.10662" lon="4.88221">
        <ele>179.08099365234</ele>
        <time>2010-10-20T14:51:43Z</time>
      </trkpt>
      <trkpt lat="45.10708" lon="4.88258">
        <ele>179.78500366211</ele>
        <time>2010-10-20T14:51:53Z</time>
      </trkpt>
      <trkpt lat="45.10755" lon="4.88294">
        <ele>181.06700134277</ele>
        <time>2010-10-20T14:52:03Z</time>
      </trkpt>
      <trkpt lat="45.10789" lon="4.88308">
        <ele>181.58700561523</ele>
        <time>2010-10-20T14:52:10Z</time>
      </trkpt>
      <trkpt lat="45.10809" lon="4.88311">
        <ele>182.42399597168</ele>
        <time>2010-10-20T14:52:14Z</time>
      </trkpt>
      <trkpt lat="45.10844" lon="4.88313">
        <ele>182.76499938965</ele>
        <time>2010-10-20T14:52:21Z</time>
      </trkpt>
      <trkpt lat="45.10864" lon="4.88329">
        <ele>184.28100585938</ele>
        <time>2010-10-20T14:52:26Z</time>
      </trkpt>
      <trkpt lat="45.10872" lon="4.88347">
        <ele>184.61700439453</ele>
        <time>2010-10-20T14:52:29Z</time>
      </trkpt>
      <trkpt lat="45.10894" lon="4.88412">
        <ele>184.66700744629</ele>
        <time>2010-10-20T14:52:38Z</time>
      </trkpt>
      <trkpt lat="45.10916" lon="4.88467">
        <ele>184.13999938965</ele>
        <time>2010-10-20T14:52:45Z</time>
      </trkpt>
      <trkpt lat="45.10939" lon="4.88499">
        <ele>184.71800231934</ele>
        <time>2010-10-20T14:52:51Z</time>
      </trkpt>
      <trkpt lat="45.10976" lon="4.88531">
        <ele>185.47300720215</ele>
        <time>2010-10-20T14:52:59Z</time>
      </trkpt>
      <trkpt lat="45.11034" lon="4.88577">
        <ele>186.62699890137</ele>
        <time>2010-10-20T14:53:11Z</time>
      </trkpt>
      <trkpt lat="45.11066" lon="4.88605">
        <ele>187.81799316406</ele>
        <time>2010-10-20T14:53:19Z</time>
      </trkpt>
      <trkpt lat="45.11097" lon="4.88629">
        <ele>189.33700561523</ele>
        <time>2010-10-20T14:53:27Z</time>
      </trkpt>
      <trkpt lat="45.11104" lon="4.88635">
        <ele>189.86500549316</ele>
        <time>2010-10-20T14:53:29Z</time>
      </trkpt>
      <trkpt lat="45.11136" lon="4.88661">
        <ele>191.32400512695</ele>
        <time>2010-10-20T14:53:38Z</time>
      </trkpt>
      <trkpt lat="45.11169" lon="4.88685">
        <ele>192.93899536133</ele>
        <time>2010-10-20T14:53:47Z</time>
      </trkpt>
      <trkpt lat="45.112" lon="4.88704">
        <ele>194.08200073242</ele>
        <time>2010-10-20T14:53:55Z</time>
      </trkpt>
      <trkpt lat="45.11218" lon="4.88717">
        <ele>194.76100158691</ele>
        <time>2010-10-20T14:54:00Z</time>
      </trkpt>
      <trkpt lat="45.11225" lon="4.88723">
        <ele>194.65100097656</ele>
        <time>2010-10-20T14:54:02Z</time>
      </trkpt>
      <trkpt lat="45.11262" lon="4.88762">
        <ele>196.48199462891</ele>
        <time>2010-10-20T14:54:13Z</time>
      </trkpt>
      <trkpt lat="45.11268" lon="4.8877">
        <ele>196.85000610352</ele>
        <time>2010-10-20T14:54:15Z</time>
      </trkpt>
      <trkpt lat="45.11282" lon="4.88785">
        <ele>196.19099426269</ele>
        <time>2010-10-20T14:54:19Z</time>
      </trkpt>
      <trkpt lat="45.11312" lon="4.88824">
        <ele>195.97999572754</ele>
        <time>2010-10-20T14:54:27Z</time>
      </trkpt>
      <trkpt lat="45.11325" lon="4.88841">
        <ele>194.69400024414</ele>
        <time>2010-10-20T14:54:30Z</time>
      </trkpt>
      <trkpt lat="45.11357" lon="4.88879">
        <ele>192.11199951172</ele>
        <time>2010-10-20T14:54:36Z</time>
      </trkpt>
      <trkpt lat="45.11393" lon="4.88923">
        <ele>188.98599243164</ele>
        <time>2010-10-20T14:54:42Z</time>
      </trkpt>
      <trkpt lat="45.11399" lon="4.8893">
        <ele>188.72599792481</ele>
        <time>2010-10-20T14:54:43Z</time>
      </trkpt>
      <trkpt lat="45.11416" lon="4.8895">
        <ele>188.87100219727</ele>
        <time>2010-10-20T14:54:46Z</time>
      </trkpt>
      <trkpt lat="45.11444" lon="4.88986">
        <ele>189.89399719238</ele>
        <time>2010-10-20T14:54:52Z</time>
      </trkpt>
      <trkpt lat="45.11472" lon="4.89019">
        <ele>189.91299438477</ele>
        <time>2010-10-20T14:54:58Z</time>
      </trkpt>
      <trkpt lat="45.115" lon="4.89053">
        <ele>191.16499328613</ele>
        <time>2010-10-20T14:55:05Z</time>
      </trkpt>
      <trkpt lat="45.11523" lon="4.8908">
        <ele>192.27200317383</ele>
        <time>2010-10-20T14:55:11Z</time>
      </trkpt>
      <trkpt lat="45.11544" lon="4.89095">
        <ele>192.55799865723</ele>
        <time>2010-10-20T14:55:16Z</time>
      </trkpt>
      <trkpt lat="45.11557" lon="4.89099">
        <ele>193.41900634766</ele>
        <time>2010-10-20T14:55:19Z</time>
      </trkpt>
      <trkpt lat="45.11589" lon="4.89101">
        <ele>195.15100097656</ele>
        <time>2010-10-20T14:55:27Z</time>
      </trkpt>
      <trkpt lat="45.11611" lon="4.89101">
        <ele>198.07299804688</ele>
        <time>2010-10-20T14:55:33Z</time>
      </trkpt>
      <trkpt lat="45.11618" lon="4.89101">
        <ele>198.78100585938</ele>
        <time>2010-10-20T14:55:35Z</time>
      </trkpt>
      <trkpt lat="45.11637" lon="4.89101">
        <ele>199.6369934082</ele>
        <time>2010-10-20T14:55:40Z</time>
      </trkpt>
      <trkpt lat="45.11662" lon="4.89103">
        <ele>200.88299560547</ele>
        <time>2010-10-20T14:55:46Z</time>
      </trkpt>
      <trkpt lat="45.11688" lon="4.89109">
        <ele>202.31599426269</ele>
        <time>2010-10-20T14:55:53Z</time>
      </trkpt>
      <trkpt lat="45.11706" lon="4.89122">
        <ele>203.58500671387</ele>
        <time>2010-10-20T14:55:59Z</time>
      </trkpt>
      <trkpt lat="45.11721" lon="4.8913">
        <ele>205.01800537109</ele>
        <time>2010-10-20T14:56:04Z</time>
      </trkpt>
      <trkpt lat="45.11741" lon="4.89128">
        <ele>206.57099914551</ele>
        <time>2010-10-20T14:56:10Z</time>
      </trkpt>
      <trkpt lat="45.11767" lon="4.89125">
        <ele>208.41200256348</ele>
        <time>2010-10-20T14:56:18Z</time>
      </trkpt>
      <trkpt lat="45.11788" lon="4.89131">
        <ele>210.52900695801</ele>
        <time>2010-10-20T14:56:25Z</time>
      </trkpt>
      <trkpt lat="45.11802" lon="4.89136">
        <ele>211.6609954834</ele>
        <time>2010-10-20T14:56:30Z</time>
      </trkpt>
      <trkpt lat="45.11816" lon="4.89143">
        <ele>212.5890045166</ele>
        <time>2010-10-20T14:56:35Z</time>
      </trkpt>
      <trkpt lat="45.11833" lon="4.89152">
        <ele>213.12300109863</ele>
        <time>2010-10-20T14:56:41Z</time>
      </trkpt>
      <trkpt lat="45.11838" lon="4.89157">
        <ele>213.28199768066</ele>
        <time>2010-10-20T14:56:43Z</time>
      </trkpt>
      <trkpt lat="45.11839" lon="4.89175">
        <ele>215.02099609375</ele>
        <time>2010-10-20T14:56:48Z</time>
      </trkpt>
      <trkpt lat="45.11826" lon="4.89202">
        <ele>214.31500244141</ele>
        <time>2010-10-20T14:56:54Z</time>
      </trkpt>
      <trkpt lat="45.11815" lon="4.89233">
        <ele>211.51300048828</ele>
        <time>2010-10-20T14:56:58Z</time>
      </trkpt>
      <trkpt lat="45.11813" lon="4.8924">
        <ele>211.30999755859</ele>
        <time>2010-10-20T14:56:59Z</time>
      </trkpt>
      <trkpt lat="45.118" lon="4.89278">
        <ele>208.16999816894</ele>
        <time>2010-10-20T14:57:05Z</time>
      </trkpt>
      <trkpt lat="45.11797" lon="4.89289">
        <ele>206.91400146484</ele>
        <time>2010-10-20T14:57:07Z</time>
      </trkpt>
      <trkpt lat="45.11787" lon="4.89315">
        <ele>204.10600280762</ele>
        <time>2010-10-20T14:57:12Z</time>
      </trkpt>
      <trkpt lat="45.11785" lon="4.89322">
        <ele>204.22999572754</ele>
        <time>2010-10-20T14:57:14Z</time>
      </trkpt>
      <trkpt lat="45.11777" lon="4.89323">
        <ele>204.8690032959</ele>
        <time>2010-10-20T14:57:19Z</time>
      </trkpt>
      <trkpt lat="45.11773" lon="4.89314">
        <ele>204.41600036621</ele>
        <time>2010-10-20T14:57:24Z</time>
      </trkpt>
      <trkpt lat="45.11773" lon="4.89314">
        <ele>204.50700378418</ele>
        <time>2010-10-20T14:57:26Z</time>
      </trkpt>
      <trkpt lat="45.11773" lon="4.89323">
        <ele>204.44700622559</ele>
        <time>2010-10-20T14:57:43Z</time>
      </trkpt>
      <trkpt lat="45.11773" lon="4.89325">
        <ele>204.42300415039</ele>
        <time>2010-10-20T14:57:46Z</time>
      </trkpt>
      <trkpt lat="45.11773" lon="4.89319">
        <ele>204.86599731445</ele>
        <time>2010-10-20T14:57:53Z</time>
      </trkpt>
      <trkpt lat="45.11771" lon="4.89318">
        <ele>204.19999694824</ele>
        <time>2010-10-20T14:57:58Z</time>
      </trkpt>
      <trkpt lat="45.11771" lon="4.89317">
        <ele>204.2380065918</ele>
        <time>2010-10-20T14:57:59Z</time>
      </trkpt>
      <trkpt lat="45.11769" lon="4.8932">
        <ele>204.08500671387</ele>
        <time>2010-10-20T14:58:03Z</time>
      </trkpt>
      <trkpt lat="45.11778" lon="4.89331">
        <ele>203.57000732422</ele>
        <time>2010-10-20T14:58:11Z</time>
      </trkpt>
      <trkpt lat="45.11777" lon="4.89347">
        <ele>203.68899536133</ele>
        <time>2010-10-20T14:58:15Z</time>
      </trkpt>
      <trkpt lat="45.11782" lon="4.89364">
        <ele>203.01600646973</ele>
        <time>2010-10-20T14:58:19Z</time>
      </trkpt>
      <trkpt lat="45.11794" lon="4.89376">
        <ele>202.45100402832</ele>
        <time>2010-10-20T14:58:23Z</time>
      </trkpt>
      <trkpt lat="45.11801" lon="4.89382">
        <ele>202.49800109863</ele>
        <time>2010-10-20T14:58:25Z</time>
      </trkpt>
      <trkpt lat="45.11837" lon="4.89412">
        <ele>200.93699645996</ele>
        <time>2010-10-20T14:58:33Z</time>
      </trkpt>
      <trkpt lat="45.11846" lon="4.8942">
        <ele>200.18299865723</ele>
        <time>2010-10-20T14:58:35Z</time>
      </trkpt>
      <trkpt lat="45.11868" lon="4.89436">
        <ele>199.29699707031</ele>
        <time>2010-10-20T14:58:39Z</time>
      </trkpt>
      <trkpt lat="45.11914" lon="4.89462">
        <ele>194.52099609375</ele>
        <time>2010-10-20T14:58:46Z</time>
      </trkpt>
      <trkpt lat="45.11942" lon="4.89476">
        <ele>193.75</ele>
        <time>2010-10-20T14:58:50Z</time>
      </trkpt>
      <trkpt lat="45.1195" lon="4.89491">
        <ele>194.29299926758</ele>
        <time>2010-10-20T14:58:54Z</time>
      </trkpt>
      <trkpt lat="45.11949" lon="4.89496">
        <ele>194.32600402832</ele>
        <time>2010-10-20T14:58:55Z</time>
      </trkpt>
      <trkpt lat="45.11937" lon="4.89514">
        <ele>194.10600280762</ele>
        <time>2010-10-20T14:59:00Z</time>
      </trkpt>
      <trkpt lat="45.11921" lon="4.89521">
        <ele>193.87300109863</ele>
        <time>2010-10-20T14:59:02Z</time>
      </trkpt>
      <trkpt lat="45.11886" lon="4.89569">
        <ele>193.05000305176</ele>
        <time>2010-10-20T14:59:09Z</time>
      </trkpt>
      <trkpt lat="45.11881" lon="4.89577">
        <ele>192.95599365234</ele>
        <time>2010-10-20T14:59:10Z</time>
      </trkpt>
      <trkpt lat="45.11864" lon="4.89606">
        <ele>192.12600708008</ele>
        <time>2010-10-20T14:59:14Z</time>
      </trkpt>
      <trkpt lat="45.11856" lon="4.89626">
        <ele>192.20700073242</ele>
        <time>2010-10-20T14:59:18Z</time>
      </trkpt>
      <trkpt lat="45.11863" lon="4.8964">
        <ele>191.10299682617</ele>
        <time>2010-10-20T14:59:21Z</time>
      </trkpt>
      <trkpt lat="45.11874" lon="4.89663">
        <ele>191.08700561523</ele>
        <time>2010-10-20T14:59:25Z</time>
      </trkpt>
      <trkpt lat="45.11874" lon="4.89671">
        <ele>191.81100463867</ele>
        <time>2010-10-20T14:59:26Z</time>
      </trkpt>
      <trkpt lat="45.11876" lon="4.89714">
        <ele>191.78500366211</ele>
        <time>2010-10-20T14:59:31Z</time>
      </trkpt>
      <trkpt lat="45.11879" lon="4.89767">
        <ele>191.1369934082</ele>
        <time>2010-10-20T14:59:37Z</time>
      </trkpt>
      <trkpt lat="45.11892" lon="4.89813">
        <ele>189.83399963379</ele>
        <time>2010-10-20T14:59:42Z</time>
      </trkpt>
      <trkpt lat="45.11903" lon="4.89829">
        <ele>189.24200439453</ele>
        <time>2010-10-20T14:59:44Z</time>
      </trkpt>
      <trkpt lat="45.11913" lon="4.89846">
        <ele>188.25500488281</ele>
        <time>2010-10-20T14:59:46Z</time>
      </trkpt>
      <trkpt lat="45.11934" lon="4.89899">
        <ele>187.74800109863</ele>
        <time>2010-10-20T14:59:52Z</time>
      </trkpt>
      <trkpt lat="45.11961" lon="4.89965">
        <ele>186.41900634766</ele>
        <time>2010-10-20T15:00:00Z</time>
      </trkpt>
      <trkpt lat="45.11984" lon="4.90028">
        <ele>188.22700500488</ele>
        <time>2010-10-20T15:00:08Z</time>
      </trkpt>
      <trkpt lat="45.12005" lon="4.90083">
        <ele>188.85400390625</ele>
        <time>2010-10-20T15:00:16Z</time>
      </trkpt>
      <trkpt lat="45.12006" lon="4.90119">
        <ele>189.99899291992</ele>
        <time>2010-10-20T15:00:21Z</time>
      </trkpt>
      <trkpt lat="45.11998" lon="4.90139">
        <ele>190.80700683594</ele>
        <time>2010-10-20T15:00:24Z</time>
      </trkpt>
      <trkpt lat="45.11991" lon="4.90151">
        <ele>191.16900634766</ele>
        <time>2010-10-20T15:00:26Z</time>
      </trkpt>
      <trkpt lat="45.11959" lon="4.90186">
        <ele>191.21099853516</ele>
        <time>2010-10-20T15:00:33Z</time>
      </trkpt>
      <trkpt lat="45.11923" lon="4.90219">
        <ele>191.44999694824</ele>
        <time>2010-10-20T15:00:40Z</time>
      </trkpt>
      <trkpt lat="45.11877" lon="4.90254">
        <ele>191.54800415039</ele>
        <time>2010-10-20T15:00:48Z</time>
      </trkpt>
      <trkpt lat="45.11826" lon="4.90292">
        <ele>192.17799377441</ele>
        <time>2010-10-20T15:00:57Z</time>
      </trkpt>
      <trkpt lat="45.1178" lon="4.90321">
        <ele>191.74000549316</ele>
        <time>2010-10-20T15:01:05Z</time>
      </trkpt>
      <trkpt lat="45.11735" lon="4.90352">
        <ele>192.72700500488</ele>
        <time>2010-10-20T15:01:13Z</time>
      </trkpt>
      <trkpt lat="45.11725" lon="4.90361">
        <ele>193.00900268555</ele>
        <time>2010-10-20T15:01:15Z</time>
      </trkpt>
      <trkpt lat="45.11711" lon="4.90393">
        <ele>193.79899597168</ele>
        <time>2010-10-20T15:01:20Z</time>
      </trkpt>
      <trkpt lat="45.11705" lon="4.90452">
        <ele>194.66600036621</ele>
        <time>2010-10-20T15:01:28Z</time>
      </trkpt>
      <trkpt lat="45.11702" lon="4.90496">
        <ele>195.62100219727</ele>
        <time>2010-10-20T15:01:34Z</time>
      </trkpt>
      <trkpt lat="45.11696" lon="4.90523">
        <ele>196.90800476074</ele>
        <time>2010-10-20T15:01:39Z</time>
      </trkpt>
      <trkpt lat="45.11692" lon="4.90533">
        <ele>197.50500488281</ele>
        <time>2010-10-20T15:01:41Z</time>
      </trkpt>
      <trkpt lat="45.11687" lon="4.90574">
        <ele>198.5</ele>
        <time>2010-10-20T15:01:47Z</time>
      </trkpt>
      <trkpt lat="45.11681" lon="4.90613">
        <ele>199.52600097656</ele>
        <time>2010-10-20T15:01:53Z</time>
      </trkpt>
      <trkpt lat="45.11676" lon="4.90646">
        <ele>199.96200561523</ele>
        <time>2010-10-20T15:01:58Z</time>
      </trkpt>
      <trkpt lat="45.1167" lon="4.90673">
        <ele>200.03700256348</ele>
        <time>2010-10-20T15:02:02Z</time>
      </trkpt>
      <trkpt lat="45.1167" lon="4.90692">
        <ele>199.26100158691</ele>
        <time>2010-10-20T15:02:05Z</time>
      </trkpt>
      <trkpt lat="45.11682" lon="4.90699">
        <ele>199.22900390625</ele>
        <time>2010-10-20T15:02:08Z</time>
      </trkpt>
      <trkpt lat="45.11691" lon="4.90714">
        <ele>199.17700195312</ele>
        <time>2010-10-20T15:02:11Z</time>
      </trkpt>
      <trkpt lat="45.11687" lon="4.90734">
        <ele>199.97700500488</ele>
        <time>2010-10-20T15:02:14Z</time>
      </trkpt>
      <trkpt lat="45.11684" lon="4.9074">
        <ele>200.07000732422</ele>
        <time>2010-10-20T15:02:15Z</time>
      </trkpt>
      <trkpt lat="45.11675" lon="4.90778">
        <ele>199.97399902344</ele>
        <time>2010-10-20T15:02:20Z</time>
      </trkpt>
      <trkpt lat="45.11674" lon="4.90824">
        <ele>200.15299987793</ele>
        <time>2010-10-20T15:02:26Z</time>
      </trkpt>
      <trkpt lat="45.11676" lon="4.90874">
        <ele>202.01699829102</ele>
        <time>2010-10-20T15:02:33Z</time>
      </trkpt>
      <trkpt lat="45.11676" lon="4.90881">
        <ele>202.27799987793</ele>
        <time>2010-10-20T15:02:34Z</time>
      </trkpt>
      <trkpt lat="45.11676" lon="4.9093">
        <ele>203.80099487305</ele>
        <time>2010-10-20T15:02:41Z</time>
      </trkpt>
      <trkpt lat="45.11672" lon="4.90972">
        <ele>204.36799621582</ele>
        <time>2010-10-20T15:02:47Z</time>
      </trkpt>
      <trkpt lat="45.11657" lon="4.91042">
        <ele>204.18299865723</ele>
        <time>2010-10-20T15:02:56Z</time>
      </trkpt>
      <trkpt lat="45.11636" lon="4.91121">
        <ele>203.65600585938</ele>
        <time>2010-10-20T15:03:05Z</time>
      </trkpt>
      <trkpt lat="45.11631" lon="4.91138">
        <ele>203.17399597168</ele>
        <time>2010-10-20T15:03:07Z</time>
      </trkpt>
      <trkpt lat="45.11601" lon="4.91204">
        <ele>203.70500183106</ele>
        <time>2010-10-20T15:03:16Z</time>
      </trkpt>
      <trkpt lat="45.11575" lon="4.91261">
        <ele>205.23899841309</ele>
        <time>2010-10-20T15:03:24Z</time>
      </trkpt>
      <trkpt lat="45.11564" lon="4.9129">
        <ele>205.53900146484</ele>
        <time>2010-10-20T15:03:28Z</time>
      </trkpt>
      <trkpt lat="45.11555" lon="4.91335">
        <ele>206.00300598144</ele>
        <time>2010-10-20T15:03:34Z</time>
      </trkpt>
      <trkpt lat="45.11548" lon="4.91377">
        <ele>204.38999938965</ele>
        <time>2010-10-20T15:03:39Z</time>
      </trkpt>
      <trkpt lat="45.11542" lon="4.91427">
        <ele>202.12399291992</ele>
        <time>2010-10-20T15:03:44Z</time>
      </trkpt>
      <trkpt lat="45.11532" lon="4.91496">
        <ele>199.20199584961</ele>
        <time>2010-10-20T15:03:50Z</time>
      </trkpt>
      <trkpt lat="45.11525" lon="4.91533">
        <ele>197.61599731445</ele>
        <time>2010-10-20T15:03:53Z</time>
      </trkpt>
      <trkpt lat="45.11497" lon="4.91603">
        <ele>195.63299560547</ele>
        <time>2010-10-20T15:03:59Z</time>
      </trkpt>
      <trkpt lat="45.11434" lon="4.9172">
        <ele>194.70700073242</ele>
        <time>2010-10-20T15:04:10Z</time>
      </trkpt>
      <trkpt lat="45.11386" lon="4.91808">
        <ele>192.80499267578</ele>
        <time>2010-10-20T15:04:18Z</time>
      </trkpt>
      <trkpt lat="45.11328" lon="4.91891">
        <ele>191.57600402832</ele>
        <time>2010-10-20T15:04:26Z</time>
      </trkpt>
      <trkpt lat="45.11281" lon="4.91952">
        <ele>190.0299987793</ele>
        <time>2010-10-20T15:04:32Z</time>
      </trkpt>
      <trkpt lat="45.11233" lon="4.92009">
        <ele>188.44099426269</ele>
        <time>2010-10-20T15:04:38Z</time>
      </trkpt>
      <trkpt lat="45.11225" lon="4.92019">
        <ele>188.24200439453</ele>
        <time>2010-10-20T15:04:39Z</time>
      </trkpt>
      <trkpt lat="45.11205" lon="4.92067">
        <ele>187.05900573731</ele>
        <time>2010-10-20T15:04:43Z</time>
      </trkpt>
      <trkpt lat="45.11202" lon="4.9208">
        <ele>186.81399536133</ele>
        <time>2010-10-20T15:04:44Z</time>
      </trkpt>
      <trkpt lat="45.11189" lon="4.92158">
        <ele>187.63800048828</ele>
        <time>2010-10-20T15:04:50Z</time>
      </trkpt>
      <trkpt lat="45.11174" lon="4.92242">
        <ele>187.04600524902</ele>
        <time>2010-10-20T15:04:57Z</time>
      </trkpt>
      <trkpt lat="45.11171" lon="4.92273">
        <ele>187.60800170898</ele>
        <time>2010-10-20T15:05:00Z</time>
      </trkpt>
      <trkpt lat="45.11177" lon="4.92332">
        <ele>188.52000427246</ele>
        <time>2010-10-20T15:05:06Z</time>
      </trkpt>
      <trkpt lat="45.11178" lon="4.92341">
        <ele>188.87300109863</ele>
        <time>2010-10-20T15:05:07Z</time>
      </trkpt>
      <trkpt lat="45.11168" lon="4.92385">
        <ele>188.97500610352</ele>
        <time>2010-10-20T15:05:12Z</time>
      </trkpt>
      <trkpt lat="45.11157" lon="4.924">
        <ele>188.78999328613</ele>
        <time>2010-10-20T15:05:14Z</time>
      </trkpt>
      <trkpt lat="45.11106" lon="4.92449">
        <ele>187.82000732422</ele>
        <time>2010-10-20T15:05:22Z</time>
      </trkpt>
      <trkpt lat="45.11041" lon="4.9251">
        <ele>187.45700073242</ele>
        <time>2010-10-20T15:05:32Z</time>
      </trkpt>
      <trkpt lat="45.11016" lon="4.92533">
        <ele>187.46499633789</ele>
        <time>2010-10-20T15:05:36Z</time>
      </trkpt>
      <trkpt lat="45.10987" lon="4.92561">
        <ele>187.7799987793</ele>
        <time>2010-10-20T15:05:41Z</time>
      </trkpt>
      <trkpt lat="45.1098" lon="4.92576">
        <ele>187.67900085449</ele>
        <time>2010-10-20T15:05:43Z</time>
      </trkpt>
      <trkpt lat="45.10984" lon="4.92599">
        <ele>186.87600708008</ele>
        <time>2010-10-20T15:05:46Z</time>
      </trkpt>
      <trkpt lat="45.10986" lon="4.92605">
        <ele>187.09899902344</ele>
        <time>2010-10-20T15:05:47Z</time>
      </trkpt>
      <trkpt lat="45.11" lon="4.92644">
        <ele>189.4640045166</ele>
        <time>2010-10-20T15:05:53Z</time>
      </trkpt>
      <trkpt lat="45.11016" lon="4.92689">
        <ele>190.69599914551</ele>
        <time>2010-10-20T15:06:00Z</time>
      </trkpt>
      <trkpt lat="45.11021" lon="4.92708">
        <ele>190.70799255371</ele>
        <time>2010-10-20T15:06:03Z</time>
      </trkpt>
      <trkpt lat="45.11038" lon="4.92775">
        <ele>189.44900512695</ele>
        <time>2010-10-20T15:06:12Z</time>
      </trkpt>
      <trkpt lat="45.11055" lon="4.92854">
        <ele>189.25</ele>
        <time>2010-10-20T15:06:22Z</time>
      </trkpt>
      <trkpt lat="45.11066" lon="4.92906">
        <ele>189.76899719238</ele>
        <time>2010-10-20T15:06:29Z</time>
      </trkpt>
      <trkpt lat="45.11072" lon="4.92937">
        <ele>190.39900207519</ele>
        <time>2010-10-20T15:06:33Z</time>
      </trkpt>
      <trkpt lat="45.11084" lon="4.9299">
        <ele>190.54100036621</ele>
        <time>2010-10-20T15:06:40Z</time>
      </trkpt>
      <trkpt lat="45.11102" lon="4.93076">
        <ele>191.3869934082</ele>
        <time>2010-10-20T15:06:51Z</time>
      </trkpt>
      <trkpt lat="45.11115" lon="4.93138">
        <ele>191.24899291992</ele>
        <time>2010-10-20T15:06:59Z</time>
      </trkpt>
      <trkpt lat="45.11127" lon="4.93193">
        <ele>192.98599243164</ele>
        <time>2010-10-20T15:07:06Z</time>
      </trkpt>
      <trkpt lat="45.11146" lon="4.93239">
        <ele>193.58200073242</ele>
        <time>2010-10-20T15:07:13Z</time>
      </trkpt>
      <trkpt lat="45.11161" lon="4.93274">
        <ele>194.51400756836</ele>
        <time>2010-10-20T15:07:19Z</time>
      </trkpt>
      <trkpt lat="45.11183" lon="4.9332">
        <ele>194.68899536133</ele>
        <time>2010-10-20T15:07:28Z</time>
      </trkpt>
      <trkpt lat="45.11201" lon="4.93357">
        <ele>197.73399353027</ele>
        <time>2010-10-20T15:07:36Z</time>
      </trkpt>
      <trkpt lat="45.11222" lon="4.93392">
        <ele>199.61599731445</ele>
        <time>2010-10-20T15:07:44Z</time>
      </trkpt>
      <trkpt lat="45.11239" lon="4.93419">
        <ele>200.68499755859</ele>
        <time>2010-10-20T15:07:51Z</time>
      </trkpt>
      <trkpt lat="45.11259" lon="4.93449">
        <ele>202.18499755859</ele>
        <time>2010-10-20T15:08:00Z</time>
      </trkpt>
      <trkpt lat="45.11276" lon="4.93472">
        <ele>203.78199768066</ele>
        <time>2010-10-20T15:08:07Z</time>
      </trkpt>
      <trkpt lat="45.11292" lon="4.93496">
        <ele>205.39100646973</ele>
        <time>2010-10-20T15:08:14Z</time>
      </trkpt>
      <trkpt lat="45.11311" lon="4.93525">
        <ele>206.69900512695</ele>
        <time>2010-10-20T15:08:22Z</time>
      </trkpt>
      <trkpt lat="45.11328" lon="4.93556">
        <ele>208.32099914551</ele>
        <time>2010-10-20T15:08:30Z</time>
      </trkpt>
      <trkpt lat="45.11342" lon="4.93587">
        <ele>210.19299316406</ele>
        <time>2010-10-20T15:08:37Z</time>
      </trkpt>
      <trkpt lat="45.11354" lon="4.93615">
        <ele>211.25199890137</ele>
        <time>2010-10-20T15:08:43Z</time>
      </trkpt>
      <trkpt lat="45.11367" lon="4.93656">
        <ele>212.14799499512</ele>
        <time>2010-10-20T15:08:51Z</time>
      </trkpt>
      <trkpt lat="45.11383" lon="4.937">
        <ele>212.35800170898</ele>
        <time>2010-10-20T15:08:59Z</time>
      </trkpt>
      <trkpt lat="45.11396" lon="4.93742">
        <ele>212.61599731445</ele>
        <time>2010-10-20T15:09:06Z</time>
      </trkpt>
      <trkpt lat="45.11414" lon="4.93792">
        <ele>210.74600219727</ele>
        <time>2010-10-20T15:09:13Z</time>
      </trkpt>
      <trkpt lat="45.11417" lon="4.938">
        <ele>210.56900024414</ele>
        <time>2010-10-20T15:09:14Z</time>
      </trkpt>
      <trkpt lat="45.1144" lon="4.93849">
        <ele>207.39900207519</ele>
        <time>2010-10-20T15:09:20Z</time>
      </trkpt>
      <trkpt lat="45.11484" lon="4.93908">
        <ele>204.33599853516</ele>
        <time>2010-10-20T15:09:28Z</time>
      </trkpt>
      <trkpt lat="45.11506" lon="4.93931">
        <ele>203.14100646973</ele>
        <time>2010-10-20T15:09:32Z</time>
      </trkpt>
      <trkpt lat="45.11552" lon="4.93974">
        <ele>202.31199645996</ele>
        <time>2010-10-20T15:09:41Z</time>
      </trkpt>
      <trkpt lat="45.11583" lon="4.93991">
        <ele>203.42599487305</ele>
        <time>2010-10-20T15:09:47Z</time>
      </trkpt>
      <trkpt lat="45.11618" lon="4.93999">
        <ele>203.37199401856</ele>
        <time>2010-10-20T15:09:54Z</time>
      </trkpt>
      <trkpt lat="45.11623" lon="4.94001">
        <ele>203.55099487305</ele>
        <time>2010-10-20T15:09:55Z</time>
      </trkpt>
      <trkpt lat="45.11671" lon="4.94009">
        <ele>203.63600158691</ele>
        <time>2010-10-20T15:10:04Z</time>
      </trkpt>
      <trkpt lat="45.11707" lon="4.94016">
        <ele>203.59300231934</ele>
        <time>2010-10-20T15:10:11Z</time>
      </trkpt>
      <trkpt lat="45.11752" lon="4.94023">
        <ele>203.46899414062</ele>
        <time>2010-10-20T15:10:20Z</time>
      </trkpt>
      <trkpt lat="45.11792" lon="4.94031">
        <ele>203.54299926758</ele>
        <time>2010-10-20T15:10:28Z</time>
      </trkpt>
      <trkpt lat="45.11797" lon="4.94033">
        <ele>203.54299926758</ele>
        <time>2010-10-20T15:10:29Z</time>
      </trkpt>
      <trkpt lat="45.11815" lon="4.94051">
        <ele>203.91999816894</ele>
        <time>2010-10-20T15:10:34Z</time>
      </trkpt>
      <trkpt lat="45.11814" lon="4.94071">
        <ele>205.07499694824</ele>
        <time>2010-10-20T15:10:37Z</time>
      </trkpt>
      <trkpt lat="45.11801" lon="4.94128">
        <ele>206.1190032959</ele>
        <time>2010-10-20T15:10:45Z</time>
      </trkpt>
      <trkpt lat="45.11802" lon="4.9415">
        <ele>205.39399719238</ele>
        <time>2010-10-20T15:10:49Z</time>
      </trkpt>
      <trkpt lat="45.11813" lon="4.94149">
        <ele>204.33200073242</ele>
        <time>2010-10-20T15:10:52Z</time>
      </trkpt>
      <trkpt lat="45.11818" lon="4.94149">
        <ele>204.41400146484</ele>
        <time>2010-10-20T15:10:53Z</time>
      </trkpt>
      <trkpt lat="45.11833" lon="4.94149">
        <ele>205.22900390625</ele>
        <time>2010-10-20T15:10:56Z</time>
      </trkpt>
      <trkpt lat="45.11861" lon="4.94161">
        <ele>204.43499755859</ele>
        <time>2010-10-20T15:11:02Z</time>
      </trkpt>
      <trkpt lat="45.11904" lon="4.94183">
        <ele>205.65800476074</ele>
        <time>2010-10-20T15:11:11Z</time>
      </trkpt>
      <trkpt lat="45.11939" lon="4.94197">
        <ele>205.24899291992</ele>
        <time>2010-10-20T15:11:18Z</time>
      </trkpt>
      <trkpt lat="45.11967" lon="4.94217">
        <ele>206.24699401856</ele>
        <time>2010-10-20T15:11:25Z</time>
      </trkpt>
      <trkpt lat="45.12004" lon="4.94233">
        <ele>207.16400146484</ele>
        <time>2010-10-20T15:11:33Z</time>
      </trkpt>
      <trkpt lat="45.12013" lon="4.94236">
        <ele>207.02699279785</ele>
        <time>2010-10-20T15:11:35Z</time>
      </trkpt>
      <trkpt lat="45.1204" lon="4.94248">
        <ele>207.60600280762</ele>
        <time>2010-10-20T15:11:41Z</time>
      </trkpt>
      <trkpt lat="45.12072" lon="4.94267">
        <ele>207.74800109863</ele>
        <time>2010-10-20T15:11:48Z</time>
      </trkpt>
      <trkpt lat="45.12087" lon="4.94283">
        <ele>208.23300170898</ele>
        <time>2010-10-20T15:11:53Z</time>
      </trkpt>
      <trkpt lat="45.12088" lon="4.94308">
        <ele>208.51600646973</ele>
        <time>2010-10-20T15:11:57Z</time>
      </trkpt>
      <trkpt lat="45.12084" lon="4.94373">
        <ele>208.34700012207</ele>
        <time>2010-10-20T15:12:05Z</time>
      </trkpt>
      <trkpt lat="45.12078" lon="4.94444">
        <ele>208.18299865723</ele>
        <time>2010-10-20T15:12:13Z</time>
      </trkpt>
      <trkpt lat="45.12072" lon="4.9451">
        <ele>209.21200561523</ele>
        <time>2010-10-20T15:12:21Z</time>
      </trkpt>
      <trkpt lat="45.12065" lon="4.94558">
        <ele>211.00999450684</ele>
        <time>2010-10-20T15:12:28Z</time>
      </trkpt>
      <trkpt lat="45.12062" lon="4.9458">
        <ele>212.56199645996</ele>
        <time>2010-10-20T15:12:33Z</time>
      </trkpt>
      <trkpt lat="45.12061" lon="4.94607">
        <ele>215.01499938965</ele>
        <time>2010-10-20T15:12:41Z</time>
      </trkpt>
      <trkpt lat="45.12059" lon="4.94628">
        <ele>217.33000183106</ele>
        <time>2010-10-20T15:12:48Z</time>
      </trkpt>
      <trkpt lat="45.12057" lon="4.94649">
        <ele>219.72399902344</ele>
        <time>2010-10-20T15:12:55Z</time>
      </trkpt>
      <trkpt lat="45.12055" lon="4.94667">
        <ele>221.84399414062</ele>
        <time>2010-10-20T15:13:01Z</time>
      </trkpt>
      <trkpt lat="45.12054" lon="4.94683">
        <ele>224.05599975586</ele>
        <time>2010-10-20T15:13:07Z</time>
      </trkpt>
      <trkpt lat="45.12052" lon="4.94703">
        <ele>226.34800720215</ele>
        <time>2010-10-20T15:13:15Z</time>
      </trkpt>
      <trkpt lat="45.12051" lon="4.94725">
        <ele>228.54299926758</ele>
        <time>2010-10-20T15:13:23Z</time>
      </trkpt>
      <trkpt lat="45.12048" lon="4.94755">
        <ele>230.74299621582</ele>
        <time>2010-10-20T15:13:32Z</time>
      </trkpt>
      <trkpt lat="45.12047" lon="4.94773">
        <ele>232.25</ele>
        <time>2010-10-20T15:13:38Z</time>
      </trkpt>
      <trkpt lat="45.12046" lon="4.94791">
        <ele>234.05499267578</ele>
        <time>2010-10-20T15:13:44Z</time>
      </trkpt>
      <trkpt lat="45.12045" lon="4.94811">
        <ele>235.91999816894</ele>
        <time>2010-10-20T15:13:51Z</time>
      </trkpt>
      <trkpt lat="45.12043" lon="4.9483">
        <ele>237.82600402832</ele>
        <time>2010-10-20T15:13:58Z</time>
      </trkpt>
      <trkpt lat="45.12041" lon="4.94849">
        <ele>239.86799621582</ele>
        <time>2010-10-20T15:14:05Z</time>
      </trkpt>
      <trkpt lat="45.12038" lon="4.94872">
        <ele>242.00700378418</ele>
        <time>2010-10-20T15:14:13Z</time>
      </trkpt>
      <trkpt lat="45.12034" lon="4.94898">
        <ele>244.08500671387</ele>
        <time>2010-10-20T15:14:21Z</time>
      </trkpt>
      <trkpt lat="45.1203" lon="4.94922">
        <ele>244.59700012207</ele>
        <time>2010-10-20T15:14:28Z</time>
      </trkpt>
      <trkpt lat="45.12029" lon="4.94928">
        <ele>244.77900695801</ele>
        <time>2010-10-20T15:14:30Z</time>
      </trkpt>
      <trkpt lat="45.12017" lon="4.94933">
        <ele>244.97799682617</ele>
        <time>2010-10-20T15:14:36Z</time>
      </trkpt>
      <trkpt lat="45.12014" lon="4.94932">
        <ele>244.86799621582</ele>
        <time>2010-10-20T15:14:37Z</time>
      </trkpt>
      <trkpt lat="45.11991" lon="4.94923">
        <ele>244.05000305176</ele>
        <time>2010-10-20T15:14:44Z</time>
      </trkpt>
      <trkpt lat="45.11962" lon="4.94916">
        <ele>243.28199768066</ele>
        <time>2010-10-20T15:14:50Z</time>
      </trkpt>
      <trkpt lat="45.11938" lon="4.94911">
        <ele>242.37699890137</ele>
        <time>2010-10-20T15:14:55Z</time>
      </trkpt>
      <trkpt lat="45.11919" lon="4.94906">
        <ele>241.55499267578</ele>
        <time>2010-10-20T15:15:01Z</time>
      </trkpt>
      <trkpt lat="45.11895" lon="4.94901">
        <ele>241.14500427246</ele>
        <time>2010-10-20T15:15:09Z</time>
      </trkpt>
      <trkpt lat="45.11871" lon="4.94896">
        <ele>240.83000183106</ele>
        <time>2010-10-20T15:15:16Z</time>
      </trkpt>
      <trkpt lat="45.11865" lon="4.94896">
        <ele>240.92100524902</ele>
        <time>2010-10-20T15:15:20Z</time>
      </trkpt>
      <trkpt lat="45.11863" lon="4.94896">
        <ele>241.07299804688</ele>
        <time>2010-10-20T15:15:24Z</time>
      </trkpt>
      <trkpt lat="45.1186" lon="4.94895">
        <ele>240.78100585938</ele>
        <time>2010-10-20T15:15:37Z</time>
      </trkpt>
      <trkpt lat="45.11858" lon="4.94895">
        <ele>240.80799865723</ele>
        <time>2010-10-20T15:15:38Z</time>
      </trkpt>
      <trkpt lat="45.11841" lon="4.94895">
        <ele>240.43699645996</ele>
        <time>2010-10-20T15:15:45Z</time>
      </trkpt>
      <trkpt lat="45.11826" lon="4.94903">
        <ele>240.22500610352</ele>
        <time>2010-10-20T15:15:51Z</time>
      </trkpt>
      <trkpt lat="45.11808" lon="4.94909">
        <ele>239.65600585938</ele>
        <time>2010-10-20T15:15:58Z</time>
      </trkpt>
      <trkpt lat="45.11787" lon="4.94914">
        <ele>239.25900268555</ele>
        <time>2010-10-20T15:16:04Z</time>
      </trkpt>
      <trkpt lat="45.11783" lon="4.94916">
        <ele>239.12899780273</ele>
        <time>2010-10-20T15:16:05Z</time>
      </trkpt>
      <trkpt lat="45.11775" lon="4.94917">
        <ele>238.77699279785</ele>
        <time>2010-10-20T15:16:07Z</time>
      </trkpt>
      <trkpt lat="45.11745" lon="4.94925">
        <ele>237.06900024414</ele>
        <time>2010-10-20T15:16:13Z</time>
      </trkpt>
      <trkpt lat="45.11701" lon="4.94936">
        <ele>234.13200378418</ele>
        <time>2010-10-20T15:16:19Z</time>
      </trkpt>
      <trkpt lat="45.11646" lon="4.9495">
        <ele>229.54600524902</ele>
        <time>2010-10-20T15:16:25Z</time>
      </trkpt>
      <trkpt lat="45.11617" lon="4.94959">
        <ele>228.0890045166</ele>
        <time>2010-10-20T15:16:29Z</time>
      </trkpt>
      <trkpt lat="45.11606" lon="4.94965">
        <ele>226.57200622559</ele>
        <time>2010-10-20T15:16:32Z</time>
      </trkpt>
      <trkpt lat="45.11604" lon="4.94967">
        <ele>226.30299377441</ele>
        <time>2010-10-20T15:16:33Z</time>
      </trkpt>
      <trkpt lat="45.11602" lon="4.94969">
        <ele>225.68800354004</ele>
        <time>2010-10-20T15:16:34Z</time>
      </trkpt>
      <trkpt lat="45.11603" lon="4.94982">
        <ele>224.36599731445</ele>
        <time>2010-10-20T15:16:37Z</time>
      </trkpt>
      <trkpt lat="45.11618" lon="4.95014">
        <ele>223.87699890137</ele>
        <time>2010-10-20T15:16:43Z</time>
      </trkpt>
      <trkpt lat="45.11626" lon="4.95031">
        <ele>223.57400512695</ele>
        <time>2010-10-20T15:16:46Z</time>
      </trkpt>
      <trkpt lat="45.1165" lon="4.95079">
        <ele>222.45199584961</ele>
        <time>2010-10-20T15:16:53Z</time>
      </trkpt>
      <trkpt lat="45.11663" lon="4.95112">
        <ele>221.73100280762</ele>
        <time>2010-10-20T15:16:57Z</time>
      </trkpt>
      <trkpt lat="45.11681" lon="4.95176">
        <ele>219.83299255371</ele>
        <time>2010-10-20T15:17:04Z</time>
      </trkpt>
      <trkpt lat="45.11692" lon="4.95218">
        <ele>219.14500427246</ele>
        <time>2010-10-20T15:17:09Z</time>
      </trkpt>
      <trkpt lat="45.1171" lon="4.95265">
        <ele>217.94200134277</ele>
        <time>2010-10-20T15:17:15Z</time>
      </trkpt>
      <trkpt lat="45.11717" lon="4.95281">
        <ele>217.43800354004</ele>
        <time>2010-10-20T15:17:17Z</time>
      </trkpt>
      <trkpt lat="45.11722" lon="4.95321">
        <ele>216.31799316406</ele>
        <time>2010-10-20T15:17:21Z</time>
      </trkpt>
      <trkpt lat="45.11715" lon="4.9538">
        <ele>212.68699645996</ele>
        <time>2010-10-20T15:17:26Z</time>
      </trkpt>
      <trkpt lat="45.11723" lon="4.95405">
        <ele>210.75900268555</ele>
        <time>2010-10-20T15:17:28Z</time>
      </trkpt>
      <trkpt lat="45.11739" lon="4.95422">
        <ele>207.83999633789</ele>
        <time>2010-10-20T15:17:30Z</time>
      </trkpt>
      <trkpt lat="45.11758" lon="4.95428">
        <ele>206.05999755859</ele>
        <time>2010-10-20T15:17:32Z</time>
      </trkpt>
      <trkpt lat="45.11799" lon="4.95437">
        <ele>203.00100708008</ele>
        <time>2010-10-20T15:17:36Z</time>
      </trkpt>
      <trkpt lat="45.11829" lon="4.95466">
        <ele>201.48699951172</ele>
        <time>2010-10-20T15:17:40Z</time>
      </trkpt>
      <trkpt lat="45.11831" lon="4.95491">
        <ele>200.96000671387</ele>
        <time>2010-10-20T15:17:42Z</time>
      </trkpt>
      <trkpt lat="45.11821" lon="4.95522">
        <ele>201.89199829102</ele>
        <time>2010-10-20T15:17:45Z</time>
      </trkpt>
      <trkpt lat="45.11815" lon="4.95529">
        <ele>202.63200378418</ele>
        <time>2010-10-20T15:17:46Z</time>
      </trkpt>
      <trkpt lat="45.11797" lon="4.95561">
        <ele>206.00799560547</ele>
        <time>2010-10-20T15:17:52Z</time>
      </trkpt>
      <trkpt lat="45.11798" lon="4.95576">
        <ele>207.44099426269</ele>
        <time>2010-10-20T15:17:55Z</time>
      </trkpt>
      <trkpt lat="45.118" lon="4.95586">
        <ele>208.2559967041</ele>
        <time>2010-10-20T15:17:57Z</time>
      </trkpt>
      <trkpt lat="45.11801" lon="4.95606">
        <ele>209.44799804688</ele>
        <time>2010-10-20T15:18:01Z</time>
      </trkpt>
      <trkpt lat="45.11795" lon="4.95623">
        <ele>210.69299316406</ele>
        <time>2010-10-20T15:18:05Z</time>
      </trkpt>
      <trkpt lat="45.11788" lon="4.95626">
        <ele>211.15299987793</ele>
        <time>2010-10-20T15:18:07Z</time>
      </trkpt>
      <trkpt lat="45.11774" lon="4.95627">
        <ele>212.4640045166</ele>
        <time>2010-10-20T15:18:11Z</time>
      </trkpt>
      <trkpt lat="45.11756" lon="4.95637">
        <ele>213.94099426269</ele>
        <time>2010-10-20T15:18:17Z</time>
      </trkpt>
      <trkpt lat="45.11752" lon="4.95643">
        <ele>214.5890045166</ele>
        <time>2010-10-20T15:18:19Z</time>
      </trkpt>
      <trkpt lat="45.11747" lon="4.95661">
        <ele>215.70700073242</ele>
        <time>2010-10-20T15:18:23Z</time>
      </trkpt>
      <trkpt lat="45.11745" lon="4.95687">
        <ele>217.23199462891</ele>
        <time>2010-10-20T15:18:29Z</time>
      </trkpt>
      <trkpt lat="45.11745" lon="4.95709">
        <ele>218.65899658203</ele>
        <time>2010-10-20T15:18:34Z</time>
      </trkpt>
      <trkpt lat="45.11744" lon="4.95735">
        <ele>220.0890045166</ele>
        <time>2010-10-20T15:18:40Z</time>
      </trkpt>
      <trkpt lat="45.11743" lon="4.95762">
        <ele>221.47500610352</ele>
        <time>2010-10-20T15:18:46Z</time>
      </trkpt>
      <trkpt lat="45.11746" lon="4.95798">
        <ele>222.17999267578</ele>
        <time>2010-10-20T15:18:53Z</time>
      </trkpt>
      <trkpt lat="45.11752" lon="4.9583">
        <ele>222.12399291992</ele>
        <time>2010-10-20T15:18:59Z</time>
      </trkpt>
      <trkpt lat="45.11757" lon="4.95855">
        <ele>221.27299499512</ele>
        <time>2010-10-20T15:19:03Z</time>
      </trkpt>
      <trkpt lat="45.11768" lon="4.959">
        <ele>219.63900756836</ele>
        <time>2010-10-20T15:19:09Z</time>
      </trkpt>
      <trkpt lat="45.11772" lon="4.95916">
        <ele>218.95799255371</ele>
        <time>2010-10-20T15:19:11Z</time>
      </trkpt>
      <trkpt lat="45.11764" lon="4.95931">
        <ele>218.10899353027</ele>
        <time>2010-10-20T15:19:15Z</time>
      </trkpt>
      <trkpt lat="45.11752" lon="4.95925">
        <ele>218.38499450684</ele>
        <time>2010-10-20T15:19:18Z</time>
      </trkpt>
      <trkpt lat="45.11744" lon="4.95919">
        <ele>218.7380065918</ele>
        <time>2010-10-20T15:19:20Z</time>
      </trkpt>
      <trkpt lat="45.11708" lon="4.95895">
        <ele>220.27699279785</ele>
        <time>2010-10-20T15:19:28Z</time>
      </trkpt>
      <trkpt lat="45.11682" lon="4.9588">
        <ele>222.02799987793</ele>
        <time>2010-10-20T15:19:34Z</time>
      </trkpt>
      <trkpt lat="45.11666" lon="4.95884">
        <ele>223.01899719238</ele>
        <time>2010-10-20T15:19:38Z</time>
      </trkpt>
      <trkpt lat="45.11662" lon="4.959">
        <ele>222.39999389648</ele>
        <time>2010-10-20T15:19:41Z</time>
      </trkpt>
      <trkpt lat="45.11646" lon="4.9596">
        <ele>222.05799865723</ele>
        <time>2010-10-20T15:19:50Z</time>
      </trkpt>
      <trkpt lat="45.11629" lon="4.9601">
        <ele>219.47099304199</ele>
        <time>2010-10-20T15:19:55Z</time>
      </trkpt>
      <trkpt lat="45.11613" lon="4.96061">
        <ele>214.45300292969</ele>
        <time>2010-10-20T15:19:59Z</time>
      </trkpt>
      <trkpt lat="45.11603" lon="4.96104">
        <ele>211.62800598144</ele>
        <time>2010-10-20T15:20:02Z</time>
      </trkpt>
      <trkpt lat="45.11597" lon="4.96134">
        <ele>209.39399719238</ele>
        <time>2010-10-20T15:20:04Z</time>
      </trkpt>
      <trkpt lat="45.11589" lon="4.96162">
        <ele>207.72799682617</ele>
        <time>2010-10-20T15:20:06Z</time>
      </trkpt>
      <trkpt lat="45.11572" lon="4.96178">
        <ele>208.56500244141</ele>
        <time>2010-10-20T15:20:08Z</time>
      </trkpt>
      <trkpt lat="45.11561" lon="4.96181">
        <ele>208.83799743652</ele>
        <time>2010-10-20T15:20:09Z</time>
      </trkpt>
      <trkpt lat="45.11531" lon="4.96185">
        <ele>207.58599853516</ele>
        <time>2010-10-20T15:20:12Z</time>
      </trkpt>
      <trkpt lat="45.1152" lon="4.96198">
        <ele>205.82000732422</ele>
        <time>2010-10-20T15:20:15Z</time>
      </trkpt>
      <trkpt lat="45.11527" lon="4.96213">
        <ele>204.06399536133</ele>
        <time>2010-10-20T15:20:17Z</time>
      </trkpt>
      <trkpt lat="45.11533" lon="4.96219">
        <ele>202.98500061035</ele>
        <time>2010-10-20T15:20:18Z</time>
      </trkpt>
      <trkpt lat="45.11554" lon="4.96241">
        <ele>200.64900207519</ele>
        <time>2010-10-20T15:20:21Z</time>
      </trkpt>
      <trkpt lat="45.11578" lon="4.96288">
        <ele>195.34599304199</ele>
        <time>2010-10-20T15:20:25Z</time>
      </trkpt>
      <trkpt lat="45.1158" lon="4.96305">
        <ele>194.39799499512</ele>
        <time>2010-10-20T15:20:26Z</time>
      </trkpt>
      <trkpt lat="45.11586" lon="4.96357">
        <ele>188.77099609375</ele>
        <time>2010-10-20T15:20:29Z</time>
      </trkpt>
      <trkpt lat="45.11583" lon="4.96439">
        <ele>184.59399414062</ele>
        <time>2010-10-20T15:20:34Z</time>
      </trkpt>
      <trkpt lat="45.11581" lon="4.96451">
        <ele>185.34100341797</ele>
        <time>2010-10-20T15:20:36Z</time>
      </trkpt>
      <trkpt lat="45.11578" lon="4.96451">
        <ele>186.04800415039</ele>
        <time>2010-10-20T15:20:38Z</time>
      </trkpt>
      <trkpt lat="45.11576" lon="4.9645">
        <ele>186.05599975586</ele>
        <time>2010-10-20T15:20:41Z</time>
      </trkpt>
      <trkpt lat="45.11566" lon="4.96453">
        <ele>185.58700561523</ele>
        <time>2010-10-20T15:21:02Z</time>
      </trkpt>
      <trkpt lat="45.11563" lon="4.96449">
        <ele>185.5359954834</ele>
        <time>2010-10-20T15:21:04Z</time>
      </trkpt>
      <trkpt lat="45.11559" lon="4.96439">
        <ele>185.45799255371</ele>
        <time>2010-10-20T15:21:07Z</time>
      </trkpt>
      <trkpt lat="45.11562" lon="4.96427">
        <ele>186.07000732422</ele>
        <time>2010-10-20T15:21:11Z</time>
      </trkpt>
      <trkpt lat="45.11566" lon="4.96429">
        <ele>186.32499694824</ele>
        <time>2010-10-20T15:21:15Z</time>
      </trkpt>
    </trkseg>
  </trk>
</gpx>